<?xml version="1.0" encoding="UTF-8" standalone="no" ?>
<gpx xmlns="http://www.topografix.com/GPX/1/1" xmlns:xsi="http://www.w3.org/2001/XMLSchema-instance" xsi:schemaLocation="http://www.topografix.com/GPX/1/1 http://www.topografix.com/GPX/1/1/gpx.xsd" version="1.1" creator="VisuGPX - https://www.visugpx.com">
  <metadata>
    <name>sortie du 15/04/17</name>
    <desc><![CDATA[départ d'artix, 8km de route et après forêt d'abos]]></desc>
  </metadata>
  <trk>
    <name><![CDATA[Tracé actuel: 15 AVR 2017 08:02]]></name>
    <trkseg>
      <trkpt lat="43.40089" lon="-0.57994">
        <ele>117.42</ele>
        <time>2017-04-15T06:02:41Z</time>
      </trkpt>
      <trkpt lat="43.40088" lon="-0.57999">
        <ele>119.82</ele>
        <time>2017-04-15T06:03:10Z</time>
      </trkpt>
      <trkpt lat="43.40087" lon="-0.58001">
        <ele>117.9</ele>
        <time>2017-04-15T06:03:21Z</time>
      </trkpt>
      <trkpt lat="43.40075" lon="-0.58015">
        <ele>115.5</ele>
        <time>2017-04-15T06:03:29Z</time>
      </trkpt>
      <trkpt lat="43.40075" lon="-0.58018">
        <ele>115.01</ele>
        <time>2017-04-15T06:03:30Z</time>
      </trkpt>
      <trkpt lat="43.40086" lon="-0.58076">
        <ele>112.13</ele>
        <time>2017-04-15T06:03:42Z</time>
      </trkpt>
      <trkpt lat="43.40084" lon="-0.58091">
        <ele>111.65</ele>
        <time>2017-04-15T06:03:48Z</time>
      </trkpt>
      <trkpt lat="43.40082" lon="-0.58093">
        <ele>111.17</ele>
        <time>2017-04-15T06:03:49Z</time>
      </trkpt>
      <trkpt lat="43.40079" lon="-0.58094">
        <ele>111.17</ele>
        <time>2017-04-15T06:03:50Z</time>
      </trkpt>
      <trkpt lat="43.40016" lon="-0.58129">
        <ele>111.65</ele>
        <time>2017-04-15T06:04:06Z</time>
      </trkpt>
      <trkpt lat="43.40002" lon="-0.58138">
        <ele>111.65</ele>
        <time>2017-04-15T06:04:13Z</time>
      </trkpt>
      <trkpt lat="43.39984" lon="-0.5811">
        <ele>111.65</ele>
        <time>2017-04-15T06:04:22Z</time>
      </trkpt>
      <trkpt lat="43.39944" lon="-0.58">
        <ele>111.17</ele>
        <time>2017-04-15T06:04:39Z</time>
      </trkpt>
      <trkpt lat="43.3991" lon="-0.57914">
        <ele>113.09</ele>
        <time>2017-04-15T06:04:51Z</time>
      </trkpt>
      <trkpt lat="43.39906" lon="-0.57908">
        <ele>113.09</ele>
        <time>2017-04-15T06:04:52Z</time>
      </trkpt>
      <trkpt lat="43.39902" lon="-0.57902">
        <ele>113.09</ele>
        <time>2017-04-15T06:04:53Z</time>
      </trkpt>
      <trkpt lat="43.39898" lon="-0.57896">
        <ele>113.57</ele>
        <time>2017-04-15T06:04:54Z</time>
      </trkpt>
      <trkpt lat="43.39894" lon="-0.57888">
        <ele>113.57</ele>
        <time>2017-04-15T06:04:55Z</time>
      </trkpt>
      <trkpt lat="43.39866" lon="-0.57845">
        <ele>114.05</ele>
        <time>2017-04-15T06:05:02Z</time>
      </trkpt>
      <trkpt lat="43.39861" lon="-0.57841">
        <ele>113.57</ele>
        <time>2017-04-15T06:05:03Z</time>
      </trkpt>
      <trkpt lat="43.39839" lon="-0.57824">
        <ele>113.09</ele>
        <time>2017-04-15T06:05:07Z</time>
      </trkpt>
      <trkpt lat="43.39835" lon="-0.57818">
        <ele>112.61</ele>
        <time>2017-04-15T06:05:08Z</time>
      </trkpt>
      <trkpt lat="43.39758" lon="-0.57717">
        <ele>111.17</ele>
        <time>2017-04-15T06:05:24Z</time>
      </trkpt>
      <trkpt lat="43.39675" lon="-0.5761">
        <ele>111.65</ele>
        <time>2017-04-15T06:05:42Z</time>
      </trkpt>
      <trkpt lat="43.39671" lon="-0.57607">
        <ele>112.13</ele>
        <time>2017-04-15T06:05:43Z</time>
      </trkpt>
      <trkpt lat="43.39666" lon="-0.57604">
        <ele>112.61</ele>
        <time>2017-04-15T06:05:44Z</time>
      </trkpt>
      <trkpt lat="43.3966" lon="-0.57603">
        <ele>113.09</ele>
        <time>2017-04-15T06:05:45Z</time>
      </trkpt>
      <trkpt lat="43.39654" lon="-0.57603">
        <ele>113.09</ele>
        <time>2017-04-15T06:05:46Z</time>
      </trkpt>
      <trkpt lat="43.39648" lon="-0.57601">
        <ele>113.57</ele>
        <time>2017-04-15T06:05:47Z</time>
      </trkpt>
      <trkpt lat="43.39642" lon="-0.57598">
        <ele>114.05</ele>
        <time>2017-04-15T06:05:48Z</time>
      </trkpt>
      <trkpt lat="43.39637" lon="-0.57594">
        <ele>114.05</ele>
        <time>2017-04-15T06:05:49Z</time>
      </trkpt>
      <trkpt lat="43.39631" lon="-0.5759">
        <ele>114.53</ele>
        <time>2017-04-15T06:05:50Z</time>
      </trkpt>
      <trkpt lat="43.39626" lon="-0.57587">
        <ele>114.53</ele>
        <time>2017-04-15T06:05:51Z</time>
      </trkpt>
      <trkpt lat="43.3962" lon="-0.57587">
        <ele>114.53</ele>
        <time>2017-04-15T06:05:52Z</time>
      </trkpt>
      <trkpt lat="43.39614" lon="-0.57589">
        <ele>114.53</ele>
        <time>2017-04-15T06:05:53Z</time>
      </trkpt>
      <trkpt lat="43.39609" lon="-0.57592">
        <ele>114.53</ele>
        <time>2017-04-15T06:05:54Z</time>
      </trkpt>
      <trkpt lat="43.39603" lon="-0.57597">
        <ele>114.53</ele>
        <time>2017-04-15T06:05:55Z</time>
      </trkpt>
      <trkpt lat="43.39599" lon="-0.57602">
        <ele>114.53</ele>
        <time>2017-04-15T06:05:56Z</time>
      </trkpt>
      <trkpt lat="43.39514" lon="-0.57681">
        <ele>110.69</ele>
        <time>2017-04-15T06:06:11Z</time>
      </trkpt>
      <trkpt lat="43.39394" lon="-0.57794">
        <ele>107.32</ele>
        <time>2017-04-15T06:06:28Z</time>
      </trkpt>
      <trkpt lat="43.39281" lon="-0.57895">
        <ele>107.81</ele>
        <time>2017-04-15T06:06:46Z</time>
      </trkpt>
      <trkpt lat="43.39178" lon="-0.57939">
        <ele>108.77</ele>
        <time>2017-04-15T06:07:01Z</time>
      </trkpt>
      <trkpt lat="43.39055" lon="-0.57976">
        <ele>108.77</ele>
        <time>2017-04-15T06:07:18Z</time>
      </trkpt>
      <trkpt lat="43.39043" lon="-0.57985">
        <ele>108.77</ele>
        <time>2017-04-15T06:07:20Z</time>
      </trkpt>
      <trkpt lat="43.38949" lon="-0.58085">
        <ele>107.81</ele>
        <time>2017-04-15T06:07:37Z</time>
      </trkpt>
      <trkpt lat="43.38849" lon="-0.58195">
        <ele>106.84</ele>
        <time>2017-04-15T06:07:55Z</time>
      </trkpt>
      <trkpt lat="43.38736" lon="-0.5832">
        <ele>107.32</ele>
        <time>2017-04-15T06:08:16Z</time>
      </trkpt>
      <trkpt lat="43.38629" lon="-0.58444">
        <ele>106.36</ele>
        <time>2017-04-15T06:08:36Z</time>
      </trkpt>
      <trkpt lat="43.38585" lon="-0.58536">
        <ele>108.29</ele>
        <time>2017-04-15T06:08:48Z</time>
      </trkpt>
      <trkpt lat="43.38532" lon="-0.58686">
        <ele>109.73</ele>
        <time>2017-04-15T06:09:06Z</time>
      </trkpt>
      <trkpt lat="43.38522" lon="-0.58709">
        <ele>109.25</ele>
        <time>2017-04-15T06:09:09Z</time>
      </trkpt>
      <trkpt lat="43.38516" lon="-0.58715">
        <ele>109.25</ele>
        <time>2017-04-15T06:09:10Z</time>
      </trkpt>
      <trkpt lat="43.38509" lon="-0.58719">
        <ele>108.77</ele>
        <time>2017-04-15T06:09:11Z</time>
      </trkpt>
      <trkpt lat="43.38501" lon="-0.58723">
        <ele>108.77</ele>
        <time>2017-04-15T06:09:12Z</time>
      </trkpt>
      <trkpt lat="43.38498" lon="-0.58726">
        <ele>108.77</ele>
        <time>2017-04-15T06:09:13Z</time>
      </trkpt>
      <trkpt lat="43.38493" lon="-0.58732">
        <ele>108.77</ele>
        <time>2017-04-15T06:09:14Z</time>
      </trkpt>
      <trkpt lat="43.38488" lon="-0.58739">
        <ele>108.77</ele>
        <time>2017-04-15T06:09:15Z</time>
      </trkpt>
      <trkpt lat="43.38484" lon="-0.58745">
        <ele>108.77</ele>
        <time>2017-04-15T06:09:16Z</time>
      </trkpt>
      <trkpt lat="43.38451" lon="-0.58779">
        <ele>108.77</ele>
        <time>2017-04-15T06:09:22Z</time>
      </trkpt>
      <trkpt lat="43.38445" lon="-0.58782">
        <ele>108.77</ele>
        <time>2017-04-15T06:09:23Z</time>
      </trkpt>
      <trkpt lat="43.38439" lon="-0.58785">
        <ele>108.77</ele>
        <time>2017-04-15T06:09:24Z</time>
      </trkpt>
      <trkpt lat="43.38433" lon="-0.58786">
        <ele>108.77</ele>
        <time>2017-04-15T06:09:25Z</time>
      </trkpt>
      <trkpt lat="43.38426" lon="-0.58786">
        <ele>108.77</ele>
        <time>2017-04-15T06:09:26Z</time>
      </trkpt>
      <trkpt lat="43.3842" lon="-0.58786">
        <ele>108.77</ele>
        <time>2017-04-15T06:09:27Z</time>
      </trkpt>
      <trkpt lat="43.38413" lon="-0.58786">
        <ele>108.77</ele>
        <time>2017-04-15T06:09:28Z</time>
      </trkpt>
      <trkpt lat="43.38407" lon="-0.58784">
        <ele>108.77</ele>
        <time>2017-04-15T06:09:29Z</time>
      </trkpt>
      <trkpt lat="43.38401" lon="-0.58782">
        <ele>108.77</ele>
        <time>2017-04-15T06:09:30Z</time>
      </trkpt>
      <trkpt lat="43.38395" lon="-0.58778">
        <ele>108.77</ele>
        <time>2017-04-15T06:09:31Z</time>
      </trkpt>
      <trkpt lat="43.38389" lon="-0.58775">
        <ele>108.29</ele>
        <time>2017-04-15T06:09:32Z</time>
      </trkpt>
      <trkpt lat="43.38384" lon="-0.58771">
        <ele>108.29</ele>
        <time>2017-04-15T06:09:33Z</time>
      </trkpt>
      <trkpt lat="43.38378" lon="-0.58766">
        <ele>108.29</ele>
        <time>2017-04-15T06:09:34Z</time>
      </trkpt>
      <trkpt lat="43.38373" lon="-0.58761">
        <ele>108.29</ele>
        <time>2017-04-15T06:09:35Z</time>
      </trkpt>
      <trkpt lat="43.38309" lon="-0.58673">
        <ele>109.25</ele>
        <time>2017-04-15T06:09:49Z</time>
      </trkpt>
      <trkpt lat="43.38228" lon="-0.5856">
        <ele>111.65</ele>
        <time>2017-04-15T06:10:06Z</time>
      </trkpt>
      <trkpt lat="43.38126" lon="-0.58436">
        <ele>112.61</ele>
        <time>2017-04-15T06:10:27Z</time>
      </trkpt>
      <trkpt lat="43.38038" lon="-0.58352">
        <ele>111.17</ele>
        <time>2017-04-15T06:10:44Z</time>
      </trkpt>
      <trkpt lat="43.37978" lon="-0.58327">
        <ele>111.17</ele>
        <time>2017-04-15T06:10:54Z</time>
      </trkpt>
      <trkpt lat="43.37967" lon="-0.58317">
        <ele>111.17</ele>
        <time>2017-04-15T06:10:56Z</time>
      </trkpt>
      <trkpt lat="43.37963" lon="-0.58312">
        <ele>111.17</ele>
        <time>2017-04-15T06:10:57Z</time>
      </trkpt>
      <trkpt lat="43.37958" lon="-0.58305">
        <ele>111.17</ele>
        <time>2017-04-15T06:10:58Z</time>
      </trkpt>
      <trkpt lat="43.37954" lon="-0.58299">
        <ele>111.17</ele>
        <time>2017-04-15T06:10:59Z</time>
      </trkpt>
      <trkpt lat="43.3795" lon="-0.58292">
        <ele>111.17</ele>
        <time>2017-04-15T06:11:00Z</time>
      </trkpt>
      <trkpt lat="43.37946" lon="-0.58284">
        <ele>110.69</ele>
        <time>2017-04-15T06:11:01Z</time>
      </trkpt>
      <trkpt lat="43.37895" lon="-0.58135">
        <ele>111.17</ele>
        <time>2017-04-15T06:11:19Z</time>
      </trkpt>
      <trkpt lat="43.37846" lon="-0.57984">
        <ele>113.09</ele>
        <time>2017-04-15T06:11:38Z</time>
      </trkpt>
      <trkpt lat="43.37799" lon="-0.57842">
        <ele>112.61</ele>
        <time>2017-04-15T06:11:56Z</time>
      </trkpt>
      <trkpt lat="43.37752" lon="-0.57705">
        <ele>112.13</ele>
        <time>2017-04-15T06:12:13Z</time>
      </trkpt>
      <trkpt lat="43.37738" lon="-0.57674">
        <ele>111.65</ele>
        <time>2017-04-15T06:12:17Z</time>
      </trkpt>
      <trkpt lat="43.37665" lon="-0.57552">
        <ele>114.05</ele>
        <time>2017-04-15T06:12:35Z</time>
      </trkpt>
      <trkpt lat="43.3759" lon="-0.57428">
        <ele>113.57</ele>
        <time>2017-04-15T06:12:54Z</time>
      </trkpt>
      <trkpt lat="43.37514" lon="-0.57305">
        <ele>113.09</ele>
        <time>2017-04-15T06:13:13Z</time>
      </trkpt>
      <trkpt lat="43.37435" lon="-0.57196">
        <ele>114.05</ele>
        <time>2017-04-15T06:13:31Z</time>
      </trkpt>
      <trkpt lat="43.37332" lon="-0.57082">
        <ele>113.09</ele>
        <time>2017-04-15T06:13:52Z</time>
      </trkpt>
      <trkpt lat="43.37305" lon="-0.57026">
        <ele>114.53</ele>
        <time>2017-04-15T06:14:00Z</time>
      </trkpt>
      <trkpt lat="43.37302" lon="-0.57021">
        <ele>114.53</ele>
        <time>2017-04-15T06:14:01Z</time>
      </trkpt>
      <trkpt lat="43.37297" lon="-0.57016">
        <ele>114.53</ele>
        <time>2017-04-15T06:14:02Z</time>
      </trkpt>
      <trkpt lat="43.37293" lon="-0.57014">
        <ele>115.01</ele>
        <time>2017-04-15T06:14:03Z</time>
      </trkpt>
      <trkpt lat="43.37287" lon="-0.57012">
        <ele>115.01</ele>
        <time>2017-04-15T06:14:04Z</time>
      </trkpt>
      <trkpt lat="43.37281" lon="-0.57011">
        <ele>115.01</ele>
        <time>2017-04-15T06:14:05Z</time>
      </trkpt>
      <trkpt lat="43.37277" lon="-0.57012">
        <ele>115.01</ele>
        <time>2017-04-15T06:14:06Z</time>
      </trkpt>
      <trkpt lat="43.37271" lon="-0.57014">
        <ele>115.01</ele>
        <time>2017-04-15T06:14:07Z</time>
      </trkpt>
      <trkpt lat="43.37266" lon="-0.57017">
        <ele>115.01</ele>
        <time>2017-04-15T06:14:08Z</time>
      </trkpt>
      <trkpt lat="43.37261" lon="-0.5702">
        <ele>115.5</ele>
        <time>2017-04-15T06:14:09Z</time>
      </trkpt>
      <trkpt lat="43.37256" lon="-0.57023">
        <ele>115.5</ele>
        <time>2017-04-15T06:14:10Z</time>
      </trkpt>
      <trkpt lat="43.37167" lon="-0.57071">
        <ele>115.98</ele>
        <time>2017-04-15T06:14:27Z</time>
      </trkpt>
      <trkpt lat="43.37132" lon="-0.57079">
        <ele>116.46</ele>
        <time>2017-04-15T06:14:33Z</time>
      </trkpt>
      <trkpt lat="43.37127" lon="-0.57082">
        <ele>116.46</ele>
        <time>2017-04-15T06:14:34Z</time>
      </trkpt>
      <trkpt lat="43.37058" lon="-0.57159">
        <ele>115.5</ele>
        <time>2017-04-15T06:14:48Z</time>
      </trkpt>
      <trkpt lat="43.36952" lon="-0.57288">
        <ele>114.53</ele>
        <time>2017-04-15T06:15:09Z</time>
      </trkpt>
      <trkpt lat="43.36859" lon="-0.57403">
        <ele>113.09</ele>
        <time>2017-04-15T06:15:28Z</time>
      </trkpt>
      <trkpt lat="43.36782" lon="-0.57456">
        <ele>113.57</ele>
        <time>2017-04-15T06:15:42Z</time>
      </trkpt>
      <trkpt lat="43.3667" lon="-0.57523">
        <ele>115.01</ele>
        <time>2017-04-15T06:16:02Z</time>
      </trkpt>
      <trkpt lat="43.36571" lon="-0.57619">
        <ele>115.01</ele>
        <time>2017-04-15T06:16:21Z</time>
      </trkpt>
      <trkpt lat="43.36517" lon="-0.57673">
        <ele>115.98</ele>
        <time>2017-04-15T06:16:32Z</time>
      </trkpt>
      <trkpt lat="43.36508" lon="-0.57679">
        <ele>115.98</ele>
        <time>2017-04-15T06:16:34Z</time>
      </trkpt>
      <trkpt lat="43.36503" lon="-0.57681">
        <ele>115.98</ele>
        <time>2017-04-15T06:16:35Z</time>
      </trkpt>
      <trkpt lat="43.36498" lon="-0.57682">
        <ele>116.46</ele>
        <time>2017-04-15T06:16:36Z</time>
      </trkpt>
      <trkpt lat="43.36485" lon="-0.57682">
        <ele>116.94</ele>
        <time>2017-04-15T06:16:40Z</time>
      </trkpt>
      <trkpt lat="43.3648" lon="-0.57667">
        <ele>116.94</ele>
        <time>2017-04-15T06:16:43Z</time>
      </trkpt>
      <trkpt lat="43.3647" lon="-0.57632">
        <ele>115.98</ele>
        <time>2017-04-15T06:16:48Z</time>
      </trkpt>
      <trkpt lat="43.36466" lon="-0.57625">
        <ele>115.98</ele>
        <time>2017-04-15T06:16:49Z</time>
      </trkpt>
      <trkpt lat="43.36434" lon="-0.5757">
        <ele>115.5</ele>
        <time>2017-04-15T06:16:58Z</time>
      </trkpt>
      <trkpt lat="43.36432" lon="-0.57563">
        <ele>115.5</ele>
        <time>2017-04-15T06:16:59Z</time>
      </trkpt>
      <trkpt lat="43.36431" lon="-0.57555">
        <ele>115.5</ele>
        <time>2017-04-15T06:17:00Z</time>
      </trkpt>
      <trkpt lat="43.3642" lon="-0.57409">
        <ele>115.5</ele>
        <time>2017-04-15T06:17:18Z</time>
      </trkpt>
      <trkpt lat="43.36399" lon="-0.57244">
        <ele>115.98</ele>
        <time>2017-04-15T06:17:38Z</time>
      </trkpt>
      <trkpt lat="43.36363" lon="-0.57106">
        <ele>116.46</ele>
        <time>2017-04-15T06:17:55Z</time>
      </trkpt>
      <trkpt lat="43.36318" lon="-0.56962">
        <ele>118.86</ele>
        <time>2017-04-15T06:18:13Z</time>
      </trkpt>
      <trkpt lat="43.36296" lon="-0.5691">
        <ele>119.34</ele>
        <time>2017-04-15T06:18:20Z</time>
      </trkpt>
      <trkpt lat="43.36292" lon="-0.56904">
        <ele>119.34</ele>
        <time>2017-04-15T06:18:21Z</time>
      </trkpt>
      <trkpt lat="43.36226" lon="-0.568">
        <ele>120.78</ele>
        <time>2017-04-15T06:18:37Z</time>
      </trkpt>
      <trkpt lat="43.36222" lon="-0.56795">
        <ele>120.78</ele>
        <time>2017-04-15T06:18:38Z</time>
      </trkpt>
      <trkpt lat="43.36217" lon="-0.5679">
        <ele>121.26</ele>
        <time>2017-04-15T06:18:39Z</time>
      </trkpt>
      <trkpt lat="43.36213" lon="-0.56787">
        <ele>121.26</ele>
        <time>2017-04-15T06:18:40Z</time>
      </trkpt>
      <trkpt lat="43.36208" lon="-0.56785">
        <ele>121.26</ele>
        <time>2017-04-15T06:18:41Z</time>
      </trkpt>
      <trkpt lat="43.36204" lon="-0.56783">
        <ele>121.26</ele>
        <time>2017-04-15T06:18:42Z</time>
      </trkpt>
      <trkpt lat="43.362" lon="-0.56781">
        <ele>120.78</ele>
        <time>2017-04-15T06:18:43Z</time>
      </trkpt>
      <trkpt lat="43.36196" lon="-0.56778">
        <ele>120.78</ele>
        <time>2017-04-15T06:18:44Z</time>
      </trkpt>
      <trkpt lat="43.36194" lon="-0.56773">
        <ele>120.78</ele>
        <time>2017-04-15T06:18:45Z</time>
      </trkpt>
      <trkpt lat="43.36192" lon="-0.56766">
        <ele>120.78</ele>
        <time>2017-04-15T06:18:46Z</time>
      </trkpt>
      <trkpt lat="43.36191" lon="-0.56759">
        <ele>120.3</ele>
        <time>2017-04-15T06:18:47Z</time>
      </trkpt>
      <trkpt lat="43.3619" lon="-0.56752">
        <ele>120.3</ele>
        <time>2017-04-15T06:18:48Z</time>
      </trkpt>
      <trkpt lat="43.36188" lon="-0.56738">
        <ele>120.3</ele>
        <time>2017-04-15T06:18:50Z</time>
      </trkpt>
      <trkpt lat="43.36186" lon="-0.56731">
        <ele>119.82</ele>
        <time>2017-04-15T06:18:51Z</time>
      </trkpt>
      <trkpt lat="43.36182" lon="-0.56723">
        <ele>119.82</ele>
        <time>2017-04-15T06:18:52Z</time>
      </trkpt>
      <trkpt lat="43.3618" lon="-0.56718">
        <ele>119.82</ele>
        <time>2017-04-15T06:18:53Z</time>
      </trkpt>
      <trkpt lat="43.36176" lon="-0.56712">
        <ele>119.82</ele>
        <time>2017-04-15T06:18:54Z</time>
      </trkpt>
      <trkpt lat="43.36116" lon="-0.56646">
        <ele>117.9</ele>
        <time>2017-04-15T06:19:07Z</time>
      </trkpt>
      <trkpt lat="43.36091" lon="-0.56624">
        <ele>118.38</ele>
        <time>2017-04-15T06:19:12Z</time>
      </trkpt>
      <trkpt lat="43.36049" lon="-0.56592">
        <ele>118.86</ele>
        <time>2017-04-15T06:19:20Z</time>
      </trkpt>
      <trkpt lat="43.36044" lon="-0.56586">
        <ele>118.86</ele>
        <time>2017-04-15T06:19:21Z</time>
      </trkpt>
      <trkpt lat="43.35989" lon="-0.56476">
        <ele>118.86</ele>
        <time>2017-04-15T06:19:37Z</time>
      </trkpt>
      <trkpt lat="43.35956" lon="-0.56349">
        <ele>119.82</ele>
        <time>2017-04-15T06:19:53Z</time>
      </trkpt>
      <trkpt lat="43.35953" lon="-0.56342">
        <ele>119.82</ele>
        <time>2017-04-15T06:19:54Z</time>
      </trkpt>
      <trkpt lat="43.35949" lon="-0.56336">
        <ele>119.82</ele>
        <time>2017-04-15T06:19:55Z</time>
      </trkpt>
      <trkpt lat="43.35926" lon="-0.56288">
        <ele>120.78</ele>
        <time>2017-04-15T06:20:02Z</time>
      </trkpt>
      <trkpt lat="43.35921" lon="-0.56283">
        <ele>120.78</ele>
        <time>2017-04-15T06:20:03Z</time>
      </trkpt>
      <trkpt lat="43.35915" lon="-0.5628">
        <ele>121.26</ele>
        <time>2017-04-15T06:20:04Z</time>
      </trkpt>
      <trkpt lat="43.35859" lon="-0.56241">
        <ele>123.19</ele>
        <time>2017-04-15T06:20:15Z</time>
      </trkpt>
      <trkpt lat="43.35852" lon="-0.5623">
        <ele>123.67</ele>
        <time>2017-04-15T06:20:17Z</time>
      </trkpt>
      <trkpt lat="43.3585" lon="-0.56222">
        <ele>123.67</ele>
        <time>2017-04-15T06:20:18Z</time>
      </trkpt>
      <trkpt lat="43.35849" lon="-0.56216">
        <ele>123.67</ele>
        <time>2017-04-15T06:20:19Z</time>
      </trkpt>
      <trkpt lat="43.35848" lon="-0.56209">
        <ele>123.67</ele>
        <time>2017-04-15T06:20:20Z</time>
      </trkpt>
      <trkpt lat="43.35846" lon="-0.56201">
        <ele>123.67</ele>
        <time>2017-04-15T06:20:21Z</time>
      </trkpt>
      <trkpt lat="43.35844" lon="-0.56194">
        <ele>123.19</ele>
        <time>2017-04-15T06:20:22Z</time>
      </trkpt>
      <trkpt lat="43.35826" lon="-0.56111">
        <ele>123.67</ele>
        <time>2017-04-15T06:20:33Z</time>
      </trkpt>
      <trkpt lat="43.35824" lon="-0.56104">
        <ele>123.67</ele>
        <time>2017-04-15T06:20:34Z</time>
      </trkpt>
      <trkpt lat="43.35821" lon="-0.56097">
        <ele>123.67</ele>
        <time>2017-04-15T06:20:35Z</time>
      </trkpt>
      <trkpt lat="43.35817" lon="-0.5609">
        <ele>123.67</ele>
        <time>2017-04-15T06:20:36Z</time>
      </trkpt>
      <trkpt lat="43.35814" lon="-0.56086">
        <ele>123.67</ele>
        <time>2017-04-15T06:20:37Z</time>
      </trkpt>
      <trkpt lat="43.3581" lon="-0.56081">
        <ele>123.67</ele>
        <time>2017-04-15T06:20:38Z</time>
      </trkpt>
      <trkpt lat="43.35792" lon="-0.56062">
        <ele>123.67</ele>
        <time>2017-04-15T06:20:42Z</time>
      </trkpt>
      <trkpt lat="43.35787" lon="-0.56059">
        <ele>123.67</ele>
        <time>2017-04-15T06:20:43Z</time>
      </trkpt>
      <trkpt lat="43.35782" lon="-0.56058">
        <ele>123.19</ele>
        <time>2017-04-15T06:20:44Z</time>
      </trkpt>
      <trkpt lat="43.35776" lon="-0.56057">
        <ele>123.67</ele>
        <time>2017-04-15T06:20:45Z</time>
      </trkpt>
      <trkpt lat="43.35771" lon="-0.56058">
        <ele>123.19</ele>
        <time>2017-04-15T06:20:46Z</time>
      </trkpt>
      <trkpt lat="43.35765" lon="-0.5606">
        <ele>123.19</ele>
        <time>2017-04-15T06:20:47Z</time>
      </trkpt>
      <trkpt lat="43.35732" lon="-0.56069">
        <ele>122.71</ele>
        <time>2017-04-15T06:20:53Z</time>
      </trkpt>
      <trkpt lat="43.35727" lon="-0.56069">
        <ele>122.71</ele>
        <time>2017-04-15T06:20:54Z</time>
      </trkpt>
      <trkpt lat="43.3572" lon="-0.56067">
        <ele>122.71</ele>
        <time>2017-04-15T06:20:55Z</time>
      </trkpt>
      <trkpt lat="43.35716" lon="-0.56064">
        <ele>122.71</ele>
        <time>2017-04-15T06:20:56Z</time>
      </trkpt>
      <trkpt lat="43.35712" lon="-0.5606">
        <ele>122.71</ele>
        <time>2017-04-15T06:20:57Z</time>
      </trkpt>
      <trkpt lat="43.35707" lon="-0.56056">
        <ele>122.71</ele>
        <time>2017-04-15T06:20:58Z</time>
      </trkpt>
      <trkpt lat="43.35703" lon="-0.56051">
        <ele>122.71</ele>
        <time>2017-04-15T06:20:59Z</time>
      </trkpt>
      <trkpt lat="43.3568" lon="-0.56033">
        <ele>123.19</ele>
        <time>2017-04-15T06:21:04Z</time>
      </trkpt>
      <trkpt lat="43.35675" lon="-0.56031">
        <ele>123.19</ele>
        <time>2017-04-15T06:21:05Z</time>
      </trkpt>
      <trkpt lat="43.3567" lon="-0.5603">
        <ele>123.19</ele>
        <time>2017-04-15T06:21:06Z</time>
      </trkpt>
      <trkpt lat="43.35647" lon="-0.56027">
        <ele>123.19</ele>
        <time>2017-04-15T06:21:10Z</time>
      </trkpt>
      <trkpt lat="43.35642" lon="-0.56025">
        <ele>123.19</ele>
        <time>2017-04-15T06:21:11Z</time>
      </trkpt>
      <trkpt lat="43.35636" lon="-0.56021">
        <ele>123.19</ele>
        <time>2017-04-15T06:21:12Z</time>
      </trkpt>
      <trkpt lat="43.35631" lon="-0.56017">
        <ele>122.71</ele>
        <time>2017-04-15T06:21:13Z</time>
      </trkpt>
      <trkpt lat="43.35626" lon="-0.56012">
        <ele>122.71</ele>
        <time>2017-04-15T06:21:14Z</time>
      </trkpt>
      <trkpt lat="43.35622" lon="-0.56006">
        <ele>122.71</ele>
        <time>2017-04-15T06:21:15Z</time>
      </trkpt>
      <trkpt lat="43.35618" lon="-0.55999">
        <ele>122.22</ele>
        <time>2017-04-15T06:21:16Z</time>
      </trkpt>
      <trkpt lat="43.35614" lon="-0.55992">
        <ele>122.22</ele>
        <time>2017-04-15T06:21:17Z</time>
      </trkpt>
      <trkpt lat="43.35611" lon="-0.55985">
        <ele>122.22</ele>
        <time>2017-04-15T06:21:18Z</time>
      </trkpt>
      <trkpt lat="43.35608" lon="-0.55978">
        <ele>122.22</ele>
        <time>2017-04-15T06:21:19Z</time>
      </trkpt>
      <trkpt lat="43.35578" lon="-0.55867">
        <ele>121.74</ele>
        <time>2017-04-15T06:21:33Z</time>
      </trkpt>
      <trkpt lat="43.35576" lon="-0.55859">
        <ele>121.74</ele>
        <time>2017-04-15T06:21:34Z</time>
      </trkpt>
      <trkpt lat="43.35573" lon="-0.55852">
        <ele>121.74</ele>
        <time>2017-04-15T06:21:35Z</time>
      </trkpt>
      <trkpt lat="43.35532" lon="-0.55781">
        <ele>123.19</ele>
        <time>2017-04-15T06:21:46Z</time>
      </trkpt>
      <trkpt lat="43.35471" lon="-0.55687">
        <ele>125.59</ele>
        <time>2017-04-15T06:22:02Z</time>
      </trkpt>
      <trkpt lat="43.35464" lon="-0.55678">
        <ele>125.59</ele>
        <time>2017-04-15T06:22:04Z</time>
      </trkpt>
      <trkpt lat="43.35438" lon="-0.55639">
        <ele>126.55</ele>
        <time>2017-04-15T06:22:11Z</time>
      </trkpt>
      <trkpt lat="43.35434" lon="-0.55632">
        <ele>127.03</ele>
        <time>2017-04-15T06:22:12Z</time>
      </trkpt>
      <trkpt lat="43.35432" lon="-0.55624">
        <ele>127.03</ele>
        <time>2017-04-15T06:22:13Z</time>
      </trkpt>
      <trkpt lat="43.35416" lon="-0.55569">
        <ele>128.47</ele>
        <time>2017-04-15T06:22:20Z</time>
      </trkpt>
      <trkpt lat="43.35413" lon="-0.55562">
        <ele>128.47</ele>
        <time>2017-04-15T06:22:21Z</time>
      </trkpt>
      <trkpt lat="43.354" lon="-0.55545">
        <ele>128.47</ele>
        <time>2017-04-15T06:22:24Z</time>
      </trkpt>
      <trkpt lat="43.35385" lon="-0.55531">
        <ele>127.51</ele>
        <time>2017-04-15T06:22:27Z</time>
      </trkpt>
      <trkpt lat="43.3538" lon="-0.55528">
        <ele>127.03</ele>
        <time>2017-04-15T06:22:28Z</time>
      </trkpt>
      <trkpt lat="43.35373" lon="-0.55525">
        <ele>126.55</ele>
        <time>2017-04-15T06:22:29Z</time>
      </trkpt>
      <trkpt lat="43.35366" lon="-0.55522">
        <ele>126.07</ele>
        <time>2017-04-15T06:22:30Z</time>
      </trkpt>
      <trkpt lat="43.35359" lon="-0.55521">
        <ele>125.59</ele>
        <time>2017-04-15T06:22:31Z</time>
      </trkpt>
      <trkpt lat="43.35319" lon="-0.555">
        <ele>123.19</ele>
        <time>2017-04-15T06:22:37Z</time>
      </trkpt>
      <trkpt lat="43.35314" lon="-0.55494">
        <ele>123.19</ele>
        <time>2017-04-15T06:22:38Z</time>
      </trkpt>
      <trkpt lat="43.3531" lon="-0.55488">
        <ele>123.19</ele>
        <time>2017-04-15T06:22:39Z</time>
      </trkpt>
      <trkpt lat="43.35264" lon="-0.55413">
        <ele>123.67</ele>
        <time>2017-04-15T06:22:51Z</time>
      </trkpt>
      <trkpt lat="43.35224" lon="-0.55339">
        <ele>122.71</ele>
        <time>2017-04-15T06:23:04Z</time>
      </trkpt>
      <trkpt lat="43.35221" lon="-0.55276">
        <ele>123.67</ele>
        <time>2017-04-15T06:23:18Z</time>
      </trkpt>
      <trkpt lat="43.35231" lon="-0.55248">
        <ele>123.67</ele>
        <time>2017-04-15T06:23:30Z</time>
      </trkpt>
      <trkpt lat="43.35247" lon="-0.55224">
        <ele>127.51</ele>
        <time>2017-04-15T06:23:47Z</time>
      </trkpt>
      <trkpt lat="43.35267" lon="-0.55202">
        <ele>130.88</ele>
        <time>2017-04-15T06:24:07Z</time>
      </trkpt>
      <trkpt lat="43.3528" lon="-0.55178">
        <ele>134.24</ele>
        <time>2017-04-15T06:24:23Z</time>
      </trkpt>
      <trkpt lat="43.35295" lon="-0.55157">
        <ele>138.09</ele>
        <time>2017-04-15T06:24:39Z</time>
      </trkpt>
      <trkpt lat="43.35299" lon="-0.5515">
        <ele>138.57</ele>
        <time>2017-04-15T06:24:44Z</time>
      </trkpt>
      <trkpt lat="43.353" lon="-0.55149">
        <ele>139.05</ele>
        <time>2017-04-15T06:24:45Z</time>
      </trkpt>
      <trkpt lat="43.35317" lon="-0.55128">
        <ele>142.89</ele>
        <time>2017-04-15T06:25:03Z</time>
      </trkpt>
      <trkpt lat="43.35322" lon="-0.55116">
        <ele>144.82</ele>
        <time>2017-04-15T06:25:11Z</time>
      </trkpt>
      <trkpt lat="43.35322" lon="-0.55104">
        <ele>146.26</ele>
        <time>2017-04-15T06:25:19Z</time>
      </trkpt>
      <trkpt lat="43.35322" lon="-0.55093">
        <ele>148.18</ele>
        <time>2017-04-15T06:25:26Z</time>
      </trkpt>
      <trkpt lat="43.35321" lon="-0.55088">
        <ele>148.18</ele>
        <time>2017-04-15T06:25:29Z</time>
      </trkpt>
      <trkpt lat="43.3532" lon="-0.5507">
        <ele>149.62</ele>
        <time>2017-04-15T06:25:40Z</time>
      </trkpt>
      <trkpt lat="43.3532" lon="-0.55067">
        <ele>150.1</ele>
        <time>2017-04-15T06:25:42Z</time>
      </trkpt>
      <trkpt lat="43.35319" lon="-0.5506">
        <ele>150.58</ele>
        <time>2017-04-15T06:25:46Z</time>
      </trkpt>
      <trkpt lat="43.35317" lon="-0.55044">
        <ele>153.47</ele>
        <time>2017-04-15T06:26:00Z</time>
      </trkpt>
      <trkpt lat="43.35315" lon="-0.55038">
        <ele>156.35</ele>
        <time>2017-04-15T06:26:18Z</time>
      </trkpt>
      <trkpt lat="43.35315" lon="-0.55026">
        <ele>159.24</ele>
        <time>2017-04-15T06:26:33Z</time>
      </trkpt>
      <trkpt lat="43.35314" lon="-0.5501">
        <ele>163.56</ele>
        <time>2017-04-15T06:26:51Z</time>
      </trkpt>
      <trkpt lat="43.35313" lon="-0.54992">
        <ele>168.85</ele>
        <time>2017-04-15T06:27:10Z</time>
      </trkpt>
      <trkpt lat="43.35311" lon="-0.54984">
        <ele>169.33</ele>
        <time>2017-04-15T06:27:28Z</time>
      </trkpt>
      <trkpt lat="43.35309" lon="-0.54965">
        <ele>172.21</ele>
        <time>2017-04-15T06:27:45Z</time>
      </trkpt>
      <trkpt lat="43.35308" lon="-0.54962">
        <ele>172.69</ele>
        <time>2017-04-15T06:27:53Z</time>
      </trkpt>
      <trkpt lat="43.35303" lon="-0.5493">
        <ele>175.58</ele>
        <time>2017-04-15T06:28:12Z</time>
      </trkpt>
      <trkpt lat="43.35298" lon="-0.54903">
        <ele>180.87</ele>
        <time>2017-04-15T06:28:29Z</time>
      </trkpt>
      <trkpt lat="43.35295" lon="-0.54879">
        <ele>183.75</ele>
        <time>2017-04-15T06:28:45Z</time>
      </trkpt>
      <trkpt lat="43.35294" lon="-0.54862">
        <ele>186.63</ele>
        <time>2017-04-15T06:28:56Z</time>
      </trkpt>
      <trkpt lat="43.35294" lon="-0.54836">
        <ele>188.56</ele>
        <time>2017-04-15T06:29:12Z</time>
      </trkpt>
      <trkpt lat="43.35296" lon="-0.54808">
        <ele>191.92</ele>
        <time>2017-04-15T06:29:29Z</time>
      </trkpt>
      <trkpt lat="43.35298" lon="-0.54783">
        <ele>195.28</ele>
        <time>2017-04-15T06:29:46Z</time>
      </trkpt>
      <trkpt lat="43.35299" lon="-0.5476">
        <ele>198.65</ele>
        <time>2017-04-15T06:30:01Z</time>
      </trkpt>
      <trkpt lat="43.35299" lon="-0.54757">
        <ele>199.13</ele>
        <time>2017-04-15T06:30:03Z</time>
      </trkpt>
      <trkpt lat="43.35301" lon="-0.54732">
        <ele>202.49</ele>
        <time>2017-04-15T06:30:19Z</time>
      </trkpt>
      <trkpt lat="43.35301" lon="-0.54731">
        <ele>202.49</ele>
        <time>2017-04-15T06:30:20Z</time>
      </trkpt>
      <trkpt lat="43.35301" lon="-0.54725">
        <ele>202.98</ele>
        <time>2017-04-15T06:30:24Z</time>
      </trkpt>
      <trkpt lat="43.35296" lon="-0.54692">
        <ele>202.98</ele>
        <time>2017-04-15T06:30:40Z</time>
      </trkpt>
      <trkpt lat="43.35295" lon="-0.54692">
        <ele>202.98</ele>
        <time>2017-04-15T06:30:54Z</time>
      </trkpt>
      <trkpt lat="43.3529" lon="-0.54673">
        <ele>203.46</ele>
        <time>2017-04-15T06:31:09Z</time>
      </trkpt>
      <trkpt lat="43.35291" lon="-0.54626">
        <ele>202.49</ele>
        <time>2017-04-15T06:31:22Z</time>
      </trkpt>
      <trkpt lat="43.35299" lon="-0.54576">
        <ele>204.9</ele>
        <time>2017-04-15T06:31:34Z</time>
      </trkpt>
      <trkpt lat="43.35299" lon="-0.54569">
        <ele>204.42</ele>
        <time>2017-04-15T06:31:35Z</time>
      </trkpt>
      <trkpt lat="43.35299" lon="-0.54553">
        <ele>204.42</ele>
        <time>2017-04-15T06:31:37Z</time>
      </trkpt>
      <trkpt lat="43.35299" lon="-0.54529">
        <ele>203.94</ele>
        <time>2017-04-15T06:31:40Z</time>
      </trkpt>
      <trkpt lat="43.353" lon="-0.54522">
        <ele>203.94</ele>
        <time>2017-04-15T06:31:41Z</time>
      </trkpt>
      <trkpt lat="43.35299" lon="-0.54492">
        <ele>203.46</ele>
        <time>2017-04-15T06:31:46Z</time>
      </trkpt>
      <trkpt lat="43.35299" lon="-0.54485">
        <ele>203.94</ele>
        <time>2017-04-15T06:31:47Z</time>
      </trkpt>
      <trkpt lat="43.35298" lon="-0.54453">
        <ele>203.46</ele>
        <time>2017-04-15T06:31:52Z</time>
      </trkpt>
      <trkpt lat="43.35297" lon="-0.54446">
        <ele>202.98</ele>
        <time>2017-04-15T06:31:53Z</time>
      </trkpt>
      <trkpt lat="43.35296" lon="-0.54439">
        <ele>202.98</ele>
        <time>2017-04-15T06:31:54Z</time>
      </trkpt>
      <trkpt lat="43.35295" lon="-0.54425">
        <ele>202.98</ele>
        <time>2017-04-15T06:31:56Z</time>
      </trkpt>
      <trkpt lat="43.35295" lon="-0.54418">
        <ele>202.49</ele>
        <time>2017-04-15T06:31:57Z</time>
      </trkpt>
      <trkpt lat="43.35296" lon="-0.54404">
        <ele>202.49</ele>
        <time>2017-04-15T06:31:59Z</time>
      </trkpt>
      <trkpt lat="43.35296" lon="-0.54398">
        <ele>202.49</ele>
        <time>2017-04-15T06:32:00Z</time>
      </trkpt>
      <trkpt lat="43.353" lon="-0.54351">
        <ele>202.01</ele>
        <time>2017-04-15T06:32:08Z</time>
      </trkpt>
      <trkpt lat="43.35301" lon="-0.54343">
        <ele>202.01</ele>
        <time>2017-04-15T06:32:09Z</time>
      </trkpt>
      <trkpt lat="43.35301" lon="-0.54339">
        <ele>202.01</ele>
        <time>2017-04-15T06:32:10Z</time>
      </trkpt>
      <trkpt lat="43.35301" lon="-0.54332">
        <ele>202.01</ele>
        <time>2017-04-15T06:32:11Z</time>
      </trkpt>
      <trkpt lat="43.353" lon="-0.54326">
        <ele>201.53</ele>
        <time>2017-04-15T06:32:12Z</time>
      </trkpt>
      <trkpt lat="43.35299" lon="-0.54319">
        <ele>201.53</ele>
        <time>2017-04-15T06:32:13Z</time>
      </trkpt>
      <trkpt lat="43.35297" lon="-0.54312">
        <ele>201.53</ele>
        <time>2017-04-15T06:32:14Z</time>
      </trkpt>
      <trkpt lat="43.35285" lon="-0.54236">
        <ele>200.09</ele>
        <time>2017-04-15T06:32:24Z</time>
      </trkpt>
      <trkpt lat="43.35257" lon="-0.5414">
        <ele>200.57</ele>
        <time>2017-04-15T06:32:39Z</time>
      </trkpt>
      <trkpt lat="43.35255" lon="-0.54135">
        <ele>200.57</ele>
        <time>2017-04-15T06:32:40Z</time>
      </trkpt>
      <trkpt lat="43.35253" lon="-0.5413">
        <ele>201.05</ele>
        <time>2017-04-15T06:32:41Z</time>
      </trkpt>
      <trkpt lat="43.35251" lon="-0.54125">
        <ele>201.05</ele>
        <time>2017-04-15T06:32:42Z</time>
      </trkpt>
      <trkpt lat="43.35249" lon="-0.5412">
        <ele>201.05</ele>
        <time>2017-04-15T06:32:43Z</time>
      </trkpt>
      <trkpt lat="43.35247" lon="-0.54116">
        <ele>201.53</ele>
        <time>2017-04-15T06:32:44Z</time>
      </trkpt>
      <trkpt lat="43.35239" lon="-0.54083">
        <ele>203.46</ele>
        <time>2017-04-15T06:32:55Z</time>
      </trkpt>
      <trkpt lat="43.35236" lon="-0.54077">
        <ele>203.94</ele>
        <time>2017-04-15T06:32:57Z</time>
      </trkpt>
      <trkpt lat="43.35232" lon="-0.54074">
        <ele>203.94</ele>
        <time>2017-04-15T06:32:59Z</time>
      </trkpt>
      <trkpt lat="43.3523" lon="-0.54073">
        <ele>203.94</ele>
        <time>2017-04-15T06:33:00Z</time>
      </trkpt>
      <trkpt lat="43.35227" lon="-0.54073">
        <ele>203.94</ele>
        <time>2017-04-15T06:33:01Z</time>
      </trkpt>
      <trkpt lat="43.35198" lon="-0.54067">
        <ele>200.57</ele>
        <time>2017-04-15T06:33:10Z</time>
      </trkpt>
      <trkpt lat="43.35196" lon="-0.54068">
        <ele>199.61</ele>
        <time>2017-04-15T06:33:11Z</time>
      </trkpt>
      <trkpt lat="43.35195" lon="-0.54072">
        <ele>199.13</ele>
        <time>2017-04-15T06:33:12Z</time>
      </trkpt>
      <trkpt lat="43.35195" lon="-0.54078">
        <ele>198.17</ele>
        <time>2017-04-15T06:33:13Z</time>
      </trkpt>
      <trkpt lat="43.35193" lon="-0.54086">
        <ele>197.21</ele>
        <time>2017-04-15T06:33:14Z</time>
      </trkpt>
      <trkpt lat="43.35191" lon="-0.54095">
        <ele>195.77</ele>
        <time>2017-04-15T06:33:15Z</time>
      </trkpt>
      <trkpt lat="43.35188" lon="-0.54105">
        <ele>194.32</ele>
        <time>2017-04-15T06:33:16Z</time>
      </trkpt>
      <trkpt lat="43.35183" lon="-0.54115">
        <ele>192.88</ele>
        <time>2017-04-15T06:33:17Z</time>
      </trkpt>
      <trkpt lat="43.35179" lon="-0.54126">
        <ele>191.44</ele>
        <time>2017-04-15T06:33:18Z</time>
      </trkpt>
      <trkpt lat="43.35176" lon="-0.54137">
        <ele>190.48</ele>
        <time>2017-04-15T06:33:19Z</time>
      </trkpt>
      <trkpt lat="43.3517" lon="-0.5417">
        <ele>187.11</ele>
        <time>2017-04-15T06:33:22Z</time>
      </trkpt>
      <trkpt lat="43.35169" lon="-0.5418">
        <ele>185.67</ele>
        <time>2017-04-15T06:33:23Z</time>
      </trkpt>
      <trkpt lat="43.35171" lon="-0.5419">
        <ele>184.23</ele>
        <time>2017-04-15T06:33:24Z</time>
      </trkpt>
      <trkpt lat="43.35174" lon="-0.542">
        <ele>183.27</ele>
        <time>2017-04-15T06:33:25Z</time>
      </trkpt>
      <trkpt lat="43.35178" lon="-0.5421">
        <ele>182.31</ele>
        <time>2017-04-15T06:33:26Z</time>
      </trkpt>
      <trkpt lat="43.35201" lon="-0.543">
        <ele>177.02</ele>
        <time>2017-04-15T06:33:34Z</time>
      </trkpt>
      <trkpt lat="43.35202" lon="-0.54312">
        <ele>176.54</ele>
        <time>2017-04-15T06:33:35Z</time>
      </trkpt>
      <trkpt lat="43.35201" lon="-0.54323">
        <ele>177.02</ele>
        <time>2017-04-15T06:33:36Z</time>
      </trkpt>
      <trkpt lat="43.35199" lon="-0.54332">
        <ele>177.5</ele>
        <time>2017-04-15T06:33:37Z</time>
      </trkpt>
      <trkpt lat="43.35196" lon="-0.5434">
        <ele>177.98</ele>
        <time>2017-04-15T06:33:38Z</time>
      </trkpt>
      <trkpt lat="43.35191" lon="-0.54356">
        <ele>178.46</ele>
        <time>2017-04-15T06:33:40Z</time>
      </trkpt>
      <trkpt lat="43.3519" lon="-0.54364">
        <ele>178.46</ele>
        <time>2017-04-15T06:33:41Z</time>
      </trkpt>
      <trkpt lat="43.35184" lon="-0.54411">
        <ele>178.94</ele>
        <time>2017-04-15T06:33:47Z</time>
      </trkpt>
      <trkpt lat="43.35167" lon="-0.54472">
        <ele>177.02</ele>
        <time>2017-04-15T06:33:55Z</time>
      </trkpt>
      <trkpt lat="43.35165" lon="-0.54481">
        <ele>176.06</ele>
        <time>2017-04-15T06:33:56Z</time>
      </trkpt>
      <trkpt lat="43.35164" lon="-0.54492">
        <ele>174.62</ele>
        <time>2017-04-15T06:33:57Z</time>
      </trkpt>
      <trkpt lat="43.35164" lon="-0.54503">
        <ele>173.17</ele>
        <time>2017-04-15T06:33:58Z</time>
      </trkpt>
      <trkpt lat="43.35164" lon="-0.54514">
        <ele>171.73</ele>
        <time>2017-04-15T06:33:59Z</time>
      </trkpt>
      <trkpt lat="43.35166" lon="-0.54588">
        <ele>164.04</ele>
        <time>2017-04-15T06:34:05Z</time>
      </trkpt>
      <trkpt lat="43.35164" lon="-0.54596">
        <ele>163.08</ele>
        <time>2017-04-15T06:34:06Z</time>
      </trkpt>
      <trkpt lat="43.3516" lon="-0.54604">
        <ele>161.64</ele>
        <time>2017-04-15T06:34:07Z</time>
      </trkpt>
      <trkpt lat="43.35155" lon="-0.54611">
        <ele>160.68</ele>
        <time>2017-04-15T06:34:08Z</time>
      </trkpt>
      <trkpt lat="43.35148" lon="-0.54616">
        <ele>159.72</ele>
        <time>2017-04-15T06:34:09Z</time>
      </trkpt>
      <trkpt lat="43.35141" lon="-0.5462">
        <ele>158.75</ele>
        <time>2017-04-15T06:34:10Z</time>
      </trkpt>
      <trkpt lat="43.35135" lon="-0.54621">
        <ele>157.79</ele>
        <time>2017-04-15T06:34:11Z</time>
      </trkpt>
      <trkpt lat="43.35128" lon="-0.54623">
        <ele>156.83</ele>
        <time>2017-04-15T06:34:12Z</time>
      </trkpt>
      <trkpt lat="43.35122" lon="-0.54626">
        <ele>156.35</ele>
        <time>2017-04-15T06:34:13Z</time>
      </trkpt>
      <trkpt lat="43.35115" lon="-0.54631">
        <ele>155.87</ele>
        <time>2017-04-15T06:34:14Z</time>
      </trkpt>
      <trkpt lat="43.3511" lon="-0.54638">
        <ele>155.87</ele>
        <time>2017-04-15T06:34:15Z</time>
      </trkpt>
      <trkpt lat="43.35106" lon="-0.54645">
        <ele>155.39</ele>
        <time>2017-04-15T06:34:16Z</time>
      </trkpt>
      <trkpt lat="43.35101" lon="-0.54651">
        <ele>155.39</ele>
        <time>2017-04-15T06:34:17Z</time>
      </trkpt>
      <trkpt lat="43.35096" lon="-0.54654">
        <ele>154.43</ele>
        <time>2017-04-15T06:34:18Z</time>
      </trkpt>
      <trkpt lat="43.35091" lon="-0.54655">
        <ele>153.95</ele>
        <time>2017-04-15T06:34:19Z</time>
      </trkpt>
      <trkpt lat="43.35085" lon="-0.54653">
        <ele>153.47</ele>
        <time>2017-04-15T06:34:20Z</time>
      </trkpt>
      <trkpt lat="43.35079" lon="-0.5465">
        <ele>152.51</ele>
        <time>2017-04-15T06:34:21Z</time>
      </trkpt>
      <trkpt lat="43.35071" lon="-0.54648">
        <ele>151.54</ele>
        <time>2017-04-15T06:34:22Z</time>
      </trkpt>
      <trkpt lat="43.35062" lon="-0.54647">
        <ele>150.58</ele>
        <time>2017-04-15T06:34:23Z</time>
      </trkpt>
      <trkpt lat="43.35053" lon="-0.54647">
        <ele>150.1</ele>
        <time>2017-04-15T06:34:24Z</time>
      </trkpt>
      <trkpt lat="43.35025" lon="-0.54645">
        <ele>147.7</ele>
        <time>2017-04-15T06:34:27Z</time>
      </trkpt>
      <trkpt lat="43.34958" lon="-0.54631">
        <ele>140.49</ele>
        <time>2017-04-15T06:34:35Z</time>
      </trkpt>
      <trkpt lat="43.34951" lon="-0.54632">
        <ele>139.05</ele>
        <time>2017-04-15T06:34:36Z</time>
      </trkpt>
      <trkpt lat="43.34945" lon="-0.54634">
        <ele>138.09</ele>
        <time>2017-04-15T06:34:37Z</time>
      </trkpt>
      <trkpt lat="43.34939" lon="-0.54638">
        <ele>137.13</ele>
        <time>2017-04-15T06:34:38Z</time>
      </trkpt>
      <trkpt lat="43.34933" lon="-0.54642">
        <ele>136.64</ele>
        <time>2017-04-15T06:34:39Z</time>
      </trkpt>
      <trkpt lat="43.34929" lon="-0.54649">
        <ele>135.68</ele>
        <time>2017-04-15T06:34:40Z</time>
      </trkpt>
      <trkpt lat="43.34925" lon="-0.54656">
        <ele>134.72</ele>
        <time>2017-04-15T06:34:41Z</time>
      </trkpt>
      <trkpt lat="43.34922" lon="-0.54665">
        <ele>133.76</ele>
        <time>2017-04-15T06:34:42Z</time>
      </trkpt>
      <trkpt lat="43.3492" lon="-0.54675">
        <ele>133.28</ele>
        <time>2017-04-15T06:34:43Z</time>
      </trkpt>
      <trkpt lat="43.34917" lon="-0.54685">
        <ele>132.8</ele>
        <time>2017-04-15T06:34:44Z</time>
      </trkpt>
      <trkpt lat="43.34899" lon="-0.54732">
        <ele>129.92</ele>
        <time>2017-04-15T06:34:49Z</time>
      </trkpt>
      <trkpt lat="43.34894" lon="-0.54741">
        <ele>129.43</ele>
        <time>2017-04-15T06:34:50Z</time>
      </trkpt>
      <trkpt lat="43.34889" lon="-0.54749">
        <ele>128.47</ele>
        <time>2017-04-15T06:34:51Z</time>
      </trkpt>
      <trkpt lat="43.34882" lon="-0.54757">
        <ele>127.99</ele>
        <time>2017-04-15T06:34:52Z</time>
      </trkpt>
      <trkpt lat="43.34875" lon="-0.54765">
        <ele>127.03</ele>
        <time>2017-04-15T06:34:53Z</time>
      </trkpt>
      <trkpt lat="43.34841" lon="-0.54795">
        <ele>122.71</ele>
        <time>2017-04-15T06:34:58Z</time>
      </trkpt>
      <trkpt lat="43.34836" lon="-0.54802">
        <ele>121.74</ele>
        <time>2017-04-15T06:34:59Z</time>
      </trkpt>
      <trkpt lat="43.34833" lon="-0.54809">
        <ele>120.78</ele>
        <time>2017-04-15T06:35:00Z</time>
      </trkpt>
      <trkpt lat="43.34831" lon="-0.54815">
        <ele>120.3</ele>
        <time>2017-04-15T06:35:01Z</time>
      </trkpt>
      <trkpt lat="43.34829" lon="-0.54822">
        <ele>119.34</ele>
        <time>2017-04-15T06:35:02Z</time>
      </trkpt>
      <trkpt lat="43.34828" lon="-0.54827">
        <ele>118.86</ele>
        <time>2017-04-15T06:35:03Z</time>
      </trkpt>
      <trkpt lat="43.34826" lon="-0.5483">
        <ele>117.9</ele>
        <time>2017-04-15T06:35:04Z</time>
      </trkpt>
      <trkpt lat="43.34823" lon="-0.54831">
        <ele>117.9</ele>
        <time>2017-04-15T06:35:05Z</time>
      </trkpt>
      <trkpt lat="43.3482" lon="-0.54832">
        <ele>117.42</ele>
        <time>2017-04-15T06:35:06Z</time>
      </trkpt>
      <trkpt lat="43.34816" lon="-0.54832">
        <ele>117.42</ele>
        <time>2017-04-15T06:35:07Z</time>
      </trkpt>
      <trkpt lat="43.34813" lon="-0.5483">
        <ele>117.9</ele>
        <time>2017-04-15T06:35:08Z</time>
      </trkpt>
      <trkpt lat="43.34809" lon="-0.54828">
        <ele>118.38</ele>
        <time>2017-04-15T06:35:09Z</time>
      </trkpt>
      <trkpt lat="43.34806" lon="-0.54824">
        <ele>118.86</ele>
        <time>2017-04-15T06:35:10Z</time>
      </trkpt>
      <trkpt lat="43.34802" lon="-0.54821">
        <ele>118.86</ele>
        <time>2017-04-15T06:35:11Z</time>
      </trkpt>
      <trkpt lat="43.34768" lon="-0.5478">
        <ele>123.19</ele>
        <time>2017-04-15T06:35:23Z</time>
      </trkpt>
      <trkpt lat="43.3474" lon="-0.54742">
        <ele>131.36</ele>
        <time>2017-04-15T06:35:36Z</time>
      </trkpt>
      <trkpt lat="43.34727" lon="-0.5473">
        <ele>132.32</ele>
        <time>2017-04-15T06:35:40Z</time>
      </trkpt>
      <trkpt lat="43.34707" lon="-0.54715">
        <ele>132.8</ele>
        <time>2017-04-15T06:35:45Z</time>
      </trkpt>
      <trkpt lat="43.34692" lon="-0.54702">
        <ele>133.76</ele>
        <time>2017-04-15T06:35:49Z</time>
      </trkpt>
      <trkpt lat="43.34658" lon="-0.54672">
        <ele>137.13</ele>
        <time>2017-04-15T06:36:01Z</time>
      </trkpt>
      <trkpt lat="43.34651" lon="-0.54644">
        <ele>141.45</ele>
        <time>2017-04-15T06:36:12Z</time>
      </trkpt>
      <trkpt lat="43.34654" lon="-0.54593">
        <ele>139.53</ele>
        <time>2017-04-15T06:36:25Z</time>
      </trkpt>
      <trkpt lat="43.34659" lon="-0.54549">
        <ele>136.64</ele>
        <time>2017-04-15T06:36:35Z</time>
      </trkpt>
      <trkpt lat="43.34665" lon="-0.54492">
        <ele>134.24</ele>
        <time>2017-04-15T06:36:48Z</time>
      </trkpt>
      <trkpt lat="43.34675" lon="-0.54432">
        <ele>134.72</ele>
        <time>2017-04-15T06:36:58Z</time>
      </trkpt>
      <trkpt lat="43.34673" lon="-0.54382">
        <ele>136.64</ele>
        <time>2017-04-15T06:37:07Z</time>
      </trkpt>
      <trkpt lat="43.34681" lon="-0.54358">
        <ele>138.57</ele>
        <time>2017-04-15T06:37:16Z</time>
      </trkpt>
      <trkpt lat="43.34682" lon="-0.54356">
        <ele>138.57</ele>
        <time>2017-04-15T06:37:17Z</time>
      </trkpt>
      <trkpt lat="43.34683" lon="-0.54354">
        <ele>138.09</ele>
        <time>2017-04-15T06:37:18Z</time>
      </trkpt>
      <trkpt lat="43.34683" lon="-0.54352">
        <ele>137.61</ele>
        <time>2017-04-15T06:37:19Z</time>
      </trkpt>
      <trkpt lat="43.34684" lon="-0.5435">
        <ele>137.61</ele>
        <time>2017-04-15T06:37:20Z</time>
      </trkpt>
      <trkpt lat="43.34685" lon="-0.54348">
        <ele>137.61</ele>
        <time>2017-04-15T06:37:21Z</time>
      </trkpt>
      <trkpt lat="43.34691" lon="-0.54318">
        <ele>141.45</ele>
        <time>2017-04-15T06:37:36Z</time>
      </trkpt>
      <trkpt lat="43.34694" lon="-0.54291">
        <ele>140.97</ele>
        <time>2017-04-15T06:37:51Z</time>
      </trkpt>
      <trkpt lat="43.34702" lon="-0.54264">
        <ele>143.85</ele>
        <time>2017-04-15T06:38:07Z</time>
      </trkpt>
      <trkpt lat="43.34707" lon="-0.54238">
        <ele>148.18</ele>
        <time>2017-04-15T06:38:21Z</time>
      </trkpt>
      <trkpt lat="43.34708" lon="-0.54231">
        <ele>149.14</ele>
        <time>2017-04-15T06:38:24Z</time>
      </trkpt>
      <trkpt lat="43.34708" lon="-0.54229">
        <ele>149.62</ele>
        <time>2017-04-15T06:38:25Z</time>
      </trkpt>
      <trkpt lat="43.34709" lon="-0.54216">
        <ele>153.47</ele>
        <time>2017-04-15T06:38:32Z</time>
      </trkpt>
      <trkpt lat="43.34708" lon="-0.54215">
        <ele>154.43</ele>
        <time>2017-04-15T06:38:33Z</time>
      </trkpt>
      <trkpt lat="43.34707" lon="-0.54213">
        <ele>154.91</ele>
        <time>2017-04-15T06:38:34Z</time>
      </trkpt>
      <trkpt lat="43.34706" lon="-0.54211">
        <ele>155.39</ele>
        <time>2017-04-15T06:38:35Z</time>
      </trkpt>
      <trkpt lat="43.34705" lon="-0.5421">
        <ele>155.87</ele>
        <time>2017-04-15T06:38:36Z</time>
      </trkpt>
      <trkpt lat="43.34703" lon="-0.54209">
        <ele>155.87</ele>
        <time>2017-04-15T06:38:38Z</time>
      </trkpt>
      <trkpt lat="43.34684" lon="-0.54217">
        <ele>155.87</ele>
        <time>2017-04-15T06:38:52Z</time>
      </trkpt>
      <trkpt lat="43.34667" lon="-0.54223">
        <ele>156.35</ele>
        <time>2017-04-15T06:39:04Z</time>
      </trkpt>
      <trkpt lat="43.34648" lon="-0.54232">
        <ele>157.31</ele>
        <time>2017-04-15T06:39:17Z</time>
      </trkpt>
      <trkpt lat="43.34629" lon="-0.54241">
        <ele>162.12</ele>
        <time>2017-04-15T06:39:32Z</time>
      </trkpt>
      <trkpt lat="43.34607" lon="-0.5425">
        <ele>165.48</ele>
        <time>2017-04-15T06:39:48Z</time>
      </trkpt>
      <trkpt lat="43.34587" lon="-0.54254">
        <ele>166.93</ele>
        <time>2017-04-15T06:40:02Z</time>
      </trkpt>
      <trkpt lat="43.34566" lon="-0.54247">
        <ele>170.77</ele>
        <time>2017-04-15T06:40:17Z</time>
      </trkpt>
      <trkpt lat="43.3456" lon="-0.54242">
        <ele>172.21</ele>
        <time>2017-04-15T06:40:22Z</time>
      </trkpt>
      <trkpt lat="43.34559" lon="-0.54241">
        <ele>172.69</ele>
        <time>2017-04-15T06:40:23Z</time>
      </trkpt>
      <trkpt lat="43.34558" lon="-0.54239">
        <ele>173.17</ele>
        <time>2017-04-15T06:40:24Z</time>
      </trkpt>
      <trkpt lat="43.34558" lon="-0.54237">
        <ele>173.17</ele>
        <time>2017-04-15T06:40:25Z</time>
      </trkpt>
      <trkpt lat="43.34557" lon="-0.54235">
        <ele>173.17</ele>
        <time>2017-04-15T06:40:26Z</time>
      </trkpt>
      <trkpt lat="43.34557" lon="-0.54233">
        <ele>173.17</ele>
        <time>2017-04-15T06:40:27Z</time>
      </trkpt>
      <trkpt lat="43.34561" lon="-0.54207">
        <ele>174.62</ele>
        <time>2017-04-15T06:40:42Z</time>
      </trkpt>
      <trkpt lat="43.34579" lon="-0.54184">
        <ele>171.25</ele>
        <time>2017-04-15T06:41:00Z</time>
      </trkpt>
      <trkpt lat="43.34581" lon="-0.54172">
        <ele>169.81</ele>
        <time>2017-04-15T06:41:07Z</time>
      </trkpt>
      <trkpt lat="43.3458" lon="-0.5417">
        <ele>169.81</ele>
        <time>2017-04-15T06:41:08Z</time>
      </trkpt>
      <trkpt lat="43.3458" lon="-0.54168">
        <ele>169.81</ele>
        <time>2017-04-15T06:41:09Z</time>
      </trkpt>
      <trkpt lat="43.34579" lon="-0.54166">
        <ele>169.81</ele>
        <time>2017-04-15T06:41:10Z</time>
      </trkpt>
      <trkpt lat="43.34578" lon="-0.54165">
        <ele>170.29</ele>
        <time>2017-04-15T06:41:11Z</time>
      </trkpt>
      <trkpt lat="43.34561" lon="-0.54148">
        <ele>175.58</ele>
        <time>2017-04-15T06:41:25Z</time>
      </trkpt>
      <trkpt lat="43.34546" lon="-0.54137">
        <ele>182.31</ele>
        <time>2017-04-15T06:41:39Z</time>
      </trkpt>
      <trkpt lat="43.34529" lon="-0.54126">
        <ele>185.19</ele>
        <time>2017-04-15T06:41:51Z</time>
      </trkpt>
      <trkpt lat="43.34507" lon="-0.54117">
        <ele>185.19</ele>
        <time>2017-04-15T06:42:04Z</time>
      </trkpt>
      <trkpt lat="43.34486" lon="-0.54107">
        <ele>187.59</ele>
        <time>2017-04-15T06:42:17Z</time>
      </trkpt>
      <trkpt lat="43.34468" lon="-0.54092">
        <ele>188.56</ele>
        <time>2017-04-15T06:42:31Z</time>
      </trkpt>
      <trkpt lat="43.34458" lon="-0.54074">
        <ele>193.84</ele>
        <time>2017-04-15T06:42:47Z</time>
      </trkpt>
      <trkpt lat="43.34462" lon="-0.54072">
        <ele>193.84</ele>
        <time>2017-04-15T06:42:51Z</time>
      </trkpt>
      <trkpt lat="43.34474" lon="-0.54064">
        <ele>193.84</ele>
        <time>2017-04-15T06:43:01Z</time>
      </trkpt>
      <trkpt lat="43.3449" lon="-0.54054">
        <ele>193.84</ele>
        <time>2017-04-15T06:43:14Z</time>
      </trkpt>
      <trkpt lat="43.34504" lon="-0.54041">
        <ele>193.36</ele>
        <time>2017-04-15T06:43:29Z</time>
      </trkpt>
      <trkpt lat="43.34513" lon="-0.54025">
        <ele>195.77</ele>
        <time>2017-04-15T06:43:42Z</time>
      </trkpt>
      <trkpt lat="43.34517" lon="-0.54018">
        <ele>194.8</ele>
        <time>2017-04-15T06:43:47Z</time>
      </trkpt>
      <trkpt lat="43.34528" lon="-0.53983">
        <ele>193.84</ele>
        <time>2017-04-15T06:44:02Z</time>
      </trkpt>
      <trkpt lat="43.34528" lon="-0.53981">
        <ele>193.36</ele>
        <time>2017-04-15T06:44:03Z</time>
      </trkpt>
      <trkpt lat="43.34528" lon="-0.5398">
        <ele>193.84</ele>
        <time>2017-04-15T06:44:04Z</time>
      </trkpt>
      <trkpt lat="43.34528" lon="-0.53978">
        <ele>193.84</ele>
        <time>2017-04-15T06:44:05Z</time>
      </trkpt>
      <trkpt lat="43.34528" lon="-0.53976">
        <ele>194.32</ele>
        <time>2017-04-15T06:44:06Z</time>
      </trkpt>
      <trkpt lat="43.34529" lon="-0.53974">
        <ele>194.8</ele>
        <time>2017-04-15T06:44:07Z</time>
      </trkpt>
      <trkpt lat="43.34529" lon="-0.53971">
        <ele>195.28</ele>
        <time>2017-04-15T06:44:08Z</time>
      </trkpt>
      <trkpt lat="43.3453" lon="-0.53946">
        <ele>196.25</ele>
        <time>2017-04-15T06:44:22Z</time>
      </trkpt>
      <trkpt lat="43.34525" lon="-0.53931">
        <ele>200.57</ele>
        <time>2017-04-15T06:44:32Z</time>
      </trkpt>
      <trkpt lat="43.34521" lon="-0.53912">
        <ele>202.49</ele>
        <time>2017-04-15T06:44:43Z</time>
      </trkpt>
      <trkpt lat="43.34516" lon="-0.53888">
        <ele>206.34</ele>
        <time>2017-04-15T06:44:57Z</time>
      </trkpt>
      <trkpt lat="43.34514" lon="-0.53879">
        <ele>207.3</ele>
        <time>2017-04-15T06:45:01Z</time>
      </trkpt>
      <trkpt lat="43.34513" lon="-0.53871">
        <ele>208.26</ele>
        <time>2017-04-15T06:45:04Z</time>
      </trkpt>
      <trkpt lat="43.34513" lon="-0.53868">
        <ele>208.74</ele>
        <time>2017-04-15T06:45:05Z</time>
      </trkpt>
      <trkpt lat="43.34518" lon="-0.53819">
        <ele>203.94</ele>
        <time>2017-04-15T06:45:18Z</time>
      </trkpt>
      <trkpt lat="43.34527" lon="-0.5378">
        <ele>203.94</ele>
        <time>2017-04-15T06:45:29Z</time>
      </trkpt>
      <trkpt lat="43.3454" lon="-0.53744">
        <ele>204.42</ele>
        <time>2017-04-15T06:45:43Z</time>
      </trkpt>
      <trkpt lat="43.34552" lon="-0.53713">
        <ele>206.82</ele>
        <time>2017-04-15T06:45:56Z</time>
      </trkpt>
      <trkpt lat="43.34553" lon="-0.53711">
        <ele>206.82</ele>
        <time>2017-04-15T06:45:57Z</time>
      </trkpt>
      <trkpt lat="43.34562" lon="-0.53677">
        <ele>208.26</ele>
        <time>2017-04-15T06:46:13Z</time>
      </trkpt>
      <trkpt lat="43.3457" lon="-0.53655">
        <ele>212.11</ele>
        <time>2017-04-15T06:46:26Z</time>
      </trkpt>
      <trkpt lat="43.34571" lon="-0.53655">
        <ele>212.59</ele>
        <time>2017-04-15T06:46:27Z</time>
      </trkpt>
      <trkpt lat="43.34573" lon="-0.53653">
        <ele>212.59</ele>
        <time>2017-04-15T06:46:28Z</time>
      </trkpt>
      <trkpt lat="43.34574" lon="-0.53653">
        <ele>213.07</ele>
        <time>2017-04-15T06:46:29Z</time>
      </trkpt>
      <trkpt lat="43.34576" lon="-0.53651">
        <ele>213.07</ele>
        <time>2017-04-15T06:46:30Z</time>
      </trkpt>
      <trkpt lat="43.34578" lon="-0.53649">
        <ele>213.55</ele>
        <time>2017-04-15T06:46:31Z</time>
      </trkpt>
      <trkpt lat="43.34581" lon="-0.53648">
        <ele>214.03</ele>
        <time>2017-04-15T06:46:32Z</time>
      </trkpt>
      <trkpt lat="43.34583" lon="-0.53646">
        <ele>214.51</ele>
        <time>2017-04-15T06:46:33Z</time>
      </trkpt>
      <trkpt lat="43.34605" lon="-0.53625">
        <ele>213.55</ele>
        <time>2017-04-15T06:46:39Z</time>
      </trkpt>
      <trkpt lat="43.34609" lon="-0.53619">
        <ele>213.07</ele>
        <time>2017-04-15T06:46:40Z</time>
      </trkpt>
      <trkpt lat="43.34614" lon="-0.53612">
        <ele>212.59</ele>
        <time>2017-04-15T06:46:41Z</time>
      </trkpt>
      <trkpt lat="43.34618" lon="-0.53605">
        <ele>211.63</ele>
        <time>2017-04-15T06:46:42Z</time>
      </trkpt>
      <trkpt lat="43.34622" lon="-0.53597">
        <ele>211.15</ele>
        <time>2017-04-15T06:46:43Z</time>
      </trkpt>
      <trkpt lat="43.34636" lon="-0.53565">
        <ele>208.26</ele>
        <time>2017-04-15T06:46:47Z</time>
      </trkpt>
      <trkpt lat="43.34639" lon="-0.53556">
        <ele>207.3</ele>
        <time>2017-04-15T06:46:48Z</time>
      </trkpt>
      <trkpt lat="43.34661" lon="-0.53484">
        <ele>200.09</ele>
        <time>2017-04-15T06:46:55Z</time>
      </trkpt>
      <trkpt lat="43.34692" lon="-0.53387">
        <ele>195.77</ele>
        <time>2017-04-15T06:47:05Z</time>
      </trkpt>
      <trkpt lat="43.34694" lon="-0.53377">
        <ele>195.77</ele>
        <time>2017-04-15T06:47:06Z</time>
      </trkpt>
      <trkpt lat="43.34698" lon="-0.53337">
        <ele>195.28</ele>
        <time>2017-04-15T06:47:10Z</time>
      </trkpt>
      <trkpt lat="43.347" lon="-0.53327">
        <ele>194.8</ele>
        <time>2017-04-15T06:47:11Z</time>
      </trkpt>
      <trkpt lat="43.34726" lon="-0.53254">
        <ele>194.8</ele>
        <time>2017-04-15T06:47:21Z</time>
      </trkpt>
      <trkpt lat="43.3473" lon="-0.53249">
        <ele>194.8</ele>
        <time>2017-04-15T06:47:22Z</time>
      </trkpt>
      <trkpt lat="43.34752" lon="-0.53213">
        <ele>195.28</ele>
        <time>2017-04-15T06:47:31Z</time>
      </trkpt>
      <trkpt lat="43.34757" lon="-0.53152">
        <ele>195.77</ele>
        <time>2017-04-15T06:47:45Z</time>
      </trkpt>
      <trkpt lat="43.3475" lon="-0.53118">
        <ele>198.65</ele>
        <time>2017-04-15T06:47:56Z</time>
      </trkpt>
      <trkpt lat="43.34736" lon="-0.53099">
        <ele>204.9</ele>
        <time>2017-04-15T06:48:07Z</time>
      </trkpt>
      <trkpt lat="43.34725" lon="-0.53084">
        <ele>209.7</ele>
        <time>2017-04-15T06:48:16Z</time>
      </trkpt>
      <trkpt lat="43.34724" lon="-0.53082">
        <ele>209.7</ele>
        <time>2017-04-15T06:48:17Z</time>
      </trkpt>
      <trkpt lat="43.34721" lon="-0.53078">
        <ele>210.67</ele>
        <time>2017-04-15T06:48:20Z</time>
      </trkpt>
      <trkpt lat="43.34701" lon="-0.53061">
        <ele>214.99</ele>
        <time>2017-04-15T06:48:33Z</time>
      </trkpt>
      <trkpt lat="43.347" lon="-0.53059">
        <ele>214.99</ele>
        <time>2017-04-15T06:48:34Z</time>
      </trkpt>
      <trkpt lat="43.34698" lon="-0.53058">
        <ele>215.47</ele>
        <time>2017-04-15T06:48:35Z</time>
      </trkpt>
      <trkpt lat="43.34697" lon="-0.53056">
        <ele>215.95</ele>
        <time>2017-04-15T06:48:36Z</time>
      </trkpt>
      <trkpt lat="43.34696" lon="-0.53055">
        <ele>216.43</ele>
        <time>2017-04-15T06:48:37Z</time>
      </trkpt>
      <trkpt lat="43.34695" lon="-0.53054">
        <ele>216.91</ele>
        <time>2017-04-15T06:48:38Z</time>
      </trkpt>
      <trkpt lat="43.34694" lon="-0.53053">
        <ele>217.88</ele>
        <time>2017-04-15T06:48:39Z</time>
      </trkpt>
      <trkpt lat="43.34692" lon="-0.53052">
        <ele>218.36</ele>
        <time>2017-04-15T06:48:40Z</time>
      </trkpt>
      <trkpt lat="43.34691" lon="-0.5305">
        <ele>218.84</ele>
        <time>2017-04-15T06:48:41Z</time>
      </trkpt>
      <trkpt lat="43.3469" lon="-0.53048">
        <ele>218.84</ele>
        <time>2017-04-15T06:48:42Z</time>
      </trkpt>
      <trkpt lat="43.34688" lon="-0.53046">
        <ele>219.32</ele>
        <time>2017-04-15T06:48:43Z</time>
      </trkpt>
      <trkpt lat="43.34687" lon="-0.53044">
        <ele>219.8</ele>
        <time>2017-04-15T06:48:44Z</time>
      </trkpt>
      <trkpt lat="43.34685" lon="-0.53042">
        <ele>219.8</ele>
        <time>2017-04-15T06:48:45Z</time>
      </trkpt>
      <trkpt lat="43.34683" lon="-0.5304">
        <ele>219.8</ele>
        <time>2017-04-15T06:48:46Z</time>
      </trkpt>
      <trkpt lat="43.34682" lon="-0.53037">
        <ele>220.76</ele>
        <time>2017-04-15T06:48:48Z</time>
      </trkpt>
      <trkpt lat="43.34681" lon="-0.53035">
        <ele>221.24</ele>
        <time>2017-04-15T06:48:49Z</time>
      </trkpt>
      <trkpt lat="43.34679" lon="-0.53034">
        <ele>222.2</ele>
        <time>2017-04-15T06:48:50Z</time>
      </trkpt>
      <trkpt lat="43.34678" lon="-0.53033">
        <ele>222.68</ele>
        <time>2017-04-15T06:48:51Z</time>
      </trkpt>
      <trkpt lat="43.34677" lon="-0.53032">
        <ele>223.16</ele>
        <time>2017-04-15T06:48:52Z</time>
      </trkpt>
      <trkpt lat="43.34676" lon="-0.53031">
        <ele>223.64</ele>
        <time>2017-04-15T06:48:53Z</time>
      </trkpt>
      <trkpt lat="43.34674" lon="-0.5303">
        <ele>224.12</ele>
        <time>2017-04-15T06:48:54Z</time>
      </trkpt>
      <trkpt lat="43.34673" lon="-0.53029">
        <ele>224.61</ele>
        <time>2017-04-15T06:48:55Z</time>
      </trkpt>
      <trkpt lat="43.34671" lon="-0.53028">
        <ele>224.61</ele>
        <time>2017-04-15T06:48:56Z</time>
      </trkpt>
      <trkpt lat="43.3467" lon="-0.53027">
        <ele>225.09</ele>
        <time>2017-04-15T06:48:57Z</time>
      </trkpt>
      <trkpt lat="43.34668" lon="-0.53025">
        <ele>225.57</ele>
        <time>2017-04-15T06:48:58Z</time>
      </trkpt>
      <trkpt lat="43.34666" lon="-0.53024">
        <ele>225.57</ele>
        <time>2017-04-15T06:48:59Z</time>
      </trkpt>
      <trkpt lat="43.34664" lon="-0.53023">
        <ele>226.05</ele>
        <time>2017-04-15T06:49:00Z</time>
      </trkpt>
      <trkpt lat="43.34661" lon="-0.53022">
        <ele>226.05</ele>
        <time>2017-04-15T06:49:01Z</time>
      </trkpt>
      <trkpt lat="43.34641" lon="-0.53004">
        <ele>222.68</ele>
        <time>2017-04-15T06:49:12Z</time>
      </trkpt>
      <trkpt lat="43.34638" lon="-0.53">
        <ele>222.2</ele>
        <time>2017-04-15T06:49:14Z</time>
      </trkpt>
      <trkpt lat="43.34636" lon="-0.52998">
        <ele>222.68</ele>
        <time>2017-04-15T06:49:15Z</time>
      </trkpt>
      <trkpt lat="43.34634" lon="-0.52997">
        <ele>223.16</ele>
        <time>2017-04-15T06:49:16Z</time>
      </trkpt>
      <trkpt lat="43.34616" lon="-0.52976">
        <ele>223.64</ele>
        <time>2017-04-15T06:49:24Z</time>
      </trkpt>
      <trkpt lat="43.34595" lon="-0.5296">
        <ele>222.2</ele>
        <time>2017-04-15T06:49:36Z</time>
      </trkpt>
      <trkpt lat="43.34577" lon="-0.52943">
        <ele>223.16</ele>
        <time>2017-04-15T06:49:48Z</time>
      </trkpt>
      <trkpt lat="43.34559" lon="-0.52923">
        <ele>227.49</ele>
        <time>2017-04-15T06:49:58Z</time>
      </trkpt>
      <trkpt lat="43.3454" lon="-0.52905">
        <ele>230.37</ele>
        <time>2017-04-15T06:50:08Z</time>
      </trkpt>
      <trkpt lat="43.34536" lon="-0.52899">
        <ele>230.85</ele>
        <time>2017-04-15T06:50:09Z</time>
      </trkpt>
      <trkpt lat="43.34532" lon="-0.52892">
        <ele>231.33</ele>
        <time>2017-04-15T06:50:10Z</time>
      </trkpt>
      <trkpt lat="43.34528" lon="-0.52885">
        <ele>231.81</ele>
        <time>2017-04-15T06:50:11Z</time>
      </trkpt>
      <trkpt lat="43.34525" lon="-0.52879">
        <ele>232.3</ele>
        <time>2017-04-15T06:50:12Z</time>
      </trkpt>
      <trkpt lat="43.3452" lon="-0.52872">
        <ele>232.78</ele>
        <time>2017-04-15T06:50:13Z</time>
      </trkpt>
      <trkpt lat="43.34515" lon="-0.52867">
        <ele>232.78</ele>
        <time>2017-04-15T06:50:14Z</time>
      </trkpt>
      <trkpt lat="43.34511" lon="-0.52861">
        <ele>232.78</ele>
        <time>2017-04-15T06:50:15Z</time>
      </trkpt>
      <trkpt lat="43.34495" lon="-0.52845">
        <ele>233.74</ele>
        <time>2017-04-15T06:50:22Z</time>
      </trkpt>
      <trkpt lat="43.34492" lon="-0.5284">
        <ele>234.7</ele>
        <time>2017-04-15T06:50:25Z</time>
      </trkpt>
      <trkpt lat="43.34478" lon="-0.52817">
        <ele>235.18</ele>
        <time>2017-04-15T06:50:35Z</time>
      </trkpt>
      <trkpt lat="43.34475" lon="-0.52811">
        <ele>235.18</ele>
        <time>2017-04-15T06:50:37Z</time>
      </trkpt>
      <trkpt lat="43.34472" lon="-0.52792">
        <ele>234.7</ele>
        <time>2017-04-15T06:50:41Z</time>
      </trkpt>
      <trkpt lat="43.34464" lon="-0.52742">
        <ele>230.85</ele>
        <time>2017-04-15T06:50:50Z</time>
      </trkpt>
      <trkpt lat="43.3445" lon="-0.52708">
        <ele>223.64</ele>
        <time>2017-04-15T06:51:00Z</time>
      </trkpt>
      <trkpt lat="43.34448" lon="-0.52707">
        <ele>223.64</ele>
        <time>2017-04-15T06:51:01Z</time>
      </trkpt>
      <trkpt lat="43.34444" lon="-0.52703">
        <ele>222.68</ele>
        <time>2017-04-15T06:51:04Z</time>
      </trkpt>
      <trkpt lat="43.34442" lon="-0.52697">
        <ele>222.2</ele>
        <time>2017-04-15T06:51:05Z</time>
      </trkpt>
      <trkpt lat="43.34442" lon="-0.52692">
        <ele>221.24</ele>
        <time>2017-04-15T06:51:06Z</time>
      </trkpt>
      <trkpt lat="43.34442" lon="-0.52687">
        <ele>220.76</ele>
        <time>2017-04-15T06:51:07Z</time>
      </trkpt>
      <trkpt lat="43.34442" lon="-0.52682">
        <ele>220.28</ele>
        <time>2017-04-15T06:51:08Z</time>
      </trkpt>
      <trkpt lat="43.3444" lon="-0.52679">
        <ele>219.8</ele>
        <time>2017-04-15T06:51:09Z</time>
      </trkpt>
      <trkpt lat="43.34438" lon="-0.52677">
        <ele>219.32</ele>
        <time>2017-04-15T06:51:10Z</time>
      </trkpt>
      <trkpt lat="43.34435" lon="-0.52676">
        <ele>218.84</ele>
        <time>2017-04-15T06:51:11Z</time>
      </trkpt>
      <trkpt lat="43.34433" lon="-0.52676">
        <ele>218.36</ele>
        <time>2017-04-15T06:51:12Z</time>
      </trkpt>
      <trkpt lat="43.3443" lon="-0.52676">
        <ele>217.88</ele>
        <time>2017-04-15T06:51:13Z</time>
      </trkpt>
      <trkpt lat="43.34428" lon="-0.52675">
        <ele>216.91</ele>
        <time>2017-04-15T06:51:14Z</time>
      </trkpt>
      <trkpt lat="43.34426" lon="-0.52672">
        <ele>216.43</ele>
        <time>2017-04-15T06:51:15Z</time>
      </trkpt>
      <trkpt lat="43.34427" lon="-0.52669">
        <ele>215.95</ele>
        <time>2017-04-15T06:51:16Z</time>
      </trkpt>
      <trkpt lat="43.34427" lon="-0.52666">
        <ele>215.47</ele>
        <time>2017-04-15T06:51:17Z</time>
      </trkpt>
      <trkpt lat="43.34427" lon="-0.52662">
        <ele>214.99</ele>
        <time>2017-04-15T06:51:18Z</time>
      </trkpt>
      <trkpt lat="43.34426" lon="-0.52659">
        <ele>214.51</ele>
        <time>2017-04-15T06:51:19Z</time>
      </trkpt>
      <trkpt lat="43.34424" lon="-0.5265">
        <ele>213.55</ele>
        <time>2017-04-15T06:51:23Z</time>
      </trkpt>
      <trkpt lat="43.34423" lon="-0.52647">
        <ele>213.07</ele>
        <time>2017-04-15T06:51:24Z</time>
      </trkpt>
      <trkpt lat="43.34421" lon="-0.52643">
        <ele>212.11</ele>
        <time>2017-04-15T06:51:25Z</time>
      </trkpt>
      <trkpt lat="43.3442" lon="-0.5264">
        <ele>211.63</ele>
        <time>2017-04-15T06:51:26Z</time>
      </trkpt>
      <trkpt lat="43.3442" lon="-0.52637">
        <ele>210.67</ele>
        <time>2017-04-15T06:51:27Z</time>
      </trkpt>
      <trkpt lat="43.34413" lon="-0.52615">
        <ele>209.22</ele>
        <time>2017-04-15T06:51:35Z</time>
      </trkpt>
      <trkpt lat="43.34403" lon="-0.52607">
        <ele>209.7</ele>
        <time>2017-04-15T06:51:47Z</time>
      </trkpt>
      <trkpt lat="43.34399" lon="-0.52603">
        <ele>207.78</ele>
        <time>2017-04-15T06:51:58Z</time>
      </trkpt>
      <trkpt lat="43.34394" lon="-0.52599">
        <ele>205.38</ele>
        <time>2017-04-15T06:52:09Z</time>
      </trkpt>
      <trkpt lat="43.34374" lon="-0.52575">
        <ele>206.34</ele>
        <time>2017-04-15T06:52:17Z</time>
      </trkpt>
      <trkpt lat="43.34371" lon="-0.5257">
        <ele>206.34</ele>
        <time>2017-04-15T06:52:18Z</time>
      </trkpt>
      <trkpt lat="43.34368" lon="-0.52564">
        <ele>205.86</ele>
        <time>2017-04-15T06:52:19Z</time>
      </trkpt>
      <trkpt lat="43.34364" lon="-0.52553">
        <ele>205.86</ele>
        <time>2017-04-15T06:52:21Z</time>
      </trkpt>
      <trkpt lat="43.34363" lon="-0.52548">
        <ele>205.86</ele>
        <time>2017-04-15T06:52:22Z</time>
      </trkpt>
      <trkpt lat="43.34362" lon="-0.52543">
        <ele>205.86</ele>
        <time>2017-04-15T06:52:23Z</time>
      </trkpt>
      <trkpt lat="43.34362" lon="-0.52539">
        <ele>205.38</ele>
        <time>2017-04-15T06:52:24Z</time>
      </trkpt>
      <trkpt lat="43.34361" lon="-0.52534">
        <ele>205.38</ele>
        <time>2017-04-15T06:52:25Z</time>
      </trkpt>
      <trkpt lat="43.3436" lon="-0.5253">
        <ele>204.9</ele>
        <time>2017-04-15T06:52:26Z</time>
      </trkpt>
      <trkpt lat="43.34359" lon="-0.52526">
        <ele>204.42</ele>
        <time>2017-04-15T06:52:27Z</time>
      </trkpt>
      <trkpt lat="43.34358" lon="-0.52523">
        <ele>204.42</ele>
        <time>2017-04-15T06:52:28Z</time>
      </trkpt>
      <trkpt lat="43.34357" lon="-0.52521">
        <ele>203.94</ele>
        <time>2017-04-15T06:52:29Z</time>
      </trkpt>
      <trkpt lat="43.34355" lon="-0.52518">
        <ele>203.94</ele>
        <time>2017-04-15T06:52:30Z</time>
      </trkpt>
      <trkpt lat="43.34345" lon="-0.52508">
        <ele>202.98</ele>
        <time>2017-04-15T06:52:34Z</time>
      </trkpt>
      <trkpt lat="43.34344" lon="-0.52505">
        <ele>202.49</ele>
        <time>2017-04-15T06:52:35Z</time>
      </trkpt>
      <trkpt lat="43.34343" lon="-0.52501">
        <ele>202.01</ele>
        <time>2017-04-15T06:52:36Z</time>
      </trkpt>
      <trkpt lat="43.34341" lon="-0.52497">
        <ele>201.53</ele>
        <time>2017-04-15T06:52:37Z</time>
      </trkpt>
      <trkpt lat="43.34339" lon="-0.52492">
        <ele>201.05</ele>
        <time>2017-04-15T06:52:38Z</time>
      </trkpt>
      <trkpt lat="43.34336" lon="-0.52487">
        <ele>200.57</ele>
        <time>2017-04-15T06:52:39Z</time>
      </trkpt>
      <trkpt lat="43.34332" lon="-0.52482">
        <ele>199.61</ele>
        <time>2017-04-15T06:52:40Z</time>
      </trkpt>
      <trkpt lat="43.34326" lon="-0.52477">
        <ele>199.13</ele>
        <time>2017-04-15T06:52:41Z</time>
      </trkpt>
      <trkpt lat="43.34322" lon="-0.52471">
        <ele>198.65</ele>
        <time>2017-04-15T06:52:42Z</time>
      </trkpt>
      <trkpt lat="43.34317" lon="-0.52465">
        <ele>197.69</ele>
        <time>2017-04-15T06:52:43Z</time>
      </trkpt>
      <trkpt lat="43.34312" lon="-0.52461">
        <ele>197.21</ele>
        <time>2017-04-15T06:52:44Z</time>
      </trkpt>
      <trkpt lat="43.34303" lon="-0.52451">
        <ele>196.25</ele>
        <time>2017-04-15T06:52:46Z</time>
      </trkpt>
      <trkpt lat="43.343" lon="-0.52445">
        <ele>195.28</ele>
        <time>2017-04-15T06:52:47Z</time>
      </trkpt>
      <trkpt lat="43.34293" lon="-0.52433">
        <ele>194.32</ele>
        <time>2017-04-15T06:52:49Z</time>
      </trkpt>
      <trkpt lat="43.34292" lon="-0.52427">
        <ele>193.84</ele>
        <time>2017-04-15T06:52:50Z</time>
      </trkpt>
      <trkpt lat="43.3429" lon="-0.52423">
        <ele>193.36</ele>
        <time>2017-04-15T06:52:51Z</time>
      </trkpt>
      <trkpt lat="43.34281" lon="-0.52387">
        <ele>196.73</ele>
        <time>2017-04-15T06:53:00Z</time>
      </trkpt>
      <trkpt lat="43.34279" lon="-0.52376">
        <ele>200.09</ele>
        <time>2017-04-15T06:53:03Z</time>
      </trkpt>
      <trkpt lat="43.34257" lon="-0.52338">
        <ele>208.74</ele>
        <time>2017-04-15T06:53:15Z</time>
      </trkpt>
      <trkpt lat="43.34223" lon="-0.52329">
        <ele>212.11</ele>
        <time>2017-04-15T06:53:27Z</time>
      </trkpt>
      <trkpt lat="43.34198" lon="-0.52315">
        <ele>210.67</ele>
        <time>2017-04-15T06:53:38Z</time>
      </trkpt>
      <trkpt lat="43.34182" lon="-0.52303">
        <ele>211.15</ele>
        <time>2017-04-15T06:53:45Z</time>
      </trkpt>
      <trkpt lat="43.34157" lon="-0.52274">
        <ele>218.84</ele>
        <time>2017-04-15T06:53:58Z</time>
      </trkpt>
      <trkpt lat="43.34152" lon="-0.52271">
        <ele>219.8</ele>
        <time>2017-04-15T06:54:00Z</time>
      </trkpt>
      <trkpt lat="43.3415" lon="-0.5227">
        <ele>219.8</ele>
        <time>2017-04-15T06:54:01Z</time>
      </trkpt>
      <trkpt lat="43.34124" lon="-0.52257">
        <ele>221.72</ele>
        <time>2017-04-15T06:54:12Z</time>
      </trkpt>
      <trkpt lat="43.3412" lon="-0.52253">
        <ele>221.72</ele>
        <time>2017-04-15T06:54:13Z</time>
      </trkpt>
      <trkpt lat="43.34107" lon="-0.52235">
        <ele>220.28</ele>
        <time>2017-04-15T06:54:16Z</time>
      </trkpt>
      <trkpt lat="43.34086" lon="-0.52214">
        <ele>219.32</ele>
        <time>2017-04-15T06:54:20Z</time>
      </trkpt>
      <trkpt lat="43.3408" lon="-0.52211">
        <ele>219.32</ele>
        <time>2017-04-15T06:54:21Z</time>
      </trkpt>
      <trkpt lat="43.34074" lon="-0.52209">
        <ele>219.32</ele>
        <time>2017-04-15T06:54:22Z</time>
      </trkpt>
      <trkpt lat="43.34068" lon="-0.52207">
        <ele>219.32</ele>
        <time>2017-04-15T06:54:23Z</time>
      </trkpt>
      <trkpt lat="43.34063" lon="-0.52204">
        <ele>219.32</ele>
        <time>2017-04-15T06:54:24Z</time>
      </trkpt>
      <trkpt lat="43.34058" lon="-0.522">
        <ele>219.8</ele>
        <time>2017-04-15T06:54:25Z</time>
      </trkpt>
      <trkpt lat="43.34054" lon="-0.52197">
        <ele>219.8</ele>
        <time>2017-04-15T06:54:26Z</time>
      </trkpt>
      <trkpt lat="43.34051" lon="-0.52194">
        <ele>219.32</ele>
        <time>2017-04-15T06:54:27Z</time>
      </trkpt>
      <trkpt lat="43.34048" lon="-0.52192">
        <ele>219.8</ele>
        <time>2017-04-15T06:54:28Z</time>
      </trkpt>
      <trkpt lat="43.34045" lon="-0.5219">
        <ele>219.8</ele>
        <time>2017-04-15T06:54:29Z</time>
      </trkpt>
      <trkpt lat="43.34024" lon="-0.52182">
        <ele>220.28</ele>
        <time>2017-04-15T06:54:35Z</time>
      </trkpt>
      <trkpt lat="43.34021" lon="-0.5218">
        <ele>220.28</ele>
        <time>2017-04-15T06:54:36Z</time>
      </trkpt>
      <trkpt lat="43.34019" lon="-0.52178">
        <ele>220.28</ele>
        <time>2017-04-15T06:54:37Z</time>
      </trkpt>
      <trkpt lat="43.34016" lon="-0.52178">
        <ele>220.28</ele>
        <time>2017-04-15T06:54:38Z</time>
      </trkpt>
      <trkpt lat="43.34015" lon="-0.5218">
        <ele>219.8</ele>
        <time>2017-04-15T06:54:39Z</time>
      </trkpt>
      <trkpt lat="43.34014" lon="-0.52183">
        <ele>219.32</ele>
        <time>2017-04-15T06:54:40Z</time>
      </trkpt>
      <trkpt lat="43.34014" lon="-0.52187">
        <ele>217.88</ele>
        <time>2017-04-15T06:54:41Z</time>
      </trkpt>
      <trkpt lat="43.34016" lon="-0.52192">
        <ele>217.4</ele>
        <time>2017-04-15T06:54:42Z</time>
      </trkpt>
      <trkpt lat="43.34018" lon="-0.52198">
        <ele>216.43</ele>
        <time>2017-04-15T06:54:43Z</time>
      </trkpt>
      <trkpt lat="43.3402" lon="-0.52205">
        <ele>215.47</ele>
        <time>2017-04-15T06:54:44Z</time>
      </trkpt>
      <trkpt lat="43.34039" lon="-0.52255">
        <ele>208.74</ele>
        <time>2017-04-15T06:54:50Z</time>
      </trkpt>
      <trkpt lat="43.34041" lon="-0.5226">
        <ele>207.78</ele>
        <time>2017-04-15T06:54:51Z</time>
      </trkpt>
      <trkpt lat="43.34059" lon="-0.52282">
        <ele>204.9</ele>
        <time>2017-04-15T06:55:00Z</time>
      </trkpt>
      <trkpt lat="43.3408" lon="-0.52317">
        <ele>204.9</ele>
        <time>2017-04-15T06:55:13Z</time>
      </trkpt>
      <trkpt lat="43.34095" lon="-0.52361">
        <ele>201.53</ele>
        <time>2017-04-15T06:55:25Z</time>
      </trkpt>
      <trkpt lat="43.34097" lon="-0.52366">
        <ele>201.05</ele>
        <time>2017-04-15T06:55:26Z</time>
      </trkpt>
      <trkpt lat="43.34099" lon="-0.52372">
        <ele>201.05</ele>
        <time>2017-04-15T06:55:27Z</time>
      </trkpt>
      <trkpt lat="43.34118" lon="-0.52417">
        <ele>202.01</ele>
        <time>2017-04-15T06:55:36Z</time>
      </trkpt>
      <trkpt lat="43.34129" lon="-0.52448">
        <ele>201.53</ele>
        <time>2017-04-15T06:55:41Z</time>
      </trkpt>
      <trkpt lat="43.34131" lon="-0.52454">
        <ele>201.05</ele>
        <time>2017-04-15T06:55:42Z</time>
      </trkpt>
      <trkpt lat="43.34133" lon="-0.5246">
        <ele>201.05</ele>
        <time>2017-04-15T06:55:43Z</time>
      </trkpt>
      <trkpt lat="43.34136" lon="-0.52466">
        <ele>200.57</ele>
        <time>2017-04-15T06:55:44Z</time>
      </trkpt>
      <trkpt lat="43.34138" lon="-0.52473">
        <ele>200.09</ele>
        <time>2017-04-15T06:55:45Z</time>
      </trkpt>
      <trkpt lat="43.34141" lon="-0.52479">
        <ele>199.61</ele>
        <time>2017-04-15T06:55:46Z</time>
      </trkpt>
      <trkpt lat="43.34148" lon="-0.52499">
        <ele>198.65</ele>
        <time>2017-04-15T06:55:49Z</time>
      </trkpt>
      <trkpt lat="43.34155" lon="-0.52544">
        <ele>199.13</ele>
        <time>2017-04-15T06:55:58Z</time>
      </trkpt>
      <trkpt lat="43.34152" lon="-0.52548">
        <ele>198.65</ele>
        <time>2017-04-15T06:55:59Z</time>
      </trkpt>
      <trkpt lat="43.34149" lon="-0.52552">
        <ele>199.13</ele>
        <time>2017-04-15T06:56:00Z</time>
      </trkpt>
      <trkpt lat="43.34095" lon="-0.52596">
        <ele>195.77</ele>
        <time>2017-04-15T06:56:13Z</time>
      </trkpt>
      <trkpt lat="43.34079" lon="-0.52606">
        <ele>195.28</ele>
        <time>2017-04-15T06:56:17Z</time>
      </trkpt>
      <trkpt lat="43.34075" lon="-0.52608">
        <ele>195.77</ele>
        <time>2017-04-15T06:56:18Z</time>
      </trkpt>
      <trkpt lat="43.34071" lon="-0.52609">
        <ele>196.25</ele>
        <time>2017-04-15T06:56:19Z</time>
      </trkpt>
      <trkpt lat="43.34056" lon="-0.52618">
        <ele>197.21</ele>
        <time>2017-04-15T06:56:23Z</time>
      </trkpt>
      <trkpt lat="43.34048" lon="-0.52623">
        <ele>197.69</ele>
        <time>2017-04-15T06:56:25Z</time>
      </trkpt>
      <trkpt lat="43.34045" lon="-0.52627">
        <ele>198.17</ele>
        <time>2017-04-15T06:56:26Z</time>
      </trkpt>
      <trkpt lat="43.34042" lon="-0.52631">
        <ele>198.17</ele>
        <time>2017-04-15T06:56:27Z</time>
      </trkpt>
      <trkpt lat="43.34008" lon="-0.52675">
        <ele>200.57</ele>
        <time>2017-04-15T06:56:39Z</time>
      </trkpt>
      <trkpt lat="43.33992" lon="-0.52731">
        <ele>203.94</ele>
        <time>2017-04-15T06:56:51Z</time>
      </trkpt>
      <trkpt lat="43.33965" lon="-0.52817">
        <ele>203.46</ele>
        <time>2017-04-15T06:57:04Z</time>
      </trkpt>
      <trkpt lat="43.33946" lon="-0.52951">
        <ele>200.09</ele>
        <time>2017-04-15T06:57:18Z</time>
      </trkpt>
      <trkpt lat="43.33945" lon="-0.5296">
        <ele>200.09</ele>
        <time>2017-04-15T06:57:19Z</time>
      </trkpt>
      <trkpt lat="43.33949" lon="-0.53009">
        <ele>199.13</ele>
        <time>2017-04-15T06:57:26Z</time>
      </trkpt>
      <trkpt lat="43.33957" lon="-0.53063">
        <ele>198.65</ele>
        <time>2017-04-15T06:57:35Z</time>
      </trkpt>
      <trkpt lat="43.33957" lon="-0.5307">
        <ele>198.65</ele>
        <time>2017-04-15T06:57:36Z</time>
      </trkpt>
      <trkpt lat="43.33957" lon="-0.53076">
        <ele>198.65</ele>
        <time>2017-04-15T06:57:37Z</time>
      </trkpt>
      <trkpt lat="43.33957" lon="-0.53082">
        <ele>198.65</ele>
        <time>2017-04-15T06:57:38Z</time>
      </trkpt>
      <trkpt lat="43.33957" lon="-0.53089">
        <ele>198.65</ele>
        <time>2017-04-15T06:57:39Z</time>
      </trkpt>
      <trkpt lat="43.33971" lon="-0.53143">
        <ele>200.09</ele>
        <time>2017-04-15T06:57:50Z</time>
      </trkpt>
      <trkpt lat="43.3399" lon="-0.53164">
        <ele>202.49</ele>
        <time>2017-04-15T06:57:58Z</time>
      </trkpt>
      <trkpt lat="43.33991" lon="-0.53167">
        <ele>202.98</ele>
        <time>2017-04-15T06:57:59Z</time>
      </trkpt>
      <trkpt lat="43.33992" lon="-0.5318">
        <ele>201.53</ele>
        <time>2017-04-15T06:58:02Z</time>
      </trkpt>
      <trkpt lat="43.33986" lon="-0.53198">
        <ele>198.17</ele>
        <time>2017-04-15T06:58:06Z</time>
      </trkpt>
      <trkpt lat="43.33978" lon="-0.53206">
        <ele>196.25</ele>
        <time>2017-04-15T06:58:08Z</time>
      </trkpt>
      <trkpt lat="43.33954" lon="-0.53219">
        <ele>188.56</ele>
        <time>2017-04-15T06:58:15Z</time>
      </trkpt>
      <trkpt lat="43.33946" lon="-0.53219">
        <ele>186.63</ele>
        <time>2017-04-15T06:58:17Z</time>
      </trkpt>
      <trkpt lat="43.33938" lon="-0.53217">
        <ele>184.71</ele>
        <time>2017-04-15T06:58:21Z</time>
      </trkpt>
      <trkpt lat="43.33925" lon="-0.53214">
        <ele>185.67</ele>
        <time>2017-04-15T06:58:27Z</time>
      </trkpt>
      <trkpt lat="43.33916" lon="-0.53194">
        <ele>188.56</ele>
        <time>2017-04-15T06:58:33Z</time>
      </trkpt>
      <trkpt lat="43.33894" lon="-0.53204">
        <ele>190.48</ele>
        <time>2017-04-15T06:58:41Z</time>
      </trkpt>
      <trkpt lat="43.3389" lon="-0.53203">
        <ele>190.48</ele>
        <time>2017-04-15T06:58:42Z</time>
      </trkpt>
      <trkpt lat="43.33853" lon="-0.53186">
        <ele>190.48</ele>
        <time>2017-04-15T06:58:54Z</time>
      </trkpt>
      <trkpt lat="43.33846" lon="-0.53171">
        <ele>190.48</ele>
        <time>2017-04-15T06:58:59Z</time>
      </trkpt>
      <trkpt lat="43.33831" lon="-0.53169">
        <ele>190.48</ele>
        <time>2017-04-15T06:59:04Z</time>
      </trkpt>
      <trkpt lat="43.33827" lon="-0.53167">
        <ele>190</ele>
        <time>2017-04-15T06:59:07Z</time>
      </trkpt>
      <trkpt lat="43.33814" lon="-0.5316">
        <ele>188.56</ele>
        <time>2017-04-15T06:59:13Z</time>
      </trkpt>
      <trkpt lat="43.33783" lon="-0.53154">
        <ele>186.15</ele>
        <time>2017-04-15T06:59:21Z</time>
      </trkpt>
      <trkpt lat="43.33768" lon="-0.53166">
        <ele>183.27</ele>
        <time>2017-04-15T06:59:25Z</time>
      </trkpt>
      <trkpt lat="43.33757" lon="-0.53172">
        <ele>181.35</ele>
        <time>2017-04-15T06:59:28Z</time>
      </trkpt>
      <trkpt lat="43.33733" lon="-0.53156">
        <ele>177.5</ele>
        <time>2017-04-15T06:59:33Z</time>
      </trkpt>
      <trkpt lat="43.33707" lon="-0.53136">
        <ele>172.69</ele>
        <time>2017-04-15T06:59:38Z</time>
      </trkpt>
      <trkpt lat="43.33687" lon="-0.53129">
        <ele>168.37</ele>
        <time>2017-04-15T06:59:42Z</time>
      </trkpt>
      <trkpt lat="43.33649" lon="-0.53158">
        <ele>160.68</ele>
        <time>2017-04-15T06:59:51Z</time>
      </trkpt>
      <trkpt lat="43.33619" lon="-0.53168">
        <ele>155.39</ele>
        <time>2017-04-15T06:59:58Z</time>
      </trkpt>
      <trkpt lat="43.33606" lon="-0.53179">
        <ele>153.95</ele>
        <time>2017-04-15T07:00:02Z</time>
      </trkpt>
      <trkpt lat="43.33565" lon="-0.5317">
        <ele>151.54</ele>
        <time>2017-04-15T07:00:11Z</time>
      </trkpt>
      <trkpt lat="43.33548" lon="-0.53186">
        <ele>150.1</ele>
        <time>2017-04-15T07:00:16Z</time>
      </trkpt>
      <trkpt lat="43.33509" lon="-0.53212">
        <ele>144.82</ele>
        <time>2017-04-15T07:00:24Z</time>
      </trkpt>
      <trkpt lat="43.33504" lon="-0.53215">
        <ele>144.34</ele>
        <time>2017-04-15T07:00:25Z</time>
      </trkpt>
      <trkpt lat="43.335" lon="-0.53217">
        <ele>143.85</ele>
        <time>2017-04-15T07:00:26Z</time>
      </trkpt>
      <trkpt lat="43.33498" lon="-0.53221">
        <ele>142.89</ele>
        <time>2017-04-15T07:00:27Z</time>
      </trkpt>
      <trkpt lat="43.33495" lon="-0.53225">
        <ele>141.93</ele>
        <time>2017-04-15T07:00:28Z</time>
      </trkpt>
      <trkpt lat="43.33493" lon="-0.53228">
        <ele>140.97</ele>
        <time>2017-04-15T07:00:29Z</time>
      </trkpt>
      <trkpt lat="43.3349" lon="-0.53231">
        <ele>140.01</ele>
        <time>2017-04-15T07:00:30Z</time>
      </trkpt>
      <trkpt lat="43.33486" lon="-0.53234">
        <ele>139.05</ele>
        <time>2017-04-15T07:00:31Z</time>
      </trkpt>
      <trkpt lat="43.33483" lon="-0.53238">
        <ele>138.09</ele>
        <time>2017-04-15T07:00:32Z</time>
      </trkpt>
      <trkpt lat="43.33479" lon="-0.53241">
        <ele>137.61</ele>
        <time>2017-04-15T07:00:33Z</time>
      </trkpt>
      <trkpt lat="43.33476" lon="-0.53242">
        <ele>137.61</ele>
        <time>2017-04-15T07:00:34Z</time>
      </trkpt>
      <trkpt lat="43.33474" lon="-0.53243">
        <ele>137.13</ele>
        <time>2017-04-15T07:00:35Z</time>
      </trkpt>
      <trkpt lat="43.33472" lon="-0.53242">
        <ele>136.64</ele>
        <time>2017-04-15T07:00:36Z</time>
      </trkpt>
      <trkpt lat="43.3347" lon="-0.53241">
        <ele>136.16</ele>
        <time>2017-04-15T07:00:37Z</time>
      </trkpt>
      <trkpt lat="43.33468" lon="-0.53239">
        <ele>136.16</ele>
        <time>2017-04-15T07:00:38Z</time>
      </trkpt>
      <trkpt lat="43.33467" lon="-0.53238">
        <ele>136.16</ele>
        <time>2017-04-15T07:00:39Z</time>
      </trkpt>
      <trkpt lat="43.33466" lon="-0.53236">
        <ele>136.16</ele>
        <time>2017-04-15T07:00:40Z</time>
      </trkpt>
      <trkpt lat="43.33466" lon="-0.53233">
        <ele>136.16</ele>
        <time>2017-04-15T07:00:41Z</time>
      </trkpt>
      <trkpt lat="43.33466" lon="-0.5323">
        <ele>135.68</ele>
        <time>2017-04-15T07:00:42Z</time>
      </trkpt>
      <trkpt lat="43.33467" lon="-0.53227">
        <ele>135.2</ele>
        <time>2017-04-15T07:00:43Z</time>
      </trkpt>
      <trkpt lat="43.33469" lon="-0.53224">
        <ele>135.2</ele>
        <time>2017-04-15T07:00:44Z</time>
      </trkpt>
      <trkpt lat="43.33476" lon="-0.53196">
        <ele>135.68</ele>
        <time>2017-04-15T07:00:53Z</time>
      </trkpt>
      <trkpt lat="43.33472" lon="-0.53192">
        <ele>135.68</ele>
        <time>2017-04-15T07:00:54Z</time>
      </trkpt>
      <trkpt lat="43.33468" lon="-0.53191">
        <ele>135.68</ele>
        <time>2017-04-15T07:00:55Z</time>
      </trkpt>
      <trkpt lat="43.33453" lon="-0.53188">
        <ele>136.16</ele>
        <time>2017-04-15T07:00:59Z</time>
      </trkpt>
      <trkpt lat="43.33448" lon="-0.53189">
        <ele>136.16</ele>
        <time>2017-04-15T07:01:00Z</time>
      </trkpt>
      <trkpt lat="43.33445" lon="-0.53191">
        <ele>135.68</ele>
        <time>2017-04-15T07:01:01Z</time>
      </trkpt>
      <trkpt lat="43.33441" lon="-0.53192">
        <ele>135.2</ele>
        <time>2017-04-15T07:01:02Z</time>
      </trkpt>
      <trkpt lat="43.33438" lon="-0.53193">
        <ele>134.72</ele>
        <time>2017-04-15T07:01:03Z</time>
      </trkpt>
      <trkpt lat="43.33434" lon="-0.53195">
        <ele>134.24</ele>
        <time>2017-04-15T07:01:04Z</time>
      </trkpt>
      <trkpt lat="43.33431" lon="-0.53196">
        <ele>134.24</ele>
        <time>2017-04-15T07:01:05Z</time>
      </trkpt>
      <trkpt lat="43.33381" lon="-0.53208">
        <ele>134.72</ele>
        <time>2017-04-15T07:01:20Z</time>
      </trkpt>
      <trkpt lat="43.33353" lon="-0.53199">
        <ele>136.64</ele>
        <time>2017-04-15T07:01:28Z</time>
      </trkpt>
      <trkpt lat="43.33349" lon="-0.53196">
        <ele>136.64</ele>
        <time>2017-04-15T07:01:29Z</time>
      </trkpt>
      <trkpt lat="43.33347" lon="-0.53192">
        <ele>136.64</ele>
        <time>2017-04-15T07:01:30Z</time>
      </trkpt>
      <trkpt lat="43.33344" lon="-0.53188">
        <ele>136.64</ele>
        <time>2017-04-15T07:01:31Z</time>
      </trkpt>
      <trkpt lat="43.33342" lon="-0.53184">
        <ele>136.64</ele>
        <time>2017-04-15T07:01:32Z</time>
      </trkpt>
      <trkpt lat="43.3334" lon="-0.53179">
        <ele>136.16</ele>
        <time>2017-04-15T07:01:33Z</time>
      </trkpt>
      <trkpt lat="43.33323" lon="-0.53123">
        <ele>138.09</ele>
        <time>2017-04-15T07:01:45Z</time>
      </trkpt>
      <trkpt lat="43.33306" lon="-0.53065">
        <ele>140.97</ele>
        <time>2017-04-15T07:01:57Z</time>
      </trkpt>
      <trkpt lat="43.33299" lon="-0.5305">
        <ele>141.45</ele>
        <time>2017-04-15T07:02:00Z</time>
      </trkpt>
      <trkpt lat="43.3329" lon="-0.53035">
        <ele>141.93</ele>
        <time>2017-04-15T07:02:03Z</time>
      </trkpt>
      <trkpt lat="43.33234" lon="-0.52972">
        <ele>138.57</ele>
        <time>2017-04-15T07:02:16Z</time>
      </trkpt>
      <trkpt lat="43.33201" lon="-0.52947">
        <ele>137.13</ele>
        <time>2017-04-15T07:02:25Z</time>
      </trkpt>
      <trkpt lat="43.33197" lon="-0.52943">
        <ele>137.13</ele>
        <time>2017-04-15T07:02:26Z</time>
      </trkpt>
      <trkpt lat="43.33191" lon="-0.52935">
        <ele>137.61</ele>
        <time>2017-04-15T07:02:28Z</time>
      </trkpt>
      <trkpt lat="43.33188" lon="-0.52931">
        <ele>137.61</ele>
        <time>2017-04-15T07:02:29Z</time>
      </trkpt>
      <trkpt lat="43.33162" lon="-0.52889">
        <ele>138.57</ele>
        <time>2017-04-15T07:02:38Z</time>
      </trkpt>
      <trkpt lat="43.3316" lon="-0.52884">
        <ele>139.05</ele>
        <time>2017-04-15T07:02:39Z</time>
      </trkpt>
      <trkpt lat="43.33157" lon="-0.52879">
        <ele>139.53</ele>
        <time>2017-04-15T07:02:40Z</time>
      </trkpt>
      <trkpt lat="43.33154" lon="-0.52875">
        <ele>140.01</ele>
        <time>2017-04-15T07:02:41Z</time>
      </trkpt>
      <trkpt lat="43.33152" lon="-0.52869">
        <ele>140.49</ele>
        <time>2017-04-15T07:02:42Z</time>
      </trkpt>
      <trkpt lat="43.33149" lon="-0.52865">
        <ele>140.97</ele>
        <time>2017-04-15T07:02:43Z</time>
      </trkpt>
      <trkpt lat="43.33134" lon="-0.52843">
        <ele>142.41</ele>
        <time>2017-04-15T07:02:48Z</time>
      </trkpt>
      <trkpt lat="43.33108" lon="-0.52811">
        <ele>142.41</ele>
        <time>2017-04-15T07:02:56Z</time>
      </trkpt>
      <trkpt lat="43.33105" lon="-0.52807">
        <ele>142.41</ele>
        <time>2017-04-15T07:02:57Z</time>
      </trkpt>
      <trkpt lat="43.33101" lon="-0.52803">
        <ele>142.41</ele>
        <time>2017-04-15T07:02:58Z</time>
      </trkpt>
      <trkpt lat="43.33098" lon="-0.52798">
        <ele>142.41</ele>
        <time>2017-04-15T07:02:59Z</time>
      </trkpt>
      <trkpt lat="43.33095" lon="-0.52794">
        <ele>141.93</ele>
        <time>2017-04-15T07:03:00Z</time>
      </trkpt>
      <trkpt lat="43.33077" lon="-0.52763">
        <ele>141.93</ele>
        <time>2017-04-15T07:03:06Z</time>
      </trkpt>
      <trkpt lat="43.3307" lon="-0.52748">
        <ele>141.93</ele>
        <time>2017-04-15T07:03:09Z</time>
      </trkpt>
      <trkpt lat="43.33068" lon="-0.52743">
        <ele>141.93</ele>
        <time>2017-04-15T07:03:10Z</time>
      </trkpt>
      <trkpt lat="43.33066" lon="-0.52737">
        <ele>141.93</ele>
        <time>2017-04-15T07:03:11Z</time>
      </trkpt>
      <trkpt lat="43.33052" lon="-0.52685">
        <ele>142.41</ele>
        <time>2017-04-15T07:03:20Z</time>
      </trkpt>
      <trkpt lat="43.33051" lon="-0.52679">
        <ele>142.89</ele>
        <time>2017-04-15T07:03:21Z</time>
      </trkpt>
      <trkpt lat="43.33048" lon="-0.52667">
        <ele>143.37</ele>
        <time>2017-04-15T07:03:23Z</time>
      </trkpt>
      <trkpt lat="43.33045" lon="-0.52654">
        <ele>143.37</ele>
        <time>2017-04-15T07:03:25Z</time>
      </trkpt>
      <trkpt lat="43.33042" lon="-0.52648">
        <ele>143.85</ele>
        <time>2017-04-15T07:03:26Z</time>
      </trkpt>
      <trkpt lat="43.3304" lon="-0.52643">
        <ele>143.85</ele>
        <time>2017-04-15T07:03:27Z</time>
      </trkpt>
      <trkpt lat="43.33038" lon="-0.52638">
        <ele>143.85</ele>
        <time>2017-04-15T07:03:28Z</time>
      </trkpt>
      <trkpt lat="43.33036" lon="-0.52634">
        <ele>143.85</ele>
        <time>2017-04-15T07:03:29Z</time>
      </trkpt>
      <trkpt lat="43.33034" lon="-0.52629">
        <ele>144.34</ele>
        <time>2017-04-15T07:03:30Z</time>
      </trkpt>
      <trkpt lat="43.33032" lon="-0.52625">
        <ele>144.34</ele>
        <time>2017-04-15T07:03:31Z</time>
      </trkpt>
      <trkpt lat="43.33029" lon="-0.52621">
        <ele>144.82</ele>
        <time>2017-04-15T07:03:32Z</time>
      </trkpt>
      <trkpt lat="43.33027" lon="-0.52617">
        <ele>144.82</ele>
        <time>2017-04-15T07:03:33Z</time>
      </trkpt>
      <trkpt lat="43.33025" lon="-0.52613">
        <ele>144.82</ele>
        <time>2017-04-15T07:03:34Z</time>
      </trkpt>
      <trkpt lat="43.33023" lon="-0.52608">
        <ele>145.3</ele>
        <time>2017-04-15T07:03:35Z</time>
      </trkpt>
      <trkpt lat="43.33021" lon="-0.52604">
        <ele>145.3</ele>
        <time>2017-04-15T07:03:36Z</time>
      </trkpt>
      <trkpt lat="43.3302" lon="-0.52599">
        <ele>145.3</ele>
        <time>2017-04-15T07:03:37Z</time>
      </trkpt>
      <trkpt lat="43.32994" lon="-0.52538">
        <ele>149.62</ele>
        <time>2017-04-15T07:03:51Z</time>
      </trkpt>
      <trkpt lat="43.32967" lon="-0.52476">
        <ele>154.91</ele>
        <time>2017-04-15T07:04:06Z</time>
      </trkpt>
      <trkpt lat="43.32952" lon="-0.5241">
        <ele>160.68</ele>
        <time>2017-04-15T07:04:19Z</time>
      </trkpt>
      <trkpt lat="43.3294" lon="-0.52338">
        <ele>164.52</ele>
        <time>2017-04-15T07:04:33Z</time>
      </trkpt>
      <trkpt lat="43.32935" lon="-0.52321">
        <ele>164.52</ele>
        <time>2017-04-15T07:04:36Z</time>
      </trkpt>
      <trkpt lat="43.32933" lon="-0.52315">
        <ele>164.52</ele>
        <time>2017-04-15T07:04:37Z</time>
      </trkpt>
      <trkpt lat="43.3293" lon="-0.5231">
        <ele>164.52</ele>
        <time>2017-04-15T07:04:38Z</time>
      </trkpt>
      <trkpt lat="43.32926" lon="-0.52305">
        <ele>164.52</ele>
        <time>2017-04-15T07:04:39Z</time>
      </trkpt>
      <trkpt lat="43.32921" lon="-0.52301">
        <ele>164.52</ele>
        <time>2017-04-15T07:04:40Z</time>
      </trkpt>
      <trkpt lat="43.32916" lon="-0.52299">
        <ele>164.04</ele>
        <time>2017-04-15T07:04:41Z</time>
      </trkpt>
      <trkpt lat="43.32911" lon="-0.52297">
        <ele>164.04</ele>
        <time>2017-04-15T07:04:42Z</time>
      </trkpt>
      <trkpt lat="43.32905" lon="-0.52295">
        <ele>163.56</ele>
        <time>2017-04-15T07:04:43Z</time>
      </trkpt>
      <trkpt lat="43.329" lon="-0.52293">
        <ele>163.56</ele>
        <time>2017-04-15T07:04:44Z</time>
      </trkpt>
      <trkpt lat="43.32894" lon="-0.52292">
        <ele>163.08</ele>
        <time>2017-04-15T07:04:45Z</time>
      </trkpt>
      <trkpt lat="43.3282" lon="-0.52286">
        <ele>159.24</ele>
        <time>2017-04-15T07:04:56Z</time>
      </trkpt>
      <trkpt lat="43.32814" lon="-0.52284">
        <ele>158.75</ele>
        <time>2017-04-15T07:04:57Z</time>
      </trkpt>
      <trkpt lat="43.32742" lon="-0.5224">
        <ele>155.87</ele>
        <time>2017-04-15T07:05:08Z</time>
      </trkpt>
      <trkpt lat="43.32737" lon="-0.52237">
        <ele>155.39</ele>
        <time>2017-04-15T07:05:09Z</time>
      </trkpt>
      <trkpt lat="43.32731" lon="-0.52234">
        <ele>155.39</ele>
        <time>2017-04-15T07:05:10Z</time>
      </trkpt>
      <trkpt lat="43.32681" lon="-0.52201">
        <ele>153.95</ele>
        <time>2017-04-15T07:05:22Z</time>
      </trkpt>
      <trkpt lat="43.32674" lon="-0.52194">
        <ele>152.99</ele>
        <time>2017-04-15T07:05:24Z</time>
      </trkpt>
      <trkpt lat="43.3265" lon="-0.52167">
        <ele>150.58</ele>
        <time>2017-04-15T07:05:31Z</time>
      </trkpt>
      <trkpt lat="43.32637" lon="-0.52151">
        <ele>150.1</ele>
        <time>2017-04-15T07:05:35Z</time>
      </trkpt>
      <trkpt lat="43.32634" lon="-0.52147">
        <ele>150.1</ele>
        <time>2017-04-15T07:05:36Z</time>
      </trkpt>
      <trkpt lat="43.32603" lon="-0.521">
        <ele>150.1</ele>
        <time>2017-04-15T07:05:47Z</time>
      </trkpt>
      <trkpt lat="43.326" lon="-0.52096">
        <ele>150.1</ele>
        <time>2017-04-15T07:05:48Z</time>
      </trkpt>
      <trkpt lat="43.32597" lon="-0.52092">
        <ele>150.58</ele>
        <time>2017-04-15T07:05:49Z</time>
      </trkpt>
      <trkpt lat="43.32595" lon="-0.52088">
        <ele>150.58</ele>
        <time>2017-04-15T07:05:50Z</time>
      </trkpt>
      <trkpt lat="43.32592" lon="-0.52084">
        <ele>150.58</ele>
        <time>2017-04-15T07:05:51Z</time>
      </trkpt>
      <trkpt lat="43.3259" lon="-0.52079">
        <ele>150.1</ele>
        <time>2017-04-15T07:05:52Z</time>
      </trkpt>
      <trkpt lat="43.32559" lon="-0.52025">
        <ele>152.99</ele>
        <time>2017-04-15T07:06:05Z</time>
      </trkpt>
      <trkpt lat="43.32527" lon="-0.51983">
        <ele>151.06</ele>
        <time>2017-04-15T07:06:17Z</time>
      </trkpt>
      <trkpt lat="43.32491" lon="-0.51952">
        <ele>150.1</ele>
        <time>2017-04-15T07:06:28Z</time>
      </trkpt>
      <trkpt lat="43.32458" lon="-0.51929">
        <ele>148.66</ele>
        <time>2017-04-15T07:06:36Z</time>
      </trkpt>
      <trkpt lat="43.32381" lon="-0.51867">
        <ele>142.89</ele>
        <time>2017-04-15T07:06:52Z</time>
      </trkpt>
      <trkpt lat="43.32345" lon="-0.51833">
        <ele>140.49</ele>
        <time>2017-04-15T07:06:59Z</time>
      </trkpt>
      <trkpt lat="43.32321" lon="-0.51812">
        <ele>140.01</ele>
        <time>2017-04-15T07:07:05Z</time>
      </trkpt>
      <trkpt lat="43.32289" lon="-0.51765">
        <ele>141.93</ele>
        <time>2017-04-15T07:07:17Z</time>
      </trkpt>
      <trkpt lat="43.3226" lon="-0.51712">
        <ele>149.14</ele>
        <time>2017-04-15T07:07:30Z</time>
      </trkpt>
      <trkpt lat="43.32224" lon="-0.51663">
        <ele>149.14</ele>
        <time>2017-04-15T07:07:43Z</time>
      </trkpt>
      <trkpt lat="43.3219" lon="-0.51626">
        <ele>150.1</ele>
        <time>2017-04-15T07:07:54Z</time>
      </trkpt>
      <trkpt lat="43.32187" lon="-0.51622">
        <ele>150.1</ele>
        <time>2017-04-15T07:07:55Z</time>
      </trkpt>
      <trkpt lat="43.32184" lon="-0.51618">
        <ele>150.1</ele>
        <time>2017-04-15T07:07:56Z</time>
      </trkpt>
      <trkpt lat="43.32181" lon="-0.51615">
        <ele>150.1</ele>
        <time>2017-04-15T07:07:57Z</time>
      </trkpt>
      <trkpt lat="43.32177" lon="-0.51612">
        <ele>150.1</ele>
        <time>2017-04-15T07:07:58Z</time>
      </trkpt>
      <trkpt lat="43.32124" lon="-0.5157">
        <ele>151.54</ele>
        <time>2017-04-15T07:08:14Z</time>
      </trkpt>
      <trkpt lat="43.32093" lon="-0.51543">
        <ele>152.99</ele>
        <time>2017-04-15T07:08:24Z</time>
      </trkpt>
      <trkpt lat="43.3209" lon="-0.5154">
        <ele>152.99</ele>
        <time>2017-04-15T07:08:25Z</time>
      </trkpt>
      <trkpt lat="43.32048" lon="-0.51496">
        <ele>152.99</ele>
        <time>2017-04-15T07:08:38Z</time>
      </trkpt>
      <trkpt lat="43.32033" lon="-0.51459">
        <ele>152.03</ele>
        <time>2017-04-15T07:08:46Z</time>
      </trkpt>
      <trkpt lat="43.3203" lon="-0.51455">
        <ele>152.03</ele>
        <time>2017-04-15T07:08:47Z</time>
      </trkpt>
      <trkpt lat="43.32019" lon="-0.51447">
        <ele>150.58</ele>
        <time>2017-04-15T07:08:49Z</time>
      </trkpt>
      <trkpt lat="43.32013" lon="-0.51445">
        <ele>150.1</ele>
        <time>2017-04-15T07:08:50Z</time>
      </trkpt>
      <trkpt lat="43.31993" lon="-0.5144">
        <ele>147.7</ele>
        <time>2017-04-15T07:08:53Z</time>
      </trkpt>
      <trkpt lat="43.31986" lon="-0.51435">
        <ele>147.22</ele>
        <time>2017-04-15T07:08:54Z</time>
      </trkpt>
      <trkpt lat="43.31981" lon="-0.5143">
        <ele>146.26</ele>
        <time>2017-04-15T07:08:55Z</time>
      </trkpt>
      <trkpt lat="43.31975" lon="-0.51424">
        <ele>145.78</ele>
        <time>2017-04-15T07:08:56Z</time>
      </trkpt>
      <trkpt lat="43.31968" lon="-0.5142">
        <ele>144.82</ele>
        <time>2017-04-15T07:08:57Z</time>
      </trkpt>
      <trkpt lat="43.31961" lon="-0.51417">
        <ele>144.34</ele>
        <time>2017-04-15T07:08:58Z</time>
      </trkpt>
      <trkpt lat="43.31956" lon="-0.51415">
        <ele>143.85</ele>
        <time>2017-04-15T07:08:59Z</time>
      </trkpt>
      <trkpt lat="43.31944" lon="-0.5141">
        <ele>142.89</ele>
        <time>2017-04-15T07:09:01Z</time>
      </trkpt>
      <trkpt lat="43.31939" lon="-0.51407">
        <ele>142.89</ele>
        <time>2017-04-15T07:09:02Z</time>
      </trkpt>
      <trkpt lat="43.31935" lon="-0.51403">
        <ele>142.41</ele>
        <time>2017-04-15T07:09:03Z</time>
      </trkpt>
      <trkpt lat="43.31931" lon="-0.51398">
        <ele>142.41</ele>
        <time>2017-04-15T07:09:04Z</time>
      </trkpt>
      <trkpt lat="43.31929" lon="-0.51394">
        <ele>142.89</ele>
        <time>2017-04-15T07:09:05Z</time>
      </trkpt>
      <trkpt lat="43.31927" lon="-0.51388">
        <ele>143.37</ele>
        <time>2017-04-15T07:09:06Z</time>
      </trkpt>
      <trkpt lat="43.31925" lon="-0.51383">
        <ele>143.85</ele>
        <time>2017-04-15T07:09:07Z</time>
      </trkpt>
      <trkpt lat="43.31923" lon="-0.51379">
        <ele>144.34</ele>
        <time>2017-04-15T07:09:08Z</time>
      </trkpt>
      <trkpt lat="43.3192" lon="-0.51375">
        <ele>144.34</ele>
        <time>2017-04-15T07:09:09Z</time>
      </trkpt>
      <trkpt lat="43.31918" lon="-0.51371">
        <ele>144.82</ele>
        <time>2017-04-15T07:09:10Z</time>
      </trkpt>
      <trkpt lat="43.31908" lon="-0.51338">
        <ele>147.7</ele>
        <time>2017-04-15T07:09:18Z</time>
      </trkpt>
      <trkpt lat="43.31908" lon="-0.51333">
        <ele>148.18</ele>
        <time>2017-04-15T07:09:19Z</time>
      </trkpt>
      <trkpt lat="43.31913" lon="-0.51279">
        <ele>148.18</ele>
        <time>2017-04-15T07:09:30Z</time>
      </trkpt>
      <trkpt lat="43.31912" lon="-0.51254">
        <ele>149.62</ele>
        <time>2017-04-15T07:09:38Z</time>
      </trkpt>
      <trkpt lat="43.31912" lon="-0.51252">
        <ele>150.1</ele>
        <time>2017-04-15T07:09:39Z</time>
      </trkpt>
      <trkpt lat="43.31911" lon="-0.51225">
        <ele>150.58</ele>
        <time>2017-04-15T07:09:47Z</time>
      </trkpt>
      <trkpt lat="43.3191" lon="-0.51222">
        <ele>150.58</ele>
        <time>2017-04-15T07:09:48Z</time>
      </trkpt>
      <trkpt lat="43.3191" lon="-0.51219">
        <ele>150.58</ele>
        <time>2017-04-15T07:09:49Z</time>
      </trkpt>
      <trkpt lat="43.3191" lon="-0.51216">
        <ele>150.58</ele>
        <time>2017-04-15T07:09:50Z</time>
      </trkpt>
      <trkpt lat="43.31909" lon="-0.51213">
        <ele>150.58</ele>
        <time>2017-04-15T07:09:51Z</time>
      </trkpt>
      <trkpt lat="43.31909" lon="-0.5121">
        <ele>150.58</ele>
        <time>2017-04-15T07:09:52Z</time>
      </trkpt>
      <trkpt lat="43.31908" lon="-0.51207">
        <ele>150.58</ele>
        <time>2017-04-15T07:09:53Z</time>
      </trkpt>
      <trkpt lat="43.31907" lon="-0.51204">
        <ele>150.58</ele>
        <time>2017-04-15T07:09:54Z</time>
      </trkpt>
      <trkpt lat="43.31907" lon="-0.51201">
        <ele>151.06</ele>
        <time>2017-04-15T07:09:55Z</time>
      </trkpt>
      <trkpt lat="43.31907" lon="-0.51198">
        <ele>151.06</ele>
        <time>2017-04-15T07:09:56Z</time>
      </trkpt>
      <trkpt lat="43.31907" lon="-0.51195">
        <ele>151.06</ele>
        <time>2017-04-15T07:09:57Z</time>
      </trkpt>
      <trkpt lat="43.31907" lon="-0.51147">
        <ele>152.03</ele>
        <time>2017-04-15T07:10:11Z</time>
      </trkpt>
      <trkpt lat="43.31905" lon="-0.51111">
        <ele>155.39</ele>
        <time>2017-04-15T07:10:23Z</time>
      </trkpt>
      <trkpt lat="43.31905" lon="-0.51105">
        <ele>155.39</ele>
        <time>2017-04-15T07:10:25Z</time>
      </trkpt>
      <trkpt lat="43.31908" lon="-0.5109">
        <ele>157.31</ele>
        <time>2017-04-15T07:10:30Z</time>
      </trkpt>
      <trkpt lat="43.31908" lon="-0.51088">
        <ele>157.79</ele>
        <time>2017-04-15T07:10:31Z</time>
      </trkpt>
      <trkpt lat="43.31906" lon="-0.51043">
        <ele>163.56</ele>
        <time>2017-04-15T07:10:47Z</time>
      </trkpt>
      <trkpt lat="43.319" lon="-0.51008">
        <ele>169.33</ele>
        <time>2017-04-15T07:11:00Z</time>
      </trkpt>
      <trkpt lat="43.31899" lon="-0.51006">
        <ele>169.33</ele>
        <time>2017-04-15T07:11:01Z</time>
      </trkpt>
      <trkpt lat="43.31882" lon="-0.50981">
        <ele>171.73</ele>
        <time>2017-04-15T07:11:14Z</time>
      </trkpt>
      <trkpt lat="43.31881" lon="-0.5098">
        <ele>171.73</ele>
        <time>2017-04-15T07:11:15Z</time>
      </trkpt>
      <trkpt lat="43.31879" lon="-0.50978">
        <ele>171.73</ele>
        <time>2017-04-15T07:11:16Z</time>
      </trkpt>
      <trkpt lat="43.31862" lon="-0.50948">
        <ele>171.25</ele>
        <time>2017-04-15T07:11:29Z</time>
      </trkpt>
      <trkpt lat="43.3185" lon="-0.50922">
        <ele>175.1</ele>
        <time>2017-04-15T07:11:41Z</time>
      </trkpt>
      <trkpt lat="43.31847" lon="-0.50915">
        <ele>175.1</ele>
        <time>2017-04-15T07:11:44Z</time>
      </trkpt>
      <trkpt lat="43.31845" lon="-0.50913">
        <ele>175.58</ele>
        <time>2017-04-15T07:11:45Z</time>
      </trkpt>
      <trkpt lat="43.31844" lon="-0.5091">
        <ele>175.58</ele>
        <time>2017-04-15T07:11:46Z</time>
      </trkpt>
      <trkpt lat="43.31825" lon="-0.50882">
        <ele>178.94</ele>
        <time>2017-04-15T07:12:00Z</time>
      </trkpt>
      <trkpt lat="43.31813" lon="-0.50854">
        <ele>182.31</ele>
        <time>2017-04-15T07:12:12Z</time>
      </trkpt>
      <trkpt lat="43.31808" lon="-0.50811">
        <ele>180.87</ele>
        <time>2017-04-15T07:12:21Z</time>
      </trkpt>
      <trkpt lat="43.3181" lon="-0.50776">
        <ele>178.94</ele>
        <time>2017-04-15T07:12:31Z</time>
      </trkpt>
      <trkpt lat="43.31817" lon="-0.50747">
        <ele>173.66</ele>
        <time>2017-04-15T07:12:42Z</time>
      </trkpt>
      <trkpt lat="43.31818" lon="-0.50722">
        <ele>172.69</ele>
        <time>2017-04-15T07:12:54Z</time>
      </trkpt>
      <trkpt lat="43.31827" lon="-0.50696">
        <ele>169.33</ele>
        <time>2017-04-15T07:13:03Z</time>
      </trkpt>
      <trkpt lat="43.31827" lon="-0.5065">
        <ele>162.6</ele>
        <time>2017-04-15T07:13:13Z</time>
      </trkpt>
      <trkpt lat="43.31826" lon="-0.50644">
        <ele>162.6</ele>
        <time>2017-04-15T07:13:16Z</time>
      </trkpt>
      <trkpt lat="43.31825" lon="-0.50642">
        <ele>162.6</ele>
        <time>2017-04-15T07:13:17Z</time>
      </trkpt>
      <trkpt lat="43.31826" lon="-0.5064">
        <ele>162.6</ele>
        <time>2017-04-15T07:13:18Z</time>
      </trkpt>
      <trkpt lat="43.31826" lon="-0.50638">
        <ele>162.12</ele>
        <time>2017-04-15T07:13:19Z</time>
      </trkpt>
      <trkpt lat="43.31826" lon="-0.50636">
        <ele>162.12</ele>
        <time>2017-04-15T07:13:20Z</time>
      </trkpt>
      <trkpt lat="43.31826" lon="-0.50634">
        <ele>162.12</ele>
        <time>2017-04-15T07:13:21Z</time>
      </trkpt>
      <trkpt lat="43.31827" lon="-0.50629">
        <ele>162.6</ele>
        <time>2017-04-15T07:13:24Z</time>
      </trkpt>
      <trkpt lat="43.31826" lon="-0.50627">
        <ele>162.6</ele>
        <time>2017-04-15T07:13:25Z</time>
      </trkpt>
      <trkpt lat="43.31826" lon="-0.50626">
        <ele>162.12</ele>
        <time>2017-04-15T07:13:26Z</time>
      </trkpt>
      <trkpt lat="43.31825" lon="-0.50611">
        <ele>162.12</ele>
        <time>2017-04-15T07:13:34Z</time>
      </trkpt>
      <trkpt lat="43.31831" lon="-0.50596">
        <ele>163.56</ele>
        <time>2017-04-15T07:13:45Z</time>
      </trkpt>
      <trkpt lat="43.31832" lon="-0.50586">
        <ele>165.48</ele>
        <time>2017-04-15T07:13:52Z</time>
      </trkpt>
      <trkpt lat="43.31832" lon="-0.50584">
        <ele>165.48</ele>
        <time>2017-04-15T07:13:53Z</time>
      </trkpt>
      <trkpt lat="43.31835" lon="-0.50562">
        <ele>168.85</ele>
        <time>2017-04-15T07:14:06Z</time>
      </trkpt>
      <trkpt lat="43.31836" lon="-0.5054">
        <ele>171.25</ele>
        <time>2017-04-15T07:14:19Z</time>
      </trkpt>
      <trkpt lat="43.31836" lon="-0.50524">
        <ele>173.17</ele>
        <time>2017-04-15T07:14:32Z</time>
      </trkpt>
      <trkpt lat="43.31836" lon="-0.50506">
        <ele>178.94</ele>
        <time>2017-04-15T07:14:44Z</time>
      </trkpt>
      <trkpt lat="43.31832" lon="-0.50481">
        <ele>181.83</ele>
        <time>2017-04-15T07:14:59Z</time>
      </trkpt>
      <trkpt lat="43.31831" lon="-0.50467">
        <ele>182.79</ele>
        <time>2017-04-15T07:15:07Z</time>
      </trkpt>
      <trkpt lat="43.31831" lon="-0.50465">
        <ele>182.79</ele>
        <time>2017-04-15T07:15:08Z</time>
      </trkpt>
      <trkpt lat="43.31829" lon="-0.50458">
        <ele>183.75</ele>
        <time>2017-04-15T07:15:12Z</time>
      </trkpt>
      <trkpt lat="43.31824" lon="-0.5044">
        <ele>184.23</ele>
        <time>2017-04-15T07:15:23Z</time>
      </trkpt>
      <trkpt lat="43.31824" lon="-0.50438">
        <ele>184.23</ele>
        <time>2017-04-15T07:15:24Z</time>
      </trkpt>
      <trkpt lat="43.31821" lon="-0.50425">
        <ele>185.67</ele>
        <time>2017-04-15T07:15:32Z</time>
      </trkpt>
      <trkpt lat="43.31821" lon="-0.50423">
        <ele>186.15</ele>
        <time>2017-04-15T07:15:33Z</time>
      </trkpt>
      <trkpt lat="43.3182" lon="-0.50421">
        <ele>186.63</ele>
        <time>2017-04-15T07:15:34Z</time>
      </trkpt>
      <trkpt lat="43.31813" lon="-0.50399">
        <ele>190.48</ele>
        <time>2017-04-15T07:15:49Z</time>
      </trkpt>
      <trkpt lat="43.31811" lon="-0.50388">
        <ele>190.48</ele>
        <time>2017-04-15T07:15:55Z</time>
      </trkpt>
      <trkpt lat="43.3181" lon="-0.50381">
        <ele>191.92</ele>
        <time>2017-04-15T07:15:59Z</time>
      </trkpt>
      <trkpt lat="43.31809" lon="-0.50379">
        <ele>191.44</ele>
        <time>2017-04-15T07:16:00Z</time>
      </trkpt>
      <trkpt lat="43.31809" lon="-0.50378">
        <ele>191.92</ele>
        <time>2017-04-15T07:16:01Z</time>
      </trkpt>
      <trkpt lat="43.31808" lon="-0.50377">
        <ele>191.92</ele>
        <time>2017-04-15T07:16:02Z</time>
      </trkpt>
      <trkpt lat="43.31808" lon="-0.50375">
        <ele>191.92</ele>
        <time>2017-04-15T07:16:03Z</time>
      </trkpt>
      <trkpt lat="43.31807" lon="-0.50373">
        <ele>192.4</ele>
        <time>2017-04-15T07:16:04Z</time>
      </trkpt>
      <trkpt lat="43.31806" lon="-0.50372">
        <ele>192.4</ele>
        <time>2017-04-15T07:16:05Z</time>
      </trkpt>
      <trkpt lat="43.31794" lon="-0.50349">
        <ele>193.84</ele>
        <time>2017-04-15T07:16:19Z</time>
      </trkpt>
      <trkpt lat="43.31793" lon="-0.50347">
        <ele>193.84</ele>
        <time>2017-04-15T07:16:20Z</time>
      </trkpt>
      <trkpt lat="43.31793" lon="-0.50346">
        <ele>193.84</ele>
        <time>2017-04-15T07:16:21Z</time>
      </trkpt>
      <trkpt lat="43.31793" lon="-0.50344">
        <ele>194.32</ele>
        <time>2017-04-15T07:16:22Z</time>
      </trkpt>
      <trkpt lat="43.31793" lon="-0.50342">
        <ele>194.32</ele>
        <time>2017-04-15T07:16:23Z</time>
      </trkpt>
      <trkpt lat="43.31793" lon="-0.50341">
        <ele>194.32</ele>
        <time>2017-04-15T07:16:24Z</time>
      </trkpt>
      <trkpt lat="43.31796" lon="-0.50336">
        <ele>196.25</ele>
        <time>2017-04-15T07:16:31Z</time>
      </trkpt>
      <trkpt lat="43.31807" lon="-0.50338">
        <ele>200.09</ele>
        <time>2017-04-15T07:16:42Z</time>
      </trkpt>
      <trkpt lat="43.31821" lon="-0.50346">
        <ele>204.9</ele>
        <time>2017-04-15T07:16:55Z</time>
      </trkpt>
      <trkpt lat="43.31837" lon="-0.50356">
        <ele>207.78</ele>
        <time>2017-04-15T07:17:09Z</time>
      </trkpt>
      <trkpt lat="43.31854" lon="-0.50368">
        <ele>210.19</ele>
        <time>2017-04-15T07:17:22Z</time>
      </trkpt>
      <trkpt lat="43.31869" lon="-0.5038">
        <ele>212.59</ele>
        <time>2017-04-15T07:17:36Z</time>
      </trkpt>
      <trkpt lat="43.31871" lon="-0.50382">
        <ele>213.07</ele>
        <time>2017-04-15T07:17:38Z</time>
      </trkpt>
      <trkpt lat="43.31872" lon="-0.50383">
        <ele>213.07</ele>
        <time>2017-04-15T07:17:39Z</time>
      </trkpt>
      <trkpt lat="43.31891" lon="-0.50396">
        <ele>215.47</ele>
        <time>2017-04-15T07:17:54Z</time>
      </trkpt>
      <trkpt lat="43.31912" lon="-0.50415">
        <ele>217.4</ele>
        <time>2017-04-15T07:18:10Z</time>
      </trkpt>
      <trkpt lat="43.31933" lon="-0.50431">
        <ele>220.76</ele>
        <time>2017-04-15T07:18:26Z</time>
      </trkpt>
      <trkpt lat="43.31952" lon="-0.5043">
        <ele>223.64</ele>
        <time>2017-04-15T07:18:41Z</time>
      </trkpt>
      <trkpt lat="43.31954" lon="-0.50427">
        <ele>224.12</ele>
        <time>2017-04-15T07:18:43Z</time>
      </trkpt>
      <trkpt lat="43.31954" lon="-0.50425">
        <ele>224.12</ele>
        <time>2017-04-15T07:18:44Z</time>
      </trkpt>
      <trkpt lat="43.3195" lon="-0.50394">
        <ele>226.53</ele>
        <time>2017-04-15T07:19:00Z</time>
      </trkpt>
      <trkpt lat="43.31943" lon="-0.50367">
        <ele>229.41</ele>
        <time>2017-04-15T07:19:13Z</time>
      </trkpt>
      <trkpt lat="43.31943" lon="-0.50365">
        <ele>229.41</ele>
        <time>2017-04-15T07:19:14Z</time>
      </trkpt>
      <trkpt lat="43.3194" lon="-0.50346">
        <ele>231.33</ele>
        <time>2017-04-15T07:19:24Z</time>
      </trkpt>
      <trkpt lat="43.3194" lon="-0.50344">
        <ele>231.33</ele>
        <time>2017-04-15T07:19:25Z</time>
      </trkpt>
      <trkpt lat="43.3194" lon="-0.50342">
        <ele>231.33</ele>
        <time>2017-04-15T07:19:26Z</time>
      </trkpt>
      <trkpt lat="43.31939" lon="-0.5034">
        <ele>231.33</ele>
        <time>2017-04-15T07:19:27Z</time>
      </trkpt>
      <trkpt lat="43.31939" lon="-0.50338">
        <ele>231.33</ele>
        <time>2017-04-15T07:19:28Z</time>
      </trkpt>
      <trkpt lat="43.31938" lon="-0.50324">
        <ele>230.85</ele>
        <time>2017-04-15T07:19:35Z</time>
      </trkpt>
      <trkpt lat="43.31937" lon="-0.50322">
        <ele>230.85</ele>
        <time>2017-04-15T07:19:36Z</time>
      </trkpt>
      <trkpt lat="43.31936" lon="-0.5032">
        <ele>230.37</ele>
        <time>2017-04-15T07:19:37Z</time>
      </trkpt>
      <trkpt lat="43.31936" lon="-0.50318">
        <ele>230.37</ele>
        <time>2017-04-15T07:19:38Z</time>
      </trkpt>
      <trkpt lat="43.31935" lon="-0.50316">
        <ele>230.37</ele>
        <time>2017-04-15T07:19:39Z</time>
      </trkpt>
      <trkpt lat="43.31935" lon="-0.50314">
        <ele>230.37</ele>
        <time>2017-04-15T07:19:40Z</time>
      </trkpt>
      <trkpt lat="43.31934" lon="-0.50312">
        <ele>230.37</ele>
        <time>2017-04-15T07:19:41Z</time>
      </trkpt>
      <trkpt lat="43.31934" lon="-0.5031">
        <ele>230.85</ele>
        <time>2017-04-15T07:19:42Z</time>
      </trkpt>
      <trkpt lat="43.31934" lon="-0.50308">
        <ele>230.85</ele>
        <time>2017-04-15T07:19:43Z</time>
      </trkpt>
      <trkpt lat="43.31934" lon="-0.50305">
        <ele>230.85</ele>
        <time>2017-04-15T07:19:44Z</time>
      </trkpt>
      <trkpt lat="43.31929" lon="-0.50259">
        <ele>230.85</ele>
        <time>2017-04-15T07:19:59Z</time>
      </trkpt>
      <trkpt lat="43.31916" lon="-0.50226">
        <ele>230.85</ele>
        <time>2017-04-15T07:20:13Z</time>
      </trkpt>
      <trkpt lat="43.319" lon="-0.502">
        <ele>231.33</ele>
        <time>2017-04-15T07:20:24Z</time>
      </trkpt>
      <trkpt lat="43.31883" lon="-0.50171">
        <ele>232.3</ele>
        <time>2017-04-15T07:20:34Z</time>
      </trkpt>
      <trkpt lat="43.31874" lon="-0.5016">
        <ele>233.74</ele>
        <time>2017-04-15T07:20:40Z</time>
      </trkpt>
      <trkpt lat="43.31872" lon="-0.50158">
        <ele>233.74</ele>
        <time>2017-04-15T07:20:41Z</time>
      </trkpt>
      <trkpt lat="43.31871" lon="-0.50156">
        <ele>233.74</ele>
        <time>2017-04-15T07:20:42Z</time>
      </trkpt>
      <trkpt lat="43.3187" lon="-0.50155">
        <ele>233.74</ele>
        <time>2017-04-15T07:20:43Z</time>
      </trkpt>
      <trkpt lat="43.31868" lon="-0.50153">
        <ele>233.74</ele>
        <time>2017-04-15T07:20:44Z</time>
      </trkpt>
      <trkpt lat="43.31866" lon="-0.50152">
        <ele>233.74</ele>
        <time>2017-04-15T07:20:45Z</time>
      </trkpt>
      <trkpt lat="43.3186" lon="-0.50148">
        <ele>233.26</ele>
        <time>2017-04-15T07:20:48Z</time>
      </trkpt>
      <trkpt lat="43.31858" lon="-0.50145">
        <ele>232.78</ele>
        <time>2017-04-15T07:20:49Z</time>
      </trkpt>
      <trkpt lat="43.31856" lon="-0.50144">
        <ele>232.3</ele>
        <time>2017-04-15T07:20:50Z</time>
      </trkpt>
      <trkpt lat="43.31854" lon="-0.50142">
        <ele>232.3</ele>
        <time>2017-04-15T07:20:51Z</time>
      </trkpt>
      <trkpt lat="43.31853" lon="-0.5014">
        <ele>231.81</ele>
        <time>2017-04-15T07:20:52Z</time>
      </trkpt>
      <trkpt lat="43.31852" lon="-0.50139">
        <ele>231.81</ele>
        <time>2017-04-15T07:20:53Z</time>
      </trkpt>
      <trkpt lat="43.31851" lon="-0.50137">
        <ele>231.81</ele>
        <time>2017-04-15T07:20:54Z</time>
      </trkpt>
      <trkpt lat="43.31849" lon="-0.50135">
        <ele>231.81</ele>
        <time>2017-04-15T07:20:55Z</time>
      </trkpt>
      <trkpt lat="43.31848" lon="-0.50133">
        <ele>231.81</ele>
        <time>2017-04-15T07:20:56Z</time>
      </trkpt>
      <trkpt lat="43.31846" lon="-0.50132">
        <ele>231.81</ele>
        <time>2017-04-15T07:20:57Z</time>
      </trkpt>
      <trkpt lat="43.31845" lon="-0.5013">
        <ele>231.81</ele>
        <time>2017-04-15T07:20:58Z</time>
      </trkpt>
      <trkpt lat="43.31844" lon="-0.50129">
        <ele>231.81</ele>
        <time>2017-04-15T07:20:59Z</time>
      </trkpt>
      <trkpt lat="43.31843" lon="-0.50127">
        <ele>232.3</ele>
        <time>2017-04-15T07:21:00Z</time>
      </trkpt>
      <trkpt lat="43.31842" lon="-0.50126">
        <ele>232.3</ele>
        <time>2017-04-15T07:21:01Z</time>
      </trkpt>
      <trkpt lat="43.31842" lon="-0.50125">
        <ele>232.3</ele>
        <time>2017-04-15T07:21:02Z</time>
      </trkpt>
      <trkpt lat="43.31828" lon="-0.50109">
        <ele>233.26</ele>
        <time>2017-04-15T07:21:15Z</time>
      </trkpt>
      <trkpt lat="43.31815" lon="-0.50096">
        <ele>234.7</ele>
        <time>2017-04-15T07:21:27Z</time>
      </trkpt>
      <trkpt lat="43.31808" lon="-0.5009">
        <ele>236.62</ele>
        <time>2017-04-15T07:21:34Z</time>
      </trkpt>
      <trkpt lat="43.31807" lon="-0.50089">
        <ele>237.1</ele>
        <time>2017-04-15T07:21:35Z</time>
      </trkpt>
      <trkpt lat="43.31791" lon="-0.50072">
        <ele>239.02</ele>
        <time>2017-04-15T07:21:50Z</time>
      </trkpt>
      <trkpt lat="43.31777" lon="-0.50046">
        <ele>243.83</ele>
        <time>2017-04-15T07:22:05Z</time>
      </trkpt>
      <trkpt lat="43.31771" lon="-0.50029">
        <ele>248.64</ele>
        <time>2017-04-15T07:22:15Z</time>
      </trkpt>
      <trkpt lat="43.31771" lon="-0.50026">
        <ele>248.64</ele>
        <time>2017-04-15T07:22:16Z</time>
      </trkpt>
      <trkpt lat="43.31771" lon="-0.50024">
        <ele>248.64</ele>
        <time>2017-04-15T07:22:17Z</time>
      </trkpt>
      <trkpt lat="43.31771" lon="-0.50022">
        <ele>248.16</ele>
        <time>2017-04-15T07:22:18Z</time>
      </trkpt>
      <trkpt lat="43.31771" lon="-0.5002">
        <ele>248.16</ele>
        <time>2017-04-15T07:22:19Z</time>
      </trkpt>
      <trkpt lat="43.3177" lon="-0.50018">
        <ele>248.16</ele>
        <time>2017-04-15T07:22:20Z</time>
      </trkpt>
      <trkpt lat="43.3177" lon="-0.50017">
        <ele>248.16</ele>
        <time>2017-04-15T07:22:21Z</time>
      </trkpt>
      <trkpt lat="43.3177" lon="-0.50015">
        <ele>248.16</ele>
        <time>2017-04-15T07:22:22Z</time>
      </trkpt>
      <trkpt lat="43.3177" lon="-0.50013">
        <ele>248.64</ele>
        <time>2017-04-15T07:22:23Z</time>
      </trkpt>
      <trkpt lat="43.3177" lon="-0.50011">
        <ele>248.64</ele>
        <time>2017-04-15T07:22:24Z</time>
      </trkpt>
      <trkpt lat="43.31769" lon="-0.5001">
        <ele>249.12</ele>
        <time>2017-04-15T07:22:25Z</time>
      </trkpt>
      <trkpt lat="43.3177" lon="-0.50008">
        <ele>249.12</ele>
        <time>2017-04-15T07:22:26Z</time>
      </trkpt>
      <trkpt lat="43.31771" lon="-0.5">
        <ele>249.12</ele>
        <time>2017-04-15T07:22:38Z</time>
      </trkpt>
      <trkpt lat="43.31772" lon="-0.49996">
        <ele>245.27</ele>
        <time>2017-04-15T07:23:01Z</time>
      </trkpt>
      <trkpt lat="43.31774" lon="-0.49995">
        <ele>245.75</ele>
        <time>2017-04-15T07:23:08Z</time>
      </trkpt>
      <trkpt lat="43.31775" lon="-0.49995">
        <ele>245.75</ele>
        <time>2017-04-15T07:23:09Z</time>
      </trkpt>
      <trkpt lat="43.31776" lon="-0.49995">
        <ele>245.75</ele>
        <time>2017-04-15T07:23:10Z</time>
      </trkpt>
      <trkpt lat="43.31778" lon="-0.49994">
        <ele>246.23</ele>
        <time>2017-04-15T07:23:13Z</time>
      </trkpt>
      <trkpt lat="43.31779" lon="-0.49992">
        <ele>246.23</ele>
        <time>2017-04-15T07:23:14Z</time>
      </trkpt>
      <trkpt lat="43.31779" lon="-0.49991">
        <ele>246.23</ele>
        <time>2017-04-15T07:23:15Z</time>
      </trkpt>
      <trkpt lat="43.31779" lon="-0.49989">
        <ele>246.72</ele>
        <time>2017-04-15T07:23:16Z</time>
      </trkpt>
      <trkpt lat="43.31778" lon="-0.49987">
        <ele>246.72</ele>
        <time>2017-04-15T07:23:17Z</time>
      </trkpt>
      <trkpt lat="43.31776" lon="-0.49986">
        <ele>246.72</ele>
        <time>2017-04-15T07:23:18Z</time>
      </trkpt>
      <trkpt lat="43.31769" lon="-0.49981">
        <ele>246.72</ele>
        <time>2017-04-15T07:23:23Z</time>
      </trkpt>
      <trkpt lat="43.31768" lon="-0.4998">
        <ele>246.72</ele>
        <time>2017-04-15T07:23:24Z</time>
      </trkpt>
      <trkpt lat="43.31766" lon="-0.49979">
        <ele>247.2</ele>
        <time>2017-04-15T07:23:25Z</time>
      </trkpt>
      <trkpt lat="43.31765" lon="-0.49978">
        <ele>247.68</ele>
        <time>2017-04-15T07:23:26Z</time>
      </trkpt>
      <trkpt lat="43.31764" lon="-0.49978">
        <ele>247.68</ele>
        <time>2017-04-15T07:23:27Z</time>
      </trkpt>
      <trkpt lat="43.31763" lon="-0.49977">
        <ele>247.68</ele>
        <time>2017-04-15T07:23:28Z</time>
      </trkpt>
      <trkpt lat="43.31762" lon="-0.49976">
        <ele>247.68</ele>
        <time>2017-04-15T07:23:29Z</time>
      </trkpt>
      <trkpt lat="43.3174" lon="-0.49964">
        <ele>250.08</ele>
        <time>2017-04-15T07:23:46Z</time>
      </trkpt>
      <trkpt lat="43.31719" lon="-0.49948">
        <ele>252.48</ele>
        <time>2017-04-15T07:24:02Z</time>
      </trkpt>
      <trkpt lat="43.31707" lon="-0.49937">
        <ele>253.44</ele>
        <time>2017-04-15T07:24:11Z</time>
      </trkpt>
      <trkpt lat="43.31707" lon="-0.49934">
        <ele>253.44</ele>
        <time>2017-04-15T07:24:12Z</time>
      </trkpt>
      <trkpt lat="43.31708" lon="-0.49932">
        <ele>253.44</ele>
        <time>2017-04-15T07:24:13Z</time>
      </trkpt>
      <trkpt lat="43.31711" lon="-0.49916">
        <ele>252</ele>
        <time>2017-04-15T07:24:17Z</time>
      </trkpt>
      <trkpt lat="43.31713" lon="-0.4991">
        <ele>251.52</ele>
        <time>2017-04-15T07:24:18Z</time>
      </trkpt>
      <trkpt lat="43.31716" lon="-0.49903">
        <ele>250.56</ele>
        <time>2017-04-15T07:24:19Z</time>
      </trkpt>
      <trkpt lat="43.31718" lon="-0.49895">
        <ele>249.6</ele>
        <time>2017-04-15T07:24:20Z</time>
      </trkpt>
      <trkpt lat="43.31719" lon="-0.49887">
        <ele>248.64</ele>
        <time>2017-04-15T07:24:21Z</time>
      </trkpt>
      <trkpt lat="43.31721" lon="-0.4988">
        <ele>248.16</ele>
        <time>2017-04-15T07:24:22Z</time>
      </trkpt>
      <trkpt lat="43.31722" lon="-0.49873">
        <ele>247.2</ele>
        <time>2017-04-15T07:24:23Z</time>
      </trkpt>
      <trkpt lat="43.31727" lon="-0.4985">
        <ele>244.31</ele>
        <time>2017-04-15T07:24:27Z</time>
      </trkpt>
      <trkpt lat="43.31735" lon="-0.49824">
        <ele>240.47</ele>
        <time>2017-04-15T07:24:32Z</time>
      </trkpt>
      <trkpt lat="43.31742" lon="-0.49806">
        <ele>238.54</ele>
        <time>2017-04-15T07:24:35Z</time>
      </trkpt>
      <trkpt lat="43.31744" lon="-0.49799">
        <ele>238.06</ele>
        <time>2017-04-15T07:24:36Z</time>
      </trkpt>
      <trkpt lat="43.31744" lon="-0.49791">
        <ele>237.58</ele>
        <time>2017-04-15T07:24:37Z</time>
      </trkpt>
      <trkpt lat="43.31744" lon="-0.49785">
        <ele>237.1</ele>
        <time>2017-04-15T07:24:38Z</time>
      </trkpt>
      <trkpt lat="43.31743" lon="-0.49781">
        <ele>236.62</ele>
        <time>2017-04-15T07:24:39Z</time>
      </trkpt>
      <trkpt lat="43.31741" lon="-0.49778">
        <ele>236.14</ele>
        <time>2017-04-15T07:24:40Z</time>
      </trkpt>
      <trkpt lat="43.31739" lon="-0.49775">
        <ele>235.66</ele>
        <time>2017-04-15T07:24:41Z</time>
      </trkpt>
      <trkpt lat="43.31726" lon="-0.49754">
        <ele>237.58</ele>
        <time>2017-04-15T07:24:55Z</time>
      </trkpt>
      <trkpt lat="43.31727" lon="-0.49749">
        <ele>239.02</ele>
        <time>2017-04-15T07:25:01Z</time>
      </trkpt>
      <trkpt lat="43.31723" lon="-0.49743">
        <ele>243.35</ele>
        <time>2017-04-15T07:25:10Z</time>
      </trkpt>
      <trkpt lat="43.31734" lon="-0.49739">
        <ele>244.31</ele>
        <time>2017-04-15T07:25:19Z</time>
      </trkpt>
      <trkpt lat="43.31752" lon="-0.49726">
        <ele>246.72</ele>
        <time>2017-04-15T07:25:29Z</time>
      </trkpt>
      <trkpt lat="43.31777" lon="-0.49715">
        <ele>248.16</ele>
        <time>2017-04-15T07:25:39Z</time>
      </trkpt>
      <trkpt lat="43.31786" lon="-0.49713">
        <ele>247.2</ele>
        <time>2017-04-15T07:25:41Z</time>
      </trkpt>
      <trkpt lat="43.318" lon="-0.49711">
        <ele>246.23</ele>
        <time>2017-04-15T07:25:44Z</time>
      </trkpt>
      <trkpt lat="43.31806" lon="-0.49711">
        <ele>246.23</ele>
        <time>2017-04-15T07:25:45Z</time>
      </trkpt>
      <trkpt lat="43.31811" lon="-0.4971">
        <ele>245.75</ele>
        <time>2017-04-15T07:25:46Z</time>
      </trkpt>
      <trkpt lat="43.31817" lon="-0.49708">
        <ele>245.75</ele>
        <time>2017-04-15T07:25:47Z</time>
      </trkpt>
      <trkpt lat="43.31822" lon="-0.49704">
        <ele>245.27</ele>
        <time>2017-04-15T07:25:48Z</time>
      </trkpt>
      <trkpt lat="43.31826" lon="-0.497">
        <ele>244.79</ele>
        <time>2017-04-15T07:25:49Z</time>
      </trkpt>
      <trkpt lat="43.31829" lon="-0.49697">
        <ele>244.31</ele>
        <time>2017-04-15T07:25:50Z</time>
      </trkpt>
      <trkpt lat="43.31833" lon="-0.49693">
        <ele>243.83</ele>
        <time>2017-04-15T07:25:51Z</time>
      </trkpt>
      <trkpt lat="43.31838" lon="-0.49682">
        <ele>242.39</ele>
        <time>2017-04-15T07:25:54Z</time>
      </trkpt>
      <trkpt lat="43.31839" lon="-0.49673">
        <ele>240.47</ele>
        <time>2017-04-15T07:25:58Z</time>
      </trkpt>
      <trkpt lat="43.31869" lon="-0.49652">
        <ele>239.02</ele>
        <time>2017-04-15T07:26:08Z</time>
      </trkpt>
      <trkpt lat="43.31874" lon="-0.49649">
        <ele>239.02</ele>
        <time>2017-04-15T07:26:09Z</time>
      </trkpt>
      <trkpt lat="43.31878" lon="-0.49646">
        <ele>239.51</ele>
        <time>2017-04-15T07:26:10Z</time>
      </trkpt>
      <trkpt lat="43.31882" lon="-0.49643">
        <ele>239.51</ele>
        <time>2017-04-15T07:26:11Z</time>
      </trkpt>
      <trkpt lat="43.31887" lon="-0.4964">
        <ele>239.02</ele>
        <time>2017-04-15T07:26:12Z</time>
      </trkpt>
      <trkpt lat="43.31892" lon="-0.49637">
        <ele>239.02</ele>
        <time>2017-04-15T07:26:13Z</time>
      </trkpt>
      <trkpt lat="43.31897" lon="-0.49634">
        <ele>239.02</ele>
        <time>2017-04-15T07:26:14Z</time>
      </trkpt>
      <trkpt lat="43.31907" lon="-0.49632">
        <ele>238.54</ele>
        <time>2017-04-15T07:26:16Z</time>
      </trkpt>
      <trkpt lat="43.31938" lon="-0.49612">
        <ele>238.06</ele>
        <time>2017-04-15T07:26:24Z</time>
      </trkpt>
      <trkpt lat="43.31939" lon="-0.49609">
        <ele>237.58</ele>
        <time>2017-04-15T07:26:25Z</time>
      </trkpt>
      <trkpt lat="43.3194" lon="-0.49605">
        <ele>237.58</ele>
        <time>2017-04-15T07:26:26Z</time>
      </trkpt>
      <trkpt lat="43.31928" lon="-0.4956">
        <ele>235.18</ele>
        <time>2017-04-15T07:26:36Z</time>
      </trkpt>
      <trkpt lat="43.31899" lon="-0.49531">
        <ele>235.18</ele>
        <time>2017-04-15T07:26:46Z</time>
      </trkpt>
      <trkpt lat="43.31871" lon="-0.49512">
        <ele>236.14</ele>
        <time>2017-04-15T07:26:55Z</time>
      </trkpt>
      <trkpt lat="43.31844" lon="-0.49493">
        <ele>237.1</ele>
        <time>2017-04-15T07:27:03Z</time>
      </trkpt>
      <trkpt lat="43.31814" lon="-0.49463">
        <ele>238.06</ele>
        <time>2017-04-15T07:27:14Z</time>
      </trkpt>
      <trkpt lat="43.31813" lon="-0.49458">
        <ele>237.58</ele>
        <time>2017-04-15T07:27:15Z</time>
      </trkpt>
      <trkpt lat="43.31813" lon="-0.49437">
        <ele>236.62</ele>
        <time>2017-04-15T07:27:18Z</time>
      </trkpt>
      <trkpt lat="43.31812" lon="-0.49413">
        <ele>235.18</ele>
        <time>2017-04-15T07:27:21Z</time>
      </trkpt>
      <trkpt lat="43.31811" lon="-0.49406">
        <ele>235.18</ele>
        <time>2017-04-15T07:27:22Z</time>
      </trkpt>
      <trkpt lat="43.31811" lon="-0.49403">
        <ele>234.7</ele>
        <time>2017-04-15T07:27:23Z</time>
      </trkpt>
      <trkpt lat="43.3181" lon="-0.494">
        <ele>234.7</ele>
        <time>2017-04-15T07:27:24Z</time>
      </trkpt>
      <trkpt lat="43.31809" lon="-0.49397">
        <ele>234.7</ele>
        <time>2017-04-15T07:27:25Z</time>
      </trkpt>
      <trkpt lat="43.31807" lon="-0.49395">
        <ele>234.7</ele>
        <time>2017-04-15T07:27:26Z</time>
      </trkpt>
      <trkpt lat="43.31801" lon="-0.49383">
        <ele>234.7</ele>
        <time>2017-04-15T07:27:31Z</time>
      </trkpt>
      <trkpt lat="43.31801" lon="-0.49378">
        <ele>234.7</ele>
        <time>2017-04-15T07:27:33Z</time>
      </trkpt>
      <trkpt lat="43.31805" lon="-0.49366">
        <ele>238.06</ele>
        <time>2017-04-15T07:27:45Z</time>
      </trkpt>
      <trkpt lat="43.31819" lon="-0.49344">
        <ele>242.39</ele>
        <time>2017-04-15T07:28:00Z</time>
      </trkpt>
      <trkpt lat="43.31831" lon="-0.4933">
        <ele>243.83</ele>
        <time>2017-04-15T07:28:15Z</time>
      </trkpt>
      <trkpt lat="43.31834" lon="-0.4933">
        <ele>243.83</ele>
        <time>2017-04-15T07:28:17Z</time>
      </trkpt>
      <trkpt lat="43.31848" lon="-0.49327">
        <ele>246.72</ele>
        <time>2017-04-15T07:28:29Z</time>
      </trkpt>
      <trkpt lat="43.31863" lon="-0.49323">
        <ele>248.16</ele>
        <time>2017-04-15T07:28:41Z</time>
      </trkpt>
      <trkpt lat="43.31889" lon="-0.49311">
        <ele>251.52</ele>
        <time>2017-04-15T07:28:58Z</time>
      </trkpt>
      <trkpt lat="43.31904" lon="-0.49305">
        <ele>252.96</ele>
        <time>2017-04-15T07:29:10Z</time>
      </trkpt>
      <trkpt lat="43.31916" lon="-0.49301">
        <ele>255.85</ele>
        <time>2017-04-15T07:29:21Z</time>
      </trkpt>
      <trkpt lat="43.31934" lon="-0.49301">
        <ele>258.25</ele>
        <time>2017-04-15T07:29:34Z</time>
      </trkpt>
      <trkpt lat="43.31953" lon="-0.49298">
        <ele>261.14</ele>
        <time>2017-04-15T07:29:48Z</time>
      </trkpt>
      <trkpt lat="43.31955" lon="-0.49298">
        <ele>261.14</ele>
        <time>2017-04-15T07:29:49Z</time>
      </trkpt>
      <trkpt lat="43.31968" lon="-0.49287">
        <ele>260.17</ele>
        <time>2017-04-15T07:29:59Z</time>
      </trkpt>
      <trkpt lat="43.31975" lon="-0.49271">
        <ele>261.14</ele>
        <time>2017-04-15T07:30:09Z</time>
      </trkpt>
      <trkpt lat="43.31972" lon="-0.49263">
        <ele>260.65</ele>
        <time>2017-04-15T07:30:14Z</time>
      </trkpt>
      <trkpt lat="43.31947" lon="-0.49251">
        <ele>262.1</ele>
        <time>2017-04-15T07:30:30Z</time>
      </trkpt>
      <trkpt lat="43.3192" lon="-0.49245">
        <ele>261.14</ele>
        <time>2017-04-15T07:30:43Z</time>
      </trkpt>
      <trkpt lat="43.31877" lon="-0.49243">
        <ele>258.73</ele>
        <time>2017-04-15T07:30:59Z</time>
      </trkpt>
      <trkpt lat="43.31812" lon="-0.49247">
        <ele>254.89</ele>
        <time>2017-04-15T07:31:12Z</time>
      </trkpt>
      <trkpt lat="43.31788" lon="-0.49244">
        <ele>253.44</ele>
        <time>2017-04-15T07:31:18Z</time>
      </trkpt>
      <trkpt lat="43.31785" lon="-0.49237">
        <ele>253.93</ele>
        <time>2017-04-15T07:31:22Z</time>
      </trkpt>
      <trkpt lat="43.31786" lon="-0.49232">
        <ele>254.41</ele>
        <time>2017-04-15T07:31:25Z</time>
      </trkpt>
      <trkpt lat="43.31777" lon="-0.49203">
        <ele>256.33</ele>
        <time>2017-04-15T07:31:39Z</time>
      </trkpt>
      <trkpt lat="43.31769" lon="-0.49193">
        <ele>254.89</ele>
        <time>2017-04-15T07:31:44Z</time>
      </trkpt>
      <trkpt lat="43.31771" lon="-0.49181">
        <ele>254.41</ele>
        <time>2017-04-15T07:31:49Z</time>
      </trkpt>
      <trkpt lat="43.31768" lon="-0.49159">
        <ele>252.48</ele>
        <time>2017-04-15T07:31:56Z</time>
      </trkpt>
      <trkpt lat="43.31757" lon="-0.49156">
        <ele>250.08</ele>
        <time>2017-04-15T07:32:02Z</time>
      </trkpt>
      <trkpt lat="43.31716" lon="-0.49167">
        <ele>243.83</ele>
        <time>2017-04-15T07:32:13Z</time>
      </trkpt>
      <trkpt lat="43.31681" lon="-0.4916">
        <ele>235.18</ele>
        <time>2017-04-15T07:32:23Z</time>
      </trkpt>
      <trkpt lat="43.31677" lon="-0.49159">
        <ele>234.22</ele>
        <time>2017-04-15T07:32:24Z</time>
      </trkpt>
      <trkpt lat="43.31659" lon="-0.49161">
        <ele>232.3</ele>
        <time>2017-04-15T07:32:34Z</time>
      </trkpt>
      <trkpt lat="43.3165" lon="-0.49141">
        <ele>231.81</ele>
        <time>2017-04-15T07:32:43Z</time>
      </trkpt>
      <trkpt lat="43.31623" lon="-0.49123">
        <ele>228.93</ele>
        <time>2017-04-15T07:32:53Z</time>
      </trkpt>
      <trkpt lat="43.3162" lon="-0.49122">
        <ele>228.93</ele>
        <time>2017-04-15T07:32:54Z</time>
      </trkpt>
      <trkpt lat="43.31617" lon="-0.49122">
        <ele>229.89</ele>
        <time>2017-04-15T07:32:56Z</time>
      </trkpt>
      <trkpt lat="43.31612" lon="-0.4912">
        <ele>230.37</ele>
        <time>2017-04-15T07:33:00Z</time>
      </trkpt>
      <trkpt lat="43.31609" lon="-0.49115">
        <ele>231.33</ele>
        <time>2017-04-15T07:33:04Z</time>
      </trkpt>
      <trkpt lat="43.31598" lon="-0.49113">
        <ele>233.74</ele>
        <time>2017-04-15T07:33:10Z</time>
      </trkpt>
      <trkpt lat="43.31592" lon="-0.49115">
        <ele>233.74</ele>
        <time>2017-04-15T07:33:13Z</time>
      </trkpt>
      <trkpt lat="43.31565" lon="-0.49134">
        <ele>231.81</ele>
        <time>2017-04-15T07:33:25Z</time>
      </trkpt>
      <trkpt lat="43.31533" lon="-0.49143">
        <ele>234.22</ele>
        <time>2017-04-15T07:33:36Z</time>
      </trkpt>
      <trkpt lat="43.31525" lon="-0.49143">
        <ele>235.66</ele>
        <time>2017-04-15T07:33:39Z</time>
      </trkpt>
      <trkpt lat="43.31504" lon="-0.49138">
        <ele>236.62</ele>
        <time>2017-04-15T07:33:51Z</time>
      </trkpt>
      <trkpt lat="43.31502" lon="-0.49138">
        <ele>237.58</ele>
        <time>2017-04-15T07:33:53Z</time>
      </trkpt>
      <trkpt lat="43.3148" lon="-0.49129">
        <ele>242.87</ele>
        <time>2017-04-15T07:34:08Z</time>
      </trkpt>
      <trkpt lat="43.31459" lon="-0.49135">
        <ele>246.23</ele>
        <time>2017-04-15T07:34:23Z</time>
      </trkpt>
      <trkpt lat="43.31452" lon="-0.49138">
        <ele>247.2</ele>
        <time>2017-04-15T07:34:30Z</time>
      </trkpt>
      <trkpt lat="43.31442" lon="-0.49147">
        <ele>248.16</ele>
        <time>2017-04-15T07:34:40Z</time>
      </trkpt>
      <trkpt lat="43.31434" lon="-0.49166">
        <ele>249.12</ele>
        <time>2017-04-15T07:34:54Z</time>
      </trkpt>
      <trkpt lat="43.31432" lon="-0.49176">
        <ele>251.04</ele>
        <time>2017-04-15T07:34:59Z</time>
      </trkpt>
      <trkpt lat="43.31421" lon="-0.49201">
        <ele>259.21</ele>
        <time>2017-04-15T07:35:12Z</time>
      </trkpt>
      <trkpt lat="43.31403" lon="-0.49212">
        <ele>262.1</ele>
        <time>2017-04-15T07:35:26Z</time>
      </trkpt>
      <trkpt lat="43.314" lon="-0.49212">
        <ele>261.62</ele>
        <time>2017-04-15T07:35:29Z</time>
      </trkpt>
      <trkpt lat="43.31388" lon="-0.49211">
        <ele>262.1</ele>
        <time>2017-04-15T07:35:39Z</time>
      </trkpt>
      <trkpt lat="43.3137" lon="-0.49216">
        <ele>263.06</ele>
        <time>2017-04-15T07:35:53Z</time>
      </trkpt>
      <trkpt lat="43.31366" lon="-0.49217">
        <ele>263.54</ele>
        <time>2017-04-15T07:35:56Z</time>
      </trkpt>
      <trkpt lat="43.31352" lon="-0.49218">
        <ele>265.94</ele>
        <time>2017-04-15T07:36:08Z</time>
      </trkpt>
      <trkpt lat="43.31339" lon="-0.49224">
        <ele>270.27</ele>
        <time>2017-04-15T07:36:20Z</time>
      </trkpt>
      <trkpt lat="43.3133" lon="-0.49228">
        <ele>272.67</ele>
        <time>2017-04-15T07:36:27Z</time>
      </trkpt>
      <trkpt lat="43.3132" lon="-0.49227">
        <ele>273.63</ele>
        <time>2017-04-15T07:36:34Z</time>
      </trkpt>
      <trkpt lat="43.31294" lon="-0.49209">
        <ele>272.67</ele>
        <time>2017-04-15T07:36:47Z</time>
      </trkpt>
      <trkpt lat="43.31268" lon="-0.49191">
        <ele>270.75</ele>
        <time>2017-04-15T07:36:53Z</time>
      </trkpt>
      <trkpt lat="43.31204" lon="-0.49139">
        <ele>266.9</ele>
        <time>2017-04-15T07:37:03Z</time>
      </trkpt>
      <trkpt lat="43.3118" lon="-0.49126">
        <ele>267.38</ele>
        <time>2017-04-15T07:37:08Z</time>
      </trkpt>
      <trkpt lat="43.31175" lon="-0.49125">
        <ele>266.9</ele>
        <time>2017-04-15T07:37:09Z</time>
      </trkpt>
      <trkpt lat="43.31129" lon="-0.49119">
        <ele>266.42</ele>
        <time>2017-04-15T07:37:18Z</time>
      </trkpt>
      <trkpt lat="43.31124" lon="-0.49118">
        <ele>266.42</ele>
        <time>2017-04-15T07:37:19Z</time>
      </trkpt>
      <trkpt lat="43.31119" lon="-0.49116">
        <ele>266.42</ele>
        <time>2017-04-15T07:37:20Z</time>
      </trkpt>
      <trkpt lat="43.31114" lon="-0.49114">
        <ele>266.42</ele>
        <time>2017-04-15T07:37:21Z</time>
      </trkpt>
      <trkpt lat="43.31109" lon="-0.49111">
        <ele>266.42</ele>
        <time>2017-04-15T07:37:22Z</time>
      </trkpt>
      <trkpt lat="43.31105" lon="-0.49108">
        <ele>266.42</ele>
        <time>2017-04-15T07:37:23Z</time>
      </trkpt>
      <trkpt lat="43.31101" lon="-0.49104">
        <ele>266.42</ele>
        <time>2017-04-15T07:37:24Z</time>
      </trkpt>
      <trkpt lat="43.31098" lon="-0.491">
        <ele>266.42</ele>
        <time>2017-04-15T07:37:25Z</time>
      </trkpt>
      <trkpt lat="43.3108" lon="-0.49074">
        <ele>269.79</ele>
        <time>2017-04-15T07:37:36Z</time>
      </trkpt>
      <trkpt lat="43.31063" lon="-0.49047">
        <ele>275.56</ele>
        <time>2017-04-15T07:37:51Z</time>
      </trkpt>
      <trkpt lat="43.31062" lon="-0.49046">
        <ele>275.56</ele>
        <time>2017-04-15T07:37:52Z</time>
      </trkpt>
      <trkpt lat="43.31061" lon="-0.49044">
        <ele>276.04</ele>
        <time>2017-04-15T07:37:53Z</time>
      </trkpt>
      <trkpt lat="43.3106" lon="-0.49042">
        <ele>276.04</ele>
        <time>2017-04-15T07:37:54Z</time>
      </trkpt>
      <trkpt lat="43.31059" lon="-0.49041">
        <ele>276.52</ele>
        <time>2017-04-15T07:37:55Z</time>
      </trkpt>
      <trkpt lat="43.31041" lon="-0.49018">
        <ele>279.4</ele>
        <time>2017-04-15T07:38:12Z</time>
      </trkpt>
      <trkpt lat="43.3102" lon="-0.49">
        <ele>280.84</ele>
        <time>2017-04-15T07:38:28Z</time>
      </trkpt>
      <trkpt lat="43.31018" lon="-0.48999">
        <ele>280.36</ele>
        <time>2017-04-15T07:38:29Z</time>
      </trkpt>
      <trkpt lat="43.31017" lon="-0.48999">
        <ele>280.84</ele>
        <time>2017-04-15T07:38:30Z</time>
      </trkpt>
      <trkpt lat="43.31015" lon="-0.48997">
        <ele>280.84</ele>
        <time>2017-04-15T07:38:31Z</time>
      </trkpt>
      <trkpt lat="43.31014" lon="-0.48996">
        <ele>281.32</ele>
        <time>2017-04-15T07:38:32Z</time>
      </trkpt>
      <trkpt lat="43.31013" lon="-0.48995">
        <ele>281.8</ele>
        <time>2017-04-15T07:38:33Z</time>
      </trkpt>
      <trkpt lat="43.3099" lon="-0.4898">
        <ele>286.61</ele>
        <time>2017-04-15T07:38:48Z</time>
      </trkpt>
      <trkpt lat="43.30973" lon="-0.4897">
        <ele>289.01</ele>
        <time>2017-04-15T07:39:00Z</time>
      </trkpt>
      <trkpt lat="43.30947" lon="-0.48952">
        <ele>289.97</ele>
        <time>2017-04-15T07:39:16Z</time>
      </trkpt>
      <trkpt lat="43.30918" lon="-0.4893">
        <ele>288.53</ele>
        <time>2017-04-15T07:39:29Z</time>
      </trkpt>
      <trkpt lat="43.30871" lon="-0.48913">
        <ele>283.73</ele>
        <time>2017-04-15T07:39:47Z</time>
      </trkpt>
      <trkpt lat="43.30807" lon="-0.48898">
        <ele>280.84</ele>
        <time>2017-04-15T07:40:02Z</time>
      </trkpt>
      <trkpt lat="43.30729" lon="-0.48882">
        <ele>277</ele>
        <time>2017-04-15T07:40:13Z</time>
      </trkpt>
      <trkpt lat="43.30715" lon="-0.48881">
        <ele>277</ele>
        <time>2017-04-15T07:40:15Z</time>
      </trkpt>
      <trkpt lat="43.30687" lon="-0.48881">
        <ele>277</ele>
        <time>2017-04-15T07:40:20Z</time>
      </trkpt>
      <trkpt lat="43.30652" lon="-0.48889">
        <ele>277.96</ele>
        <time>2017-04-15T07:40:31Z</time>
      </trkpt>
      <trkpt lat="43.3065" lon="-0.48892">
        <ele>277.96</ele>
        <time>2017-04-15T07:40:32Z</time>
      </trkpt>
      <trkpt lat="43.30649" lon="-0.48895">
        <ele>277.96</ele>
        <time>2017-04-15T07:40:33Z</time>
      </trkpt>
      <trkpt lat="43.30649" lon="-0.48899">
        <ele>277.96</ele>
        <time>2017-04-15T07:40:34Z</time>
      </trkpt>
      <trkpt lat="43.30647" lon="-0.48938">
        <ele>275.56</ele>
        <time>2017-04-15T07:40:41Z</time>
      </trkpt>
      <trkpt lat="43.30648" lon="-0.48965">
        <ele>272.67</ele>
        <time>2017-04-15T07:40:47Z</time>
      </trkpt>
      <trkpt lat="43.30649" lon="-0.48968">
        <ele>272.19</ele>
        <time>2017-04-15T07:40:48Z</time>
      </trkpt>
      <trkpt lat="43.30651" lon="-0.48971">
        <ele>271.23</ele>
        <time>2017-04-15T07:40:49Z</time>
      </trkpt>
      <trkpt lat="43.30653" lon="-0.48976">
        <ele>270.27</ele>
        <time>2017-04-15T07:40:50Z</time>
      </trkpt>
      <trkpt lat="43.30657" lon="-0.48982">
        <ele>269.31</ele>
        <time>2017-04-15T07:40:51Z</time>
      </trkpt>
      <trkpt lat="43.30661" lon="-0.48988">
        <ele>267.86</ele>
        <time>2017-04-15T07:40:52Z</time>
      </trkpt>
      <trkpt lat="43.30667" lon="-0.49002">
        <ele>265.94</ele>
        <time>2017-04-15T07:40:54Z</time>
      </trkpt>
      <trkpt lat="43.30669" lon="-0.49008">
        <ele>264.98</ele>
        <time>2017-04-15T07:40:55Z</time>
      </trkpt>
      <trkpt lat="43.3067" lon="-0.49014">
        <ele>263.54</ele>
        <time>2017-04-15T07:40:56Z</time>
      </trkpt>
      <trkpt lat="43.3067" lon="-0.4902">
        <ele>262.58</ele>
        <time>2017-04-15T07:40:57Z</time>
      </trkpt>
      <trkpt lat="43.30669" lon="-0.49026">
        <ele>261.62</ele>
        <time>2017-04-15T07:40:58Z</time>
      </trkpt>
      <trkpt lat="43.30668" lon="-0.49032">
        <ele>260.17</ele>
        <time>2017-04-15T07:40:59Z</time>
      </trkpt>
      <trkpt lat="43.30667" lon="-0.49039">
        <ele>259.21</ele>
        <time>2017-04-15T07:41:00Z</time>
      </trkpt>
      <trkpt lat="43.30659" lon="-0.49076">
        <ele>252.96</ele>
        <time>2017-04-15T07:41:06Z</time>
      </trkpt>
      <trkpt lat="43.30657" lon="-0.49079">
        <ele>252</ele>
        <time>2017-04-15T07:41:07Z</time>
      </trkpt>
      <trkpt lat="43.30654" lon="-0.49084">
        <ele>251.52</ele>
        <time>2017-04-15T07:41:08Z</time>
      </trkpt>
      <trkpt lat="43.30652" lon="-0.49086">
        <ele>250.56</ele>
        <time>2017-04-15T07:41:09Z</time>
      </trkpt>
      <trkpt lat="43.3065" lon="-0.4909">
        <ele>250.08</ele>
        <time>2017-04-15T07:41:10Z</time>
      </trkpt>
      <trkpt lat="43.30642" lon="-0.491">
        <ele>250.08</ele>
        <time>2017-04-15T07:41:13Z</time>
      </trkpt>
      <trkpt lat="43.30623" lon="-0.49106">
        <ele>247.2</ele>
        <time>2017-04-15T07:41:21Z</time>
      </trkpt>
      <trkpt lat="43.30621" lon="-0.49109">
        <ele>247.2</ele>
        <time>2017-04-15T07:41:22Z</time>
      </trkpt>
      <trkpt lat="43.30619" lon="-0.49112">
        <ele>246.23</ele>
        <time>2017-04-15T07:41:23Z</time>
      </trkpt>
      <trkpt lat="43.30617" lon="-0.49115">
        <ele>245.75</ele>
        <time>2017-04-15T07:41:24Z</time>
      </trkpt>
      <trkpt lat="43.30615" lon="-0.49119">
        <ele>245.27</ele>
        <time>2017-04-15T07:41:25Z</time>
      </trkpt>
      <trkpt lat="43.30614" lon="-0.49123">
        <ele>244.31</ele>
        <time>2017-04-15T07:41:26Z</time>
      </trkpt>
      <trkpt lat="43.30613" lon="-0.49128">
        <ele>243.35</ele>
        <time>2017-04-15T07:41:27Z</time>
      </trkpt>
      <trkpt lat="43.30611" lon="-0.49133">
        <ele>242.87</ele>
        <time>2017-04-15T07:41:28Z</time>
      </trkpt>
      <trkpt lat="43.3061" lon="-0.49137">
        <ele>241.91</ele>
        <time>2017-04-15T07:41:29Z</time>
      </trkpt>
      <trkpt lat="43.306" lon="-0.49158">
        <ele>237.1</ele>
        <time>2017-04-15T07:41:35Z</time>
      </trkpt>
      <trkpt lat="43.30575" lon="-0.49189">
        <ele>227.97</ele>
        <time>2017-04-15T07:41:45Z</time>
      </trkpt>
      <trkpt lat="43.30555" lon="-0.49216">
        <ele>217.88</ele>
        <time>2017-04-15T07:41:55Z</time>
      </trkpt>
      <trkpt lat="43.30546" lon="-0.49226">
        <ele>215.47</ele>
        <time>2017-04-15T07:41:59Z</time>
      </trkpt>
      <trkpt lat="43.30544" lon="-0.49227">
        <ele>214.99</ele>
        <time>2017-04-15T07:42:00Z</time>
      </trkpt>
      <trkpt lat="43.30536" lon="-0.49238">
        <ele>211.15</ele>
        <time>2017-04-15T07:42:11Z</time>
      </trkpt>
      <trkpt lat="43.30533" lon="-0.49247">
        <ele>215.47</ele>
        <time>2017-04-15T07:42:21Z</time>
      </trkpt>
      <trkpt lat="43.30532" lon="-0.4925">
        <ele>218.36</ele>
        <time>2017-04-15T07:42:30Z</time>
      </trkpt>
      <trkpt lat="43.30532" lon="-0.4926">
        <ele>222.68</ele>
        <time>2017-04-15T07:42:42Z</time>
      </trkpt>
      <trkpt lat="43.30532" lon="-0.49273">
        <ele>226.05</ele>
        <time>2017-04-15T07:42:54Z</time>
      </trkpt>
      <trkpt lat="43.30536" lon="-0.49281">
        <ele>227.01</ele>
        <time>2017-04-15T07:43:06Z</time>
      </trkpt>
      <trkpt lat="43.30538" lon="-0.49283">
        <ele>227.97</ele>
        <time>2017-04-15T07:43:09Z</time>
      </trkpt>
      <trkpt lat="43.30546" lon="-0.49293">
        <ele>229.89</ele>
        <time>2017-04-15T07:43:22Z</time>
      </trkpt>
      <trkpt lat="43.30548" lon="-0.49295">
        <ele>230.37</ele>
        <time>2017-04-15T07:43:24Z</time>
      </trkpt>
      <trkpt lat="43.30562" lon="-0.49301">
        <ele>231.33</ele>
        <time>2017-04-15T07:43:36Z</time>
      </trkpt>
      <trkpt lat="43.30565" lon="-0.49306">
        <ele>232.3</ele>
        <time>2017-04-15T07:43:40Z</time>
      </trkpt>
      <trkpt lat="43.30562" lon="-0.49308">
        <ele>233.26</ele>
        <time>2017-04-15T07:43:45Z</time>
      </trkpt>
      <trkpt lat="43.30561" lon="-0.49308">
        <ele>234.22</ele>
        <time>2017-04-15T07:43:46Z</time>
      </trkpt>
      <trkpt lat="43.3056" lon="-0.49308">
        <ele>234.7</ele>
        <time>2017-04-15T07:43:47Z</time>
      </trkpt>
      <trkpt lat="43.30546" lon="-0.49307">
        <ele>235.66</ele>
        <time>2017-04-15T07:44:00Z</time>
      </trkpt>
      <trkpt lat="43.30533" lon="-0.49305">
        <ele>237.58</ele>
        <time>2017-04-15T07:44:13Z</time>
      </trkpt>
      <trkpt lat="43.30518" lon="-0.49298">
        <ele>242.39</ele>
        <time>2017-04-15T07:44:27Z</time>
      </trkpt>
      <trkpt lat="43.30505" lon="-0.49293">
        <ele>242.39</ele>
        <time>2017-04-15T07:44:36Z</time>
      </trkpt>
      <trkpt lat="43.30502" lon="-0.49292">
        <ele>242.39</ele>
        <time>2017-04-15T07:44:38Z</time>
      </trkpt>
      <trkpt lat="43.30485" lon="-0.49286">
        <ele>242.87</ele>
        <time>2017-04-15T07:44:47Z</time>
      </trkpt>
      <trkpt lat="43.30483" lon="-0.49286">
        <ele>243.35</ele>
        <time>2017-04-15T07:44:48Z</time>
      </trkpt>
      <trkpt lat="43.30481" lon="-0.49287">
        <ele>243.83</ele>
        <time>2017-04-15T07:44:49Z</time>
      </trkpt>
      <trkpt lat="43.3048" lon="-0.49288">
        <ele>243.83</ele>
        <time>2017-04-15T07:44:50Z</time>
      </trkpt>
      <trkpt lat="43.30479" lon="-0.49289">
        <ele>243.83</ele>
        <time>2017-04-15T07:44:51Z</time>
      </trkpt>
      <trkpt lat="43.30478" lon="-0.49291">
        <ele>243.83</ele>
        <time>2017-04-15T07:44:52Z</time>
      </trkpt>
      <trkpt lat="43.30478" lon="-0.49293">
        <ele>243.83</ele>
        <time>2017-04-15T07:44:53Z</time>
      </trkpt>
      <trkpt lat="43.30471" lon="-0.49316">
        <ele>249.12</ele>
        <time>2017-04-15T07:45:08Z</time>
      </trkpt>
      <trkpt lat="43.30464" lon="-0.49342">
        <ele>256.33</ele>
        <time>2017-04-15T07:45:23Z</time>
      </trkpt>
      <trkpt lat="43.30462" lon="-0.49352">
        <ele>258.25</ele>
        <time>2017-04-15T07:45:28Z</time>
      </trkpt>
      <trkpt lat="43.30462" lon="-0.49354">
        <ele>258.25</ele>
        <time>2017-04-15T07:45:29Z</time>
      </trkpt>
      <trkpt lat="43.30454" lon="-0.49366">
        <ele>261.14</ele>
        <time>2017-04-15T07:45:40Z</time>
      </trkpt>
      <trkpt lat="43.30439" lon="-0.49375">
        <ele>262.58</ele>
        <time>2017-04-15T07:45:54Z</time>
      </trkpt>
      <trkpt lat="43.30438" lon="-0.49376">
        <ele>262.58</ele>
        <time>2017-04-15T07:45:55Z</time>
      </trkpt>
      <trkpt lat="43.30427" lon="-0.49379">
        <ele>264.02</ele>
        <time>2017-04-15T07:46:05Z</time>
      </trkpt>
      <trkpt lat="43.30413" lon="-0.49383">
        <ele>264.98</ele>
        <time>2017-04-15T07:46:19Z</time>
      </trkpt>
      <trkpt lat="43.30409" lon="-0.49384">
        <ele>264.5</ele>
        <time>2017-04-15T07:46:22Z</time>
      </trkpt>
      <trkpt lat="43.304" lon="-0.49387">
        <ele>265.94</ele>
        <time>2017-04-15T07:46:30Z</time>
      </trkpt>
      <trkpt lat="43.304" lon="-0.49389">
        <ele>265.94</ele>
        <time>2017-04-15T07:46:31Z</time>
      </trkpt>
      <trkpt lat="43.30399" lon="-0.49391">
        <ele>266.42</ele>
        <time>2017-04-15T07:46:32Z</time>
      </trkpt>
      <trkpt lat="43.304" lon="-0.49391">
        <ele>266.42</ele>
        <time>2017-04-15T07:46:33Z</time>
      </trkpt>
      <trkpt lat="43.30401" lon="-0.49393">
        <ele>266.42</ele>
        <time>2017-04-15T07:46:34Z</time>
      </trkpt>
      <trkpt lat="43.30409" lon="-0.49399">
        <ele>267.38</ele>
        <time>2017-04-15T07:46:42Z</time>
      </trkpt>
      <trkpt lat="43.30423" lon="-0.49409">
        <ele>267.86</ele>
        <time>2017-04-15T07:46:56Z</time>
      </trkpt>
      <trkpt lat="43.30439" lon="-0.49418">
        <ele>270.27</ele>
        <time>2017-04-15T07:47:10Z</time>
      </trkpt>
      <trkpt lat="43.30458" lon="-0.49432">
        <ele>271.71</ele>
        <time>2017-04-15T07:47:27Z</time>
      </trkpt>
      <trkpt lat="43.30475" lon="-0.49445">
        <ele>274.11</ele>
        <time>2017-04-15T07:47:41Z</time>
      </trkpt>
      <trkpt lat="43.30492" lon="-0.49469">
        <ele>275.56</ele>
        <time>2017-04-15T07:47:58Z</time>
      </trkpt>
      <trkpt lat="43.30493" lon="-0.4947">
        <ele>275.56</ele>
        <time>2017-04-15T07:47:59Z</time>
      </trkpt>
      <trkpt lat="43.30494" lon="-0.49472">
        <ele>275.56</ele>
        <time>2017-04-15T07:48:00Z</time>
      </trkpt>
      <trkpt lat="43.30505" lon="-0.4951">
        <ele>279.4</ele>
        <time>2017-04-15T07:48:19Z</time>
      </trkpt>
      <trkpt lat="43.30521" lon="-0.49574">
        <ele>277.48</ele>
        <time>2017-04-15T07:48:32Z</time>
      </trkpt>
      <trkpt lat="43.30558" lon="-0.49639">
        <ele>277.96</ele>
        <time>2017-04-15T07:48:45Z</time>
      </trkpt>
      <trkpt lat="43.30575" lon="-0.49691">
        <ele>276.04</ele>
        <time>2017-04-15T07:48:54Z</time>
      </trkpt>
      <trkpt lat="43.30576" lon="-0.49699">
        <ele>275.56</ele>
        <time>2017-04-15T07:48:55Z</time>
      </trkpt>
      <trkpt lat="43.30576" lon="-0.49707">
        <ele>275.07</ele>
        <time>2017-04-15T07:48:56Z</time>
      </trkpt>
      <trkpt lat="43.30576" lon="-0.49716">
        <ele>274.59</ele>
        <time>2017-04-15T07:48:57Z</time>
      </trkpt>
      <trkpt lat="43.30576" lon="-0.49725">
        <ele>274.11</ele>
        <time>2017-04-15T07:48:58Z</time>
      </trkpt>
      <trkpt lat="43.30573" lon="-0.49795">
        <ele>270.75</ele>
        <time>2017-04-15T07:49:05Z</time>
      </trkpt>
      <trkpt lat="43.30571" lon="-0.49804">
        <ele>270.27</ele>
        <time>2017-04-15T07:49:06Z</time>
      </trkpt>
      <trkpt lat="43.30569" lon="-0.49812">
        <ele>269.79</ele>
        <time>2017-04-15T07:49:07Z</time>
      </trkpt>
      <trkpt lat="43.30566" lon="-0.49821">
        <ele>269.31</ele>
        <time>2017-04-15T07:49:08Z</time>
      </trkpt>
      <trkpt lat="43.30562" lon="-0.49829">
        <ele>268.83</ele>
        <time>2017-04-15T07:49:09Z</time>
      </trkpt>
      <trkpt lat="43.30558" lon="-0.49838">
        <ele>267.86</ele>
        <time>2017-04-15T07:49:10Z</time>
      </trkpt>
      <trkpt lat="43.30534" lon="-0.49889">
        <ele>263.06</ele>
        <time>2017-04-15T07:49:15Z</time>
      </trkpt>
      <trkpt lat="43.30531" lon="-0.499">
        <ele>262.1</ele>
        <time>2017-04-15T07:49:16Z</time>
      </trkpt>
      <trkpt lat="43.30529" lon="-0.49913">
        <ele>260.65</ele>
        <time>2017-04-15T07:49:17Z</time>
      </trkpt>
      <trkpt lat="43.30528" lon="-0.49925">
        <ele>259.69</ele>
        <time>2017-04-15T07:49:18Z</time>
      </trkpt>
      <trkpt lat="43.30527" lon="-0.49939">
        <ele>258.73</ele>
        <time>2017-04-15T07:49:19Z</time>
      </trkpt>
      <trkpt lat="43.30525" lon="-0.49951">
        <ele>258.25</ele>
        <time>2017-04-15T07:49:20Z</time>
      </trkpt>
      <trkpt lat="43.30522" lon="-0.49971">
        <ele>256.81</ele>
        <time>2017-04-15T07:49:22Z</time>
      </trkpt>
      <trkpt lat="43.3052" lon="-0.49978">
        <ele>256.81</ele>
        <time>2017-04-15T07:49:23Z</time>
      </trkpt>
      <trkpt lat="43.30516" lon="-0.49985">
        <ele>256.33</ele>
        <time>2017-04-15T07:49:24Z</time>
      </trkpt>
      <trkpt lat="43.30515" lon="-0.49988">
        <ele>256.33</ele>
        <time>2017-04-15T07:49:25Z</time>
      </trkpt>
      <trkpt lat="43.30512" lon="-0.49991">
        <ele>256.33</ele>
        <time>2017-04-15T07:49:26Z</time>
      </trkpt>
      <trkpt lat="43.30502" lon="-0.50012">
        <ele>256.81</ele>
        <time>2017-04-15T07:49:32Z</time>
      </trkpt>
      <trkpt lat="43.30501" lon="-0.50018">
        <ele>256.81</ele>
        <time>2017-04-15T07:49:33Z</time>
      </trkpt>
      <trkpt lat="43.30501" lon="-0.50023">
        <ele>256.33</ele>
        <time>2017-04-15T07:49:34Z</time>
      </trkpt>
      <trkpt lat="43.30501" lon="-0.5003">
        <ele>256.33</ele>
        <time>2017-04-15T07:49:35Z</time>
      </trkpt>
      <trkpt lat="43.305" lon="-0.50037">
        <ele>256.33</ele>
        <time>2017-04-15T07:49:36Z</time>
      </trkpt>
      <trkpt lat="43.30499" lon="-0.5005">
        <ele>255.85</ele>
        <time>2017-04-15T07:49:38Z</time>
      </trkpt>
      <trkpt lat="43.30493" lon="-0.50097">
        <ele>250.56</ele>
        <time>2017-04-15T07:49:47Z</time>
      </trkpt>
      <trkpt lat="43.30489" lon="-0.50108">
        <ele>248.64</ele>
        <time>2017-04-15T07:49:49Z</time>
      </trkpt>
      <trkpt lat="43.30483" lon="-0.50119">
        <ele>247.2</ele>
        <time>2017-04-15T07:49:51Z</time>
      </trkpt>
      <trkpt lat="43.3048" lon="-0.50124">
        <ele>246.23</ele>
        <time>2017-04-15T07:49:52Z</time>
      </trkpt>
      <trkpt lat="43.30478" lon="-0.50129">
        <ele>245.27</ele>
        <time>2017-04-15T07:49:53Z</time>
      </trkpt>
      <trkpt lat="43.30475" lon="-0.50133">
        <ele>244.31</ele>
        <time>2017-04-15T07:49:54Z</time>
      </trkpt>
      <trkpt lat="43.30472" lon="-0.50138">
        <ele>243.35</ele>
        <time>2017-04-15T07:49:55Z</time>
      </trkpt>
      <trkpt lat="43.30468" lon="-0.50144">
        <ele>242.87</ele>
        <time>2017-04-15T07:49:56Z</time>
      </trkpt>
      <trkpt lat="43.30464" lon="-0.5015">
        <ele>241.91</ele>
        <time>2017-04-15T07:49:57Z</time>
      </trkpt>
      <trkpt lat="43.3046" lon="-0.50155">
        <ele>240.95</ele>
        <time>2017-04-15T07:49:58Z</time>
      </trkpt>
      <trkpt lat="43.3045" lon="-0.50166">
        <ele>239.02</ele>
        <time>2017-04-15T07:50:01Z</time>
      </trkpt>
      <trkpt lat="43.30448" lon="-0.50171">
        <ele>238.06</ele>
        <time>2017-04-15T07:50:02Z</time>
      </trkpt>
      <trkpt lat="43.30446" lon="-0.50177">
        <ele>237.1</ele>
        <time>2017-04-15T07:50:03Z</time>
      </trkpt>
      <trkpt lat="43.30445" lon="-0.50182">
        <ele>236.14</ele>
        <time>2017-04-15T07:50:04Z</time>
      </trkpt>
      <trkpt lat="43.30445" lon="-0.50186">
        <ele>235.66</ele>
        <time>2017-04-15T07:50:05Z</time>
      </trkpt>
      <trkpt lat="43.30444" lon="-0.50191">
        <ele>234.7</ele>
        <time>2017-04-15T07:50:06Z</time>
      </trkpt>
      <trkpt lat="43.30442" lon="-0.50195">
        <ele>233.74</ele>
        <time>2017-04-15T07:50:07Z</time>
      </trkpt>
      <trkpt lat="43.30441" lon="-0.50199">
        <ele>233.26</ele>
        <time>2017-04-15T07:50:08Z</time>
      </trkpt>
      <trkpt lat="43.30439" lon="-0.50202">
        <ele>232.78</ele>
        <time>2017-04-15T07:50:09Z</time>
      </trkpt>
      <trkpt lat="43.30438" lon="-0.50205">
        <ele>231.81</ele>
        <time>2017-04-15T07:50:10Z</time>
      </trkpt>
      <trkpt lat="43.30437" lon="-0.50209">
        <ele>231.33</ele>
        <time>2017-04-15T07:50:11Z</time>
      </trkpt>
      <trkpt lat="43.30434" lon="-0.5023">
        <ele>227.01</ele>
        <time>2017-04-15T07:50:16Z</time>
      </trkpt>
      <trkpt lat="43.30432" lon="-0.50234">
        <ele>226.05</ele>
        <time>2017-04-15T07:50:17Z</time>
      </trkpt>
      <trkpt lat="43.3043" lon="-0.50236">
        <ele>225.09</ele>
        <time>2017-04-15T07:50:18Z</time>
      </trkpt>
      <trkpt lat="43.30415" lon="-0.50247">
        <ele>221.72</ele>
        <time>2017-04-15T07:50:22Z</time>
      </trkpt>
      <trkpt lat="43.30411" lon="-0.50249">
        <ele>220.28</ele>
        <time>2017-04-15T07:50:23Z</time>
      </trkpt>
      <trkpt lat="43.30402" lon="-0.50251">
        <ele>217.88</ele>
        <time>2017-04-15T07:50:25Z</time>
      </trkpt>
      <trkpt lat="43.30398" lon="-0.50251">
        <ele>216.43</ele>
        <time>2017-04-15T07:50:26Z</time>
      </trkpt>
      <trkpt lat="43.30385" lon="-0.50254">
        <ele>212.11</ele>
        <time>2017-04-15T07:50:31Z</time>
      </trkpt>
      <trkpt lat="43.30382" lon="-0.50253">
        <ele>211.15</ele>
        <time>2017-04-15T07:50:32Z</time>
      </trkpt>
      <trkpt lat="43.30379" lon="-0.50252">
        <ele>210.19</ele>
        <time>2017-04-15T07:50:33Z</time>
      </trkpt>
      <trkpt lat="43.30375" lon="-0.50253">
        <ele>209.22</ele>
        <time>2017-04-15T07:50:34Z</time>
      </trkpt>
      <trkpt lat="43.30373" lon="-0.50255">
        <ele>209.7</ele>
        <time>2017-04-15T07:50:35Z</time>
      </trkpt>
      <trkpt lat="43.30372" lon="-0.50258">
        <ele>210.19</ele>
        <time>2017-04-15T07:50:36Z</time>
      </trkpt>
      <trkpt lat="43.30373" lon="-0.50261">
        <ele>210.19</ele>
        <time>2017-04-15T07:50:37Z</time>
      </trkpt>
      <trkpt lat="43.30374" lon="-0.50263">
        <ele>210.19</ele>
        <time>2017-04-15T07:50:38Z</time>
      </trkpt>
      <trkpt lat="43.30375" lon="-0.50264">
        <ele>210.19</ele>
        <time>2017-04-15T07:50:39Z</time>
      </trkpt>
      <trkpt lat="43.30377" lon="-0.50266">
        <ele>210.67</ele>
        <time>2017-04-15T07:50:40Z</time>
      </trkpt>
      <trkpt lat="43.3038" lon="-0.50269">
        <ele>210.67</ele>
        <time>2017-04-15T07:50:41Z</time>
      </trkpt>
      <trkpt lat="43.30383" lon="-0.50271">
        <ele>210.67</ele>
        <time>2017-04-15T07:50:42Z</time>
      </trkpt>
      <trkpt lat="43.30386" lon="-0.50274">
        <ele>210.67</ele>
        <time>2017-04-15T07:50:43Z</time>
      </trkpt>
      <trkpt lat="43.30398" lon="-0.50286">
        <ele>210.19</ele>
        <time>2017-04-15T07:50:46Z</time>
      </trkpt>
      <trkpt lat="43.30406" lon="-0.50296">
        <ele>210.19</ele>
        <time>2017-04-15T07:50:48Z</time>
      </trkpt>
      <trkpt lat="43.3041" lon="-0.50302">
        <ele>209.7</ele>
        <time>2017-04-15T07:50:49Z</time>
      </trkpt>
      <trkpt lat="43.30419" lon="-0.50314">
        <ele>209.22</ele>
        <time>2017-04-15T07:50:51Z</time>
      </trkpt>
      <trkpt lat="43.30425" lon="-0.5032">
        <ele>209.22</ele>
        <time>2017-04-15T07:50:52Z</time>
      </trkpt>
      <trkpt lat="43.3043" lon="-0.50324">
        <ele>208.74</ele>
        <time>2017-04-15T07:50:53Z</time>
      </trkpt>
      <trkpt lat="43.30436" lon="-0.5033">
        <ele>208.74</ele>
        <time>2017-04-15T07:50:54Z</time>
      </trkpt>
      <trkpt lat="43.30441" lon="-0.50337">
        <ele>208.26</ele>
        <time>2017-04-15T07:50:55Z</time>
      </trkpt>
      <trkpt lat="43.30445" lon="-0.50344">
        <ele>208.26</ele>
        <time>2017-04-15T07:50:56Z</time>
      </trkpt>
      <trkpt lat="43.3045" lon="-0.50352">
        <ele>207.78</ele>
        <time>2017-04-15T07:50:57Z</time>
      </trkpt>
      <trkpt lat="43.3052" lon="-0.50437">
        <ele>204.9</ele>
        <time>2017-04-15T07:51:09Z</time>
      </trkpt>
      <trkpt lat="43.30601" lon="-0.50519">
        <ele>199.61</ele>
        <time>2017-04-15T07:51:21Z</time>
      </trkpt>
      <trkpt lat="43.30641" lon="-0.50543">
        <ele>196.73</ele>
        <time>2017-04-15T07:51:26Z</time>
      </trkpt>
      <trkpt lat="43.30648" lon="-0.50549">
        <ele>196.25</ele>
        <time>2017-04-15T07:51:27Z</time>
      </trkpt>
      <trkpt lat="43.30743" lon="-0.50647">
        <ele>184.71</ele>
        <time>2017-04-15T07:51:39Z</time>
      </trkpt>
      <trkpt lat="43.30765" lon="-0.50659">
        <ele>181.83</ele>
        <time>2017-04-15T07:51:41Z</time>
      </trkpt>
      <trkpt lat="43.30856" lon="-0.50698">
        <ele>174.62</ele>
        <time>2017-04-15T07:51:50Z</time>
      </trkpt>
      <trkpt lat="43.30929" lon="-0.50768">
        <ele>172.21</ele>
        <time>2017-04-15T07:52:00Z</time>
      </trkpt>
      <trkpt lat="43.31011" lon="-0.50835">
        <ele>170.77</ele>
        <time>2017-04-15T07:52:11Z</time>
      </trkpt>
      <trkpt lat="43.31034" lon="-0.50854">
        <ele>170.77</ele>
        <time>2017-04-15T07:52:14Z</time>
      </trkpt>
      <trkpt lat="43.3104" lon="-0.50861">
        <ele>171.25</ele>
        <time>2017-04-15T07:52:15Z</time>
      </trkpt>
      <trkpt lat="43.31045" lon="-0.5087">
        <ele>171.25</ele>
        <time>2017-04-15T07:52:16Z</time>
      </trkpt>
      <trkpt lat="43.31049" lon="-0.50878">
        <ele>171.25</ele>
        <time>2017-04-15T07:52:17Z</time>
      </trkpt>
      <trkpt lat="43.31052" lon="-0.50886">
        <ele>171.73</ele>
        <time>2017-04-15T07:52:18Z</time>
      </trkpt>
      <trkpt lat="43.31063" lon="-0.50911">
        <ele>172.21</ele>
        <time>2017-04-15T07:52:21Z</time>
      </trkpt>
      <trkpt lat="43.31068" lon="-0.50918">
        <ele>172.21</ele>
        <time>2017-04-15T07:52:22Z</time>
      </trkpt>
      <trkpt lat="43.31141" lon="-0.51004">
        <ele>168.37</ele>
        <time>2017-04-15T07:52:33Z</time>
      </trkpt>
      <trkpt lat="43.31188" lon="-0.51082">
        <ele>166.45</ele>
        <time>2017-04-15T07:52:43Z</time>
      </trkpt>
      <trkpt lat="43.31194" lon="-0.51089">
        <ele>166.45</ele>
        <time>2017-04-15T07:52:44Z</time>
      </trkpt>
      <trkpt lat="43.31267" lon="-0.51154">
        <ele>162.12</ele>
        <time>2017-04-15T07:52:55Z</time>
      </trkpt>
      <trkpt lat="43.31279" lon="-0.51164">
        <ele>162.12</ele>
        <time>2017-04-15T07:52:57Z</time>
      </trkpt>
      <trkpt lat="43.31285" lon="-0.51168">
        <ele>161.64</ele>
        <time>2017-04-15T07:52:58Z</time>
      </trkpt>
      <trkpt lat="43.31338" lon="-0.51194">
        <ele>160.68</ele>
        <time>2017-04-15T07:53:05Z</time>
      </trkpt>
      <trkpt lat="43.3144" lon="-0.5122">
        <ele>161.16</ele>
        <time>2017-04-15T07:53:19Z</time>
      </trkpt>
      <trkpt lat="43.31504" lon="-0.51211">
        <ele>159.72</ele>
        <time>2017-04-15T07:53:27Z</time>
      </trkpt>
      <trkpt lat="43.31511" lon="-0.51212">
        <ele>159.72</ele>
        <time>2017-04-15T07:53:28Z</time>
      </trkpt>
      <trkpt lat="43.31517" lon="-0.51215">
        <ele>159.72</ele>
        <time>2017-04-15T07:53:29Z</time>
      </trkpt>
      <trkpt lat="43.31522" lon="-0.5122">
        <ele>159.72</ele>
        <time>2017-04-15T07:53:30Z</time>
      </trkpt>
      <trkpt lat="43.31526" lon="-0.51226">
        <ele>159.72</ele>
        <time>2017-04-15T07:53:31Z</time>
      </trkpt>
      <trkpt lat="43.3153" lon="-0.51234">
        <ele>159.24</ele>
        <time>2017-04-15T07:53:32Z</time>
      </trkpt>
      <trkpt lat="43.31534" lon="-0.51242">
        <ele>158.75</ele>
        <time>2017-04-15T07:53:33Z</time>
      </trkpt>
      <trkpt lat="43.31549" lon="-0.51278">
        <ele>156.83</ele>
        <time>2017-04-15T07:53:37Z</time>
      </trkpt>
      <trkpt lat="43.31589" lon="-0.51331">
        <ele>152.03</ele>
        <time>2017-04-15T07:53:43Z</time>
      </trkpt>
      <trkpt lat="43.31597" lon="-0.51339">
        <ele>151.06</ele>
        <time>2017-04-15T07:53:44Z</time>
      </trkpt>
      <trkpt lat="43.31689" lon="-0.51382">
        <ele>142.89</ele>
        <time>2017-04-15T07:53:54Z</time>
      </trkpt>
      <trkpt lat="43.31756" lon="-0.51398">
        <ele>140.01</ele>
        <time>2017-04-15T07:54:02Z</time>
      </trkpt>
      <trkpt lat="43.31762" lon="-0.51401">
        <ele>140.97</ele>
        <time>2017-04-15T07:54:03Z</time>
      </trkpt>
      <trkpt lat="43.31768" lon="-0.51404">
        <ele>141.45</ele>
        <time>2017-04-15T07:54:04Z</time>
      </trkpt>
      <trkpt lat="43.31775" lon="-0.51407">
        <ele>141.93</ele>
        <time>2017-04-15T07:54:05Z</time>
      </trkpt>
      <trkpt lat="43.31781" lon="-0.51411">
        <ele>142.41</ele>
        <time>2017-04-15T07:54:06Z</time>
      </trkpt>
      <trkpt lat="43.31827" lon="-0.51438">
        <ele>146.26</ele>
        <time>2017-04-15T07:54:15Z</time>
      </trkpt>
      <trkpt lat="43.31833" lon="-0.51439">
        <ele>146.26</ele>
        <time>2017-04-15T07:54:16Z</time>
      </trkpt>
      <trkpt lat="43.31839" lon="-0.51439">
        <ele>146.26</ele>
        <time>2017-04-15T07:54:17Z</time>
      </trkpt>
      <trkpt lat="43.31845" lon="-0.51437">
        <ele>145.78</ele>
        <time>2017-04-15T07:54:18Z</time>
      </trkpt>
      <trkpt lat="43.31851" lon="-0.51433">
        <ele>145.78</ele>
        <time>2017-04-15T07:54:19Z</time>
      </trkpt>
      <trkpt lat="43.31857" lon="-0.51428">
        <ele>145.3</ele>
        <time>2017-04-15T07:54:20Z</time>
      </trkpt>
      <trkpt lat="43.31863" lon="-0.51422">
        <ele>144.82</ele>
        <time>2017-04-15T07:54:21Z</time>
      </trkpt>
      <trkpt lat="43.31881" lon="-0.51399">
        <ele>142.89</ele>
        <time>2017-04-15T07:54:25Z</time>
      </trkpt>
      <trkpt lat="43.31893" lon="-0.51373">
        <ele>142.89</ele>
        <time>2017-04-15T07:54:30Z</time>
      </trkpt>
      <trkpt lat="43.31897" lon="-0.51369">
        <ele>142.89</ele>
        <time>2017-04-15T07:54:31Z</time>
      </trkpt>
      <trkpt lat="43.31901" lon="-0.51367">
        <ele>142.89</ele>
        <time>2017-04-15T07:54:32Z</time>
      </trkpt>
      <trkpt lat="43.31905" lon="-0.51367">
        <ele>142.41</ele>
        <time>2017-04-15T07:54:33Z</time>
      </trkpt>
      <trkpt lat="43.3191" lon="-0.5137">
        <ele>142.41</ele>
        <time>2017-04-15T07:54:34Z</time>
      </trkpt>
      <trkpt lat="43.31913" lon="-0.51375">
        <ele>141.93</ele>
        <time>2017-04-15T07:54:35Z</time>
      </trkpt>
      <trkpt lat="43.31917" lon="-0.51382">
        <ele>141.45</ele>
        <time>2017-04-15T07:54:36Z</time>
      </trkpt>
      <trkpt lat="43.31921" lon="-0.5139">
        <ele>140.97</ele>
        <time>2017-04-15T07:54:37Z</time>
      </trkpt>
      <trkpt lat="43.31925" lon="-0.51398">
        <ele>140.01</ele>
        <time>2017-04-15T07:54:38Z</time>
      </trkpt>
      <trkpt lat="43.3193" lon="-0.51404">
        <ele>140.01</ele>
        <time>2017-04-15T07:54:39Z</time>
      </trkpt>
      <trkpt lat="43.31936" lon="-0.51409">
        <ele>139.53</ele>
        <time>2017-04-15T07:54:40Z</time>
      </trkpt>
      <trkpt lat="43.31942" lon="-0.51413">
        <ele>139.05</ele>
        <time>2017-04-15T07:54:41Z</time>
      </trkpt>
      <trkpt lat="43.31949" lon="-0.51415">
        <ele>139.05</ele>
        <time>2017-04-15T07:54:42Z</time>
      </trkpt>
      <trkpt lat="43.31955" lon="-0.51417">
        <ele>139.53</ele>
        <time>2017-04-15T07:54:43Z</time>
      </trkpt>
      <trkpt lat="43.31961" lon="-0.5142">
        <ele>139.53</ele>
        <time>2017-04-15T07:54:44Z</time>
      </trkpt>
      <trkpt lat="43.31967" lon="-0.51423">
        <ele>139.53</ele>
        <time>2017-04-15T07:54:45Z</time>
      </trkpt>
      <trkpt lat="43.31976" lon="-0.51429">
        <ele>140.01</ele>
        <time>2017-04-15T07:54:47Z</time>
      </trkpt>
      <trkpt lat="43.31979" lon="-0.51433">
        <ele>140.01</ele>
        <time>2017-04-15T07:54:48Z</time>
      </trkpt>
      <trkpt lat="43.31983" lon="-0.51436">
        <ele>140.49</ele>
        <time>2017-04-15T07:54:49Z</time>
      </trkpt>
      <trkpt lat="43.31987" lon="-0.51438">
        <ele>140.97</ele>
        <time>2017-04-15T07:54:50Z</time>
      </trkpt>
      <trkpt lat="43.31991" lon="-0.5144">
        <ele>141.45</ele>
        <time>2017-04-15T07:54:51Z</time>
      </trkpt>
      <trkpt lat="43.31994" lon="-0.51441">
        <ele>141.93</ele>
        <time>2017-04-15T07:54:52Z</time>
      </trkpt>
      <trkpt lat="43.31998" lon="-0.51441">
        <ele>141.93</ele>
        <time>2017-04-15T07:54:53Z</time>
      </trkpt>
      <trkpt lat="43.32028" lon="-0.51455">
        <ele>147.22</ele>
        <time>2017-04-15T07:55:09Z</time>
      </trkpt>
      <trkpt lat="43.32049" lon="-0.51464">
        <ele>149.62</ele>
        <time>2017-04-15T07:55:24Z</time>
      </trkpt>
      <trkpt lat="43.32068" lon="-0.51472">
        <ele>152.51</ele>
        <time>2017-04-15T07:55:39Z</time>
      </trkpt>
      <trkpt lat="43.32086" lon="-0.51477">
        <ele>154.91</ele>
        <time>2017-04-15T07:55:52Z</time>
      </trkpt>
      <trkpt lat="43.32115" lon="-0.51485">
        <ele>157.31</ele>
        <time>2017-04-15T07:56:11Z</time>
      </trkpt>
      <trkpt lat="43.32136" lon="-0.51488">
        <ele>161.16</ele>
        <time>2017-04-15T07:56:27Z</time>
      </trkpt>
      <trkpt lat="43.32156" lon="-0.51487">
        <ele>164.04</ele>
        <time>2017-04-15T07:56:44Z</time>
      </trkpt>
      <trkpt lat="43.32171" lon="-0.51483">
        <ele>166.93</ele>
        <time>2017-04-15T07:56:58Z</time>
      </trkpt>
      <trkpt lat="43.32186" lon="-0.51478">
        <ele>171.25</ele>
        <time>2017-04-15T07:57:13Z</time>
      </trkpt>
      <trkpt lat="43.32198" lon="-0.51468">
        <ele>173.66</ele>
        <time>2017-04-15T07:57:25Z</time>
      </trkpt>
      <trkpt lat="43.32212" lon="-0.51451">
        <ele>177.98</ele>
        <time>2017-04-15T07:57:40Z</time>
      </trkpt>
      <trkpt lat="43.3222" lon="-0.51434">
        <ele>180.87</ele>
        <time>2017-04-15T07:57:54Z</time>
      </trkpt>
      <trkpt lat="43.32225" lon="-0.5142">
        <ele>181.83</ele>
        <time>2017-04-15T07:58:04Z</time>
      </trkpt>
      <trkpt lat="43.32235" lon="-0.51402">
        <ele>183.27</ele>
        <time>2017-04-15T07:58:19Z</time>
      </trkpt>
      <trkpt lat="43.32237" lon="-0.51401">
        <ele>184.23</ele>
        <time>2017-04-15T07:58:21Z</time>
      </trkpt>
      <trkpt lat="43.32248" lon="-0.51395">
        <ele>188.08</ele>
        <time>2017-04-15T07:58:32Z</time>
      </trkpt>
      <trkpt lat="43.32249" lon="-0.51394">
        <ele>188.08</ele>
        <time>2017-04-15T07:58:33Z</time>
      </trkpt>
      <trkpt lat="43.3225" lon="-0.51394">
        <ele>188.56</ele>
        <time>2017-04-15T07:58:34Z</time>
      </trkpt>
      <trkpt lat="43.32268" lon="-0.51386">
        <ele>191.92</ele>
        <time>2017-04-15T07:58:49Z</time>
      </trkpt>
      <trkpt lat="43.32286" lon="-0.51376">
        <ele>194.32</ele>
        <time>2017-04-15T07:59:05Z</time>
      </trkpt>
      <trkpt lat="43.32299" lon="-0.51365">
        <ele>196.25</ele>
        <time>2017-04-15T07:59:20Z</time>
      </trkpt>
      <trkpt lat="43.32301" lon="-0.51363">
        <ele>196.25</ele>
        <time>2017-04-15T07:59:22Z</time>
      </trkpt>
      <trkpt lat="43.32313" lon="-0.51352">
        <ele>196.25</ele>
        <time>2017-04-15T07:59:36Z</time>
      </trkpt>
      <trkpt lat="43.32326" lon="-0.51338">
        <ele>197.21</ele>
        <time>2017-04-15T07:59:51Z</time>
      </trkpt>
      <trkpt lat="43.32339" lon="-0.51328">
        <ele>200.09</ele>
        <time>2017-04-15T08:00:06Z</time>
      </trkpt>
      <trkpt lat="43.32353" lon="-0.51324">
        <ele>203.46</ele>
        <time>2017-04-15T08:00:21Z</time>
      </trkpt>
      <trkpt lat="43.32368" lon="-0.5132">
        <ele>207.3</ele>
        <time>2017-04-15T08:00:35Z</time>
      </trkpt>
      <trkpt lat="43.32385" lon="-0.51319">
        <ele>211.63</ele>
        <time>2017-04-15T08:00:50Z</time>
      </trkpt>
      <trkpt lat="43.32404" lon="-0.51325">
        <ele>214.51</ele>
        <time>2017-04-15T08:01:07Z</time>
      </trkpt>
      <trkpt lat="43.3241" lon="-0.51323">
        <ele>215.47</ele>
        <time>2017-04-15T08:01:13Z</time>
      </trkpt>
      <trkpt lat="43.32419" lon="-0.51309">
        <ele>216.43</ele>
        <time>2017-04-15T08:01:25Z</time>
      </trkpt>
      <trkpt lat="43.3242" lon="-0.51308">
        <ele>216.43</ele>
        <time>2017-04-15T08:01:26Z</time>
      </trkpt>
      <trkpt lat="43.32423" lon="-0.51292">
        <ele>217.4</ele>
        <time>2017-04-15T08:01:37Z</time>
      </trkpt>
      <trkpt lat="43.32423" lon="-0.51291">
        <ele>217.88</ele>
        <time>2017-04-15T08:01:38Z</time>
      </trkpt>
      <trkpt lat="43.32422" lon="-0.5127">
        <ele>219.32</ele>
        <time>2017-04-15T08:01:52Z</time>
      </trkpt>
      <trkpt lat="43.3242" lon="-0.51253">
        <ele>223.64</ele>
        <time>2017-04-15T08:02:04Z</time>
      </trkpt>
      <trkpt lat="43.32418" lon="-0.51229">
        <ele>226.53</ele>
        <time>2017-04-15T08:02:19Z</time>
      </trkpt>
      <trkpt lat="43.32413" lon="-0.51199">
        <ele>229.89</ele>
        <time>2017-04-15T08:02:36Z</time>
      </trkpt>
      <trkpt lat="43.32411" lon="-0.51174">
        <ele>232.78</ele>
        <time>2017-04-15T08:02:50Z</time>
      </trkpt>
      <trkpt lat="43.32411" lon="-0.5116">
        <ele>234.22</ele>
        <time>2017-04-15T08:02:58Z</time>
      </trkpt>
      <trkpt lat="43.3241" lon="-0.51134">
        <ele>239.99</ele>
        <time>2017-04-15T08:03:14Z</time>
      </trkpt>
      <trkpt lat="43.32411" lon="-0.51103">
        <ele>244.31</ele>
        <time>2017-04-15T08:03:32Z</time>
      </trkpt>
      <trkpt lat="43.32416" lon="-0.51078">
        <ele>247.2</ele>
        <time>2017-04-15T08:03:48Z</time>
      </trkpt>
      <trkpt lat="43.32425" lon="-0.5105">
        <ele>251.04</ele>
        <time>2017-04-15T08:04:07Z</time>
      </trkpt>
      <trkpt lat="43.32434" lon="-0.5103">
        <ele>255.37</ele>
        <time>2017-04-15T08:04:22Z</time>
      </trkpt>
      <trkpt lat="43.32438" lon="-0.51023">
        <ele>255.85</ele>
        <time>2017-04-15T08:04:28Z</time>
      </trkpt>
      <trkpt lat="43.32438" lon="-0.51021">
        <ele>255.85</ele>
        <time>2017-04-15T08:04:29Z</time>
      </trkpt>
      <trkpt lat="43.32439" lon="-0.51019">
        <ele>256.33</ele>
        <time>2017-04-15T08:04:30Z</time>
      </trkpt>
      <trkpt lat="43.32439" lon="-0.51018">
        <ele>256.33</ele>
        <time>2017-04-15T08:04:31Z</time>
      </trkpt>
      <trkpt lat="43.3244" lon="-0.51016">
        <ele>256.33</ele>
        <time>2017-04-15T08:04:32Z</time>
      </trkpt>
      <trkpt lat="43.3244" lon="-0.51015">
        <ele>256.81</ele>
        <time>2017-04-15T08:04:33Z</time>
      </trkpt>
      <trkpt lat="43.32441" lon="-0.51013">
        <ele>256.81</ele>
        <time>2017-04-15T08:04:34Z</time>
      </trkpt>
      <trkpt lat="43.32441" lon="-0.51011">
        <ele>257.29</ele>
        <time>2017-04-15T08:04:35Z</time>
      </trkpt>
      <trkpt lat="43.32451" lon="-0.50989">
        <ele>257.29</ele>
        <time>2017-04-15T08:04:48Z</time>
      </trkpt>
      <trkpt lat="43.32457" lon="-0.50975">
        <ele>257.29</ele>
        <time>2017-04-15T08:04:58Z</time>
      </trkpt>
      <trkpt lat="43.3246" lon="-0.50973">
        <ele>258.73</ele>
        <time>2017-04-15T08:05:00Z</time>
      </trkpt>
      <trkpt lat="43.32461" lon="-0.50973">
        <ele>259.69</ele>
        <time>2017-04-15T08:05:01Z</time>
      </trkpt>
      <trkpt lat="43.32462" lon="-0.50973">
        <ele>260.17</ele>
        <time>2017-04-15T08:05:02Z</time>
      </trkpt>
      <trkpt lat="43.32464" lon="-0.50974">
        <ele>260.65</ele>
        <time>2017-04-15T08:05:03Z</time>
      </trkpt>
      <trkpt lat="43.32465" lon="-0.50975">
        <ele>261.14</ele>
        <time>2017-04-15T08:05:04Z</time>
      </trkpt>
      <trkpt lat="43.32479" lon="-0.50996">
        <ele>264.98</ele>
        <time>2017-04-15T08:05:20Z</time>
      </trkpt>
      <trkpt lat="43.32488" lon="-0.51033">
        <ele>267.38</ele>
        <time>2017-04-15T08:05:38Z</time>
      </trkpt>
      <trkpt lat="43.32501" lon="-0.51081">
        <ele>264.02</ele>
        <time>2017-04-15T08:05:52Z</time>
      </trkpt>
      <trkpt lat="43.32535" lon="-0.51136">
        <ele>263.54</ele>
        <time>2017-04-15T08:06:07Z</time>
      </trkpt>
      <trkpt lat="43.32578" lon="-0.51188">
        <ele>262.58</ele>
        <time>2017-04-15T08:06:24Z</time>
      </trkpt>
      <trkpt lat="43.32631" lon="-0.51239">
        <ele>261.14</ele>
        <time>2017-04-15T08:06:40Z</time>
      </trkpt>
      <trkpt lat="43.32703" lon="-0.51299">
        <ele>257.29</ele>
        <time>2017-04-15T08:06:52Z</time>
      </trkpt>
      <trkpt lat="43.32783" lon="-0.51367">
        <ele>255.85</ele>
        <time>2017-04-15T08:07:05Z</time>
      </trkpt>
      <trkpt lat="43.3281" lon="-0.51397">
        <ele>257.77</ele>
        <time>2017-04-15T08:07:15Z</time>
      </trkpt>
      <trkpt lat="43.32842" lon="-0.5142">
        <ele>258.25</ele>
        <time>2017-04-15T08:07:30Z</time>
      </trkpt>
      <trkpt lat="43.32893" lon="-0.51439">
        <ele>259.21</ele>
        <time>2017-04-15T08:07:48Z</time>
      </trkpt>
      <trkpt lat="43.32925" lon="-0.51462">
        <ele>257.77</ele>
        <time>2017-04-15T08:07:58Z</time>
      </trkpt>
      <trkpt lat="43.3293" lon="-0.51467">
        <ele>257.29</ele>
        <time>2017-04-15T08:07:59Z</time>
      </trkpt>
      <trkpt lat="43.32934" lon="-0.51472">
        <ele>256.81</ele>
        <time>2017-04-15T08:08:00Z</time>
      </trkpt>
      <trkpt lat="43.32994" lon="-0.5155">
        <ele>251.52</ele>
        <time>2017-04-15T08:08:11Z</time>
      </trkpt>
      <trkpt lat="43.3304" lon="-0.51604">
        <ele>247.68</ele>
        <time>2017-04-15T08:08:18Z</time>
      </trkpt>
      <trkpt lat="43.33077" lon="-0.5164">
        <ele>243.83</ele>
        <time>2017-04-15T08:08:26Z</time>
      </trkpt>
      <trkpt lat="43.33104" lon="-0.51678">
        <ele>237.58</ele>
        <time>2017-04-15T08:08:35Z</time>
      </trkpt>
      <trkpt lat="43.33109" lon="-0.51683">
        <ele>236.62</ele>
        <time>2017-04-15T08:08:36Z</time>
      </trkpt>
      <trkpt lat="43.33131" lon="-0.51704">
        <ele>228.93</ele>
        <time>2017-04-15T08:08:43Z</time>
      </trkpt>
      <trkpt lat="43.33132" lon="-0.51709">
        <ele>227.97</ele>
        <time>2017-04-15T08:08:44Z</time>
      </trkpt>
      <trkpt lat="43.33134" lon="-0.51715">
        <ele>227.01</ele>
        <time>2017-04-15T08:08:45Z</time>
      </trkpt>
      <trkpt lat="43.33137" lon="-0.51721">
        <ele>226.05</ele>
        <time>2017-04-15T08:08:46Z</time>
      </trkpt>
      <trkpt lat="43.3314" lon="-0.51724">
        <ele>225.57</ele>
        <time>2017-04-15T08:08:47Z</time>
      </trkpt>
      <trkpt lat="43.33143" lon="-0.51726">
        <ele>225.09</ele>
        <time>2017-04-15T08:08:48Z</time>
      </trkpt>
      <trkpt lat="43.33144" lon="-0.51727">
        <ele>224.61</ele>
        <time>2017-04-15T08:08:49Z</time>
      </trkpt>
      <trkpt lat="43.33158" lon="-0.51735">
        <ele>227.97</ele>
        <time>2017-04-15T08:09:00Z</time>
      </trkpt>
      <trkpt lat="43.3318" lon="-0.51748">
        <ele>236.14</ele>
        <time>2017-04-15T08:09:16Z</time>
      </trkpt>
      <trkpt lat="43.33189" lon="-0.51755">
        <ele>238.54</ele>
        <time>2017-04-15T08:09:23Z</time>
      </trkpt>
      <trkpt lat="43.3321" lon="-0.51773">
        <ele>244.31</ele>
        <time>2017-04-15T08:09:38Z</time>
      </trkpt>
      <trkpt lat="43.33231" lon="-0.51803">
        <ele>244.79</ele>
        <time>2017-04-15T08:09:51Z</time>
      </trkpt>
      <trkpt lat="43.33247" lon="-0.51854">
        <ele>243.35</ele>
        <time>2017-04-15T08:10:03Z</time>
      </trkpt>
      <trkpt lat="43.3326" lon="-0.51898">
        <ele>241.91</ele>
        <time>2017-04-15T08:10:13Z</time>
      </trkpt>
      <trkpt lat="43.33266" lon="-0.51934">
        <ele>242.39</ele>
        <time>2017-04-15T08:10:21Z</time>
      </trkpt>
      <trkpt lat="43.33267" lon="-0.51938">
        <ele>241.91</ele>
        <time>2017-04-15T08:10:22Z</time>
      </trkpt>
      <trkpt lat="43.3327" lon="-0.51942">
        <ele>241.43</ele>
        <time>2017-04-15T08:10:23Z</time>
      </trkpt>
      <trkpt lat="43.33273" lon="-0.51954">
        <ele>241.43</ele>
        <time>2017-04-15T08:10:25Z</time>
      </trkpt>
      <trkpt lat="43.33273" lon="-0.5196">
        <ele>241.43</ele>
        <time>2017-04-15T08:10:26Z</time>
      </trkpt>
      <trkpt lat="43.33273" lon="-0.51965">
        <ele>241.91</ele>
        <time>2017-04-15T08:10:27Z</time>
      </trkpt>
      <trkpt lat="43.33273" lon="-0.51969">
        <ele>241.91</ele>
        <time>2017-04-15T08:10:28Z</time>
      </trkpt>
      <trkpt lat="43.33274" lon="-0.51974">
        <ele>241.43</ele>
        <time>2017-04-15T08:10:29Z</time>
      </trkpt>
      <trkpt lat="43.33275" lon="-0.51978">
        <ele>240.95</ele>
        <time>2017-04-15T08:10:30Z</time>
      </trkpt>
      <trkpt lat="43.33276" lon="-0.51983">
        <ele>240.95</ele>
        <time>2017-04-15T08:10:31Z</time>
      </trkpt>
      <trkpt lat="43.33276" lon="-0.51989">
        <ele>240.95</ele>
        <time>2017-04-15T08:10:32Z</time>
      </trkpt>
      <trkpt lat="43.33276" lon="-0.51994">
        <ele>240.95</ele>
        <time>2017-04-15T08:10:33Z</time>
      </trkpt>
      <trkpt lat="43.33277" lon="-0.51999">
        <ele>241.43</ele>
        <time>2017-04-15T08:10:34Z</time>
      </trkpt>
      <trkpt lat="43.33277" lon="-0.52003">
        <ele>241.43</ele>
        <time>2017-04-15T08:10:35Z</time>
      </trkpt>
      <trkpt lat="43.33278" lon="-0.52008">
        <ele>241.91</ele>
        <time>2017-04-15T08:10:36Z</time>
      </trkpt>
      <trkpt lat="43.33278" lon="-0.52013">
        <ele>241.91</ele>
        <time>2017-04-15T08:10:37Z</time>
      </trkpt>
      <trkpt lat="43.33279" lon="-0.52061">
        <ele>246.23</ele>
        <time>2017-04-15T08:10:48Z</time>
      </trkpt>
      <trkpt lat="43.3328" lon="-0.52066">
        <ele>246.72</ele>
        <time>2017-04-15T08:10:49Z</time>
      </trkpt>
      <trkpt lat="43.3328" lon="-0.5207">
        <ele>246.72</ele>
        <time>2017-04-15T08:10:50Z</time>
      </trkpt>
      <trkpt lat="43.3328" lon="-0.52074">
        <ele>247.2</ele>
        <time>2017-04-15T08:10:51Z</time>
      </trkpt>
      <trkpt lat="43.33279" lon="-0.52078">
        <ele>247.68</ele>
        <time>2017-04-15T08:10:52Z</time>
      </trkpt>
      <trkpt lat="43.33279" lon="-0.52082">
        <ele>247.68</ele>
        <time>2017-04-15T08:10:53Z</time>
      </trkpt>
      <trkpt lat="43.33277" lon="-0.52135">
        <ele>249.6</ele>
        <time>2017-04-15T08:11:05Z</time>
      </trkpt>
      <trkpt lat="43.33288" lon="-0.52203">
        <ele>248.64</ele>
        <time>2017-04-15T08:11:19Z</time>
      </trkpt>
      <trkpt lat="43.3329" lon="-0.5221">
        <ele>248.16</ele>
        <time>2017-04-15T08:11:20Z</time>
      </trkpt>
      <trkpt lat="43.33321" lon="-0.52306">
        <ele>240.47</ele>
        <time>2017-04-15T08:11:31Z</time>
      </trkpt>
      <trkpt lat="43.33356" lon="-0.52412">
        <ele>228.93</ele>
        <time>2017-04-15T08:11:40Z</time>
      </trkpt>
      <trkpt lat="43.33358" lon="-0.52419">
        <ele>227.49</ele>
        <time>2017-04-15T08:11:42Z</time>
      </trkpt>
      <trkpt lat="43.33354" lon="-0.52418">
        <ele>225.57</ele>
        <time>2017-04-15T08:11:57Z</time>
      </trkpt>
      <trkpt lat="43.33354" lon="-0.52419">
        <ele>221.72</ele>
        <time>2017-04-15T08:12:38Z</time>
      </trkpt>
      <trkpt lat="43.3335" lon="-0.52424">
        <ele>228.93</ele>
        <time>2017-04-15T08:13:28Z</time>
      </trkpt>
      <trkpt lat="43.33353" lon="-0.52419">
        <ele>224.61</ele>
        <time>2017-04-15T08:14:09Z</time>
      </trkpt>
      <trkpt lat="43.33353" lon="-0.52419">
        <ele>221.72</ele>
        <time>2017-04-15T08:14:40Z</time>
      </trkpt>
      <trkpt lat="43.33357" lon="-0.52418">
        <ele>218.84</ele>
        <time>2017-04-15T08:15:03Z</time>
      </trkpt>
      <trkpt lat="43.33357" lon="-0.52421">
        <ele>221.72</ele>
        <time>2017-04-15T08:15:34Z</time>
      </trkpt>
      <trkpt lat="43.33359" lon="-0.52419">
        <ele>222.68</ele>
        <time>2017-04-15T08:16:06Z</time>
      </trkpt>
      <trkpt lat="43.33356" lon="-0.5242">
        <ele>224.12</ele>
        <time>2017-04-15T08:16:36Z</time>
      </trkpt>
      <trkpt lat="43.33353" lon="-0.52419">
        <ele>230.85</ele>
        <time>2017-04-15T08:17:10Z</time>
      </trkpt>
      <trkpt lat="43.33354" lon="-0.52418">
        <ele>231.33</ele>
        <time>2017-04-15T08:17:31Z</time>
      </trkpt>
      <trkpt lat="43.33356" lon="-0.52418">
        <ele>231.33</ele>
        <time>2017-04-15T08:17:50Z</time>
      </trkpt>
      <trkpt lat="43.33358" lon="-0.52412">
        <ele>231.81</ele>
        <time>2017-04-15T08:18:00Z</time>
      </trkpt>
      <trkpt lat="43.3336" lon="-0.52411">
        <ele>231.81</ele>
        <time>2017-04-15T08:18:01Z</time>
      </trkpt>
      <trkpt lat="43.33362" lon="-0.52409">
        <ele>231.33</ele>
        <time>2017-04-15T08:18:02Z</time>
      </trkpt>
      <trkpt lat="43.33385" lon="-0.52362">
        <ele>218.36</ele>
        <time>2017-04-15T08:18:17Z</time>
      </trkpt>
      <trkpt lat="43.33389" lon="-0.52345">
        <ele>215.47</ele>
        <time>2017-04-15T08:18:20Z</time>
      </trkpt>
      <trkpt lat="43.33393" lon="-0.52268">
        <ele>210.19</ele>
        <time>2017-04-15T08:18:29Z</time>
      </trkpt>
      <trkpt lat="43.33393" lon="-0.52258">
        <ele>210.19</ele>
        <time>2017-04-15T08:18:30Z</time>
      </trkpt>
      <trkpt lat="43.33392" lon="-0.52249">
        <ele>209.7</ele>
        <time>2017-04-15T08:18:31Z</time>
      </trkpt>
      <trkpt lat="43.33389" lon="-0.52214">
        <ele>208.74</ele>
        <time>2017-04-15T08:18:35Z</time>
      </trkpt>
      <trkpt lat="43.3339" lon="-0.52206">
        <ele>208.74</ele>
        <time>2017-04-15T08:18:36Z</time>
      </trkpt>
      <trkpt lat="43.3339" lon="-0.52199">
        <ele>209.22</ele>
        <time>2017-04-15T08:18:37Z</time>
      </trkpt>
      <trkpt lat="43.33385" lon="-0.52128">
        <ele>210.19</ele>
        <time>2017-04-15T08:18:50Z</time>
      </trkpt>
      <trkpt lat="43.33381" lon="-0.52065">
        <ele>213.07</ele>
        <time>2017-04-15T08:19:04Z</time>
      </trkpt>
      <trkpt lat="43.33371" lon="-0.52022">
        <ele>212.59</ele>
        <time>2017-04-15T08:19:16Z</time>
      </trkpt>
      <trkpt lat="43.33365" lon="-0.51966">
        <ele>211.15</ele>
        <time>2017-04-15T08:19:28Z</time>
      </trkpt>
      <trkpt lat="43.33368" lon="-0.51951">
        <ele>210.67</ele>
        <time>2017-04-15T08:19:30Z</time>
      </trkpt>
      <trkpt lat="43.33375" lon="-0.519">
        <ele>208.74</ele>
        <time>2017-04-15T08:19:37Z</time>
      </trkpt>
      <trkpt lat="43.33375" lon="-0.51892">
        <ele>208.74</ele>
        <time>2017-04-15T08:19:38Z</time>
      </trkpt>
      <trkpt lat="43.33375" lon="-0.51884">
        <ele>208.26</ele>
        <time>2017-04-15T08:19:39Z</time>
      </trkpt>
      <trkpt lat="43.33373" lon="-0.51876">
        <ele>207.3</ele>
        <time>2017-04-15T08:19:40Z</time>
      </trkpt>
      <trkpt lat="43.33371" lon="-0.51869">
        <ele>206.82</ele>
        <time>2017-04-15T08:19:41Z</time>
      </trkpt>
      <trkpt lat="43.33356" lon="-0.51813">
        <ele>202.01</ele>
        <time>2017-04-15T08:19:51Z</time>
      </trkpt>
      <trkpt lat="43.33333" lon="-0.51762">
        <ele>202.01</ele>
        <time>2017-04-15T08:20:02Z</time>
      </trkpt>
      <trkpt lat="43.333" lon="-0.5172">
        <ele>208.26</ele>
        <time>2017-04-15T08:20:15Z</time>
      </trkpt>
      <trkpt lat="43.33265" lon="-0.51694">
        <ele>207.3</ele>
        <time>2017-04-15T08:20:27Z</time>
      </trkpt>
      <trkpt lat="43.33251" lon="-0.51681">
        <ele>206.82</ele>
        <time>2017-04-15T08:20:31Z</time>
      </trkpt>
      <trkpt lat="43.33217" lon="-0.51656">
        <ele>209.22</ele>
        <time>2017-04-15T08:20:41Z</time>
      </trkpt>
      <trkpt lat="43.33216" lon="-0.51653">
        <ele>209.22</ele>
        <time>2017-04-15T08:20:42Z</time>
      </trkpt>
      <trkpt lat="43.33216" lon="-0.5165">
        <ele>209.22</ele>
        <time>2017-04-15T08:20:43Z</time>
      </trkpt>
      <trkpt lat="43.33216" lon="-0.51648">
        <ele>209.22</ele>
        <time>2017-04-15T08:20:44Z</time>
      </trkpt>
      <trkpt lat="43.33218" lon="-0.51646">
        <ele>208.74</ele>
        <time>2017-04-15T08:20:45Z</time>
      </trkpt>
      <trkpt lat="43.3322" lon="-0.51644">
        <ele>208.74</ele>
        <time>2017-04-15T08:20:46Z</time>
      </trkpt>
      <trkpt lat="43.33223" lon="-0.51641">
        <ele>209.22</ele>
        <time>2017-04-15T08:20:47Z</time>
      </trkpt>
      <trkpt lat="43.33226" lon="-0.51637">
        <ele>209.22</ele>
        <time>2017-04-15T08:20:48Z</time>
      </trkpt>
      <trkpt lat="43.3323" lon="-0.51633">
        <ele>208.74</ele>
        <time>2017-04-15T08:20:49Z</time>
      </trkpt>
      <trkpt lat="43.33239" lon="-0.51624">
        <ele>208.26</ele>
        <time>2017-04-15T08:20:51Z</time>
      </trkpt>
      <trkpt lat="43.33261" lon="-0.51602">
        <ele>205.86</ele>
        <time>2017-04-15T08:20:56Z</time>
      </trkpt>
      <trkpt lat="43.3327" lon="-0.51591">
        <ele>204.9</ele>
        <time>2017-04-15T08:20:58Z</time>
      </trkpt>
      <trkpt lat="43.33275" lon="-0.51585">
        <ele>204.42</ele>
        <time>2017-04-15T08:20:59Z</time>
      </trkpt>
      <trkpt lat="43.33281" lon="-0.5158">
        <ele>203.46</ele>
        <time>2017-04-15T08:21:00Z</time>
      </trkpt>
      <trkpt lat="43.33299" lon="-0.51569">
        <ele>201.53</ele>
        <time>2017-04-15T08:21:03Z</time>
      </trkpt>
      <trkpt lat="43.33305" lon="-0.51568">
        <ele>200.57</ele>
        <time>2017-04-15T08:21:04Z</time>
      </trkpt>
      <trkpt lat="43.33312" lon="-0.51569">
        <ele>200.09</ele>
        <time>2017-04-15T08:21:05Z</time>
      </trkpt>
      <trkpt lat="43.33386" lon="-0.5159">
        <ele>195.28</ele>
        <time>2017-04-15T08:21:13Z</time>
      </trkpt>
      <trkpt lat="43.33412" lon="-0.51597">
        <ele>193.84</ele>
        <time>2017-04-15T08:21:16Z</time>
      </trkpt>
      <trkpt lat="43.3342" lon="-0.51598">
        <ele>193.84</ele>
        <time>2017-04-15T08:21:17Z</time>
      </trkpt>
      <trkpt lat="43.33446" lon="-0.51599">
        <ele>197.21</ele>
        <time>2017-04-15T08:21:25Z</time>
      </trkpt>
      <trkpt lat="43.33468" lon="-0.5161">
        <ele>205.38</ele>
        <time>2017-04-15T08:21:39Z</time>
      </trkpt>
      <trkpt lat="43.33487" lon="-0.51625">
        <ele>213.07</ele>
        <time>2017-04-15T08:21:53Z</time>
      </trkpt>
      <trkpt lat="43.33495" lon="-0.5163">
        <ele>213.07</ele>
        <time>2017-04-15T08:21:59Z</time>
      </trkpt>
      <trkpt lat="43.33496" lon="-0.51631">
        <ele>213.07</ele>
        <time>2017-04-15T08:22:00Z</time>
      </trkpt>
      <trkpt lat="43.33498" lon="-0.51632">
        <ele>212.59</ele>
        <time>2017-04-15T08:22:01Z</time>
      </trkpt>
      <trkpt lat="43.33499" lon="-0.51633">
        <ele>212.59</ele>
        <time>2017-04-15T08:22:02Z</time>
      </trkpt>
      <trkpt lat="43.335" lon="-0.51633">
        <ele>212.59</ele>
        <time>2017-04-15T08:22:03Z</time>
      </trkpt>
      <trkpt lat="43.33501" lon="-0.51634">
        <ele>212.59</ele>
        <time>2017-04-15T08:22:04Z</time>
      </trkpt>
      <trkpt lat="43.33503" lon="-0.51634">
        <ele>212.59</ele>
        <time>2017-04-15T08:22:05Z</time>
      </trkpt>
      <trkpt lat="43.33504" lon="-0.51635">
        <ele>212.59</ele>
        <time>2017-04-15T08:22:06Z</time>
      </trkpt>
      <trkpt lat="43.33505" lon="-0.51636">
        <ele>213.07</ele>
        <time>2017-04-15T08:22:07Z</time>
      </trkpt>
      <trkpt lat="43.33507" lon="-0.51637">
        <ele>213.07</ele>
        <time>2017-04-15T08:22:08Z</time>
      </trkpt>
      <trkpt lat="43.33508" lon="-0.51637">
        <ele>213.55</ele>
        <time>2017-04-15T08:22:09Z</time>
      </trkpt>
      <trkpt lat="43.33536" lon="-0.51642">
        <ele>219.8</ele>
        <time>2017-04-15T08:22:25Z</time>
      </trkpt>
      <trkpt lat="43.33558" lon="-0.5165">
        <ele>216.43</ele>
        <time>2017-04-15T08:22:39Z</time>
      </trkpt>
      <trkpt lat="43.33568" lon="-0.51653">
        <ele>214.99</ele>
        <time>2017-04-15T08:22:45Z</time>
      </trkpt>
      <trkpt lat="43.33569" lon="-0.51653">
        <ele>214.99</ele>
        <time>2017-04-15T08:22:46Z</time>
      </trkpt>
      <trkpt lat="43.33571" lon="-0.51653">
        <ele>214.51</ele>
        <time>2017-04-15T08:22:47Z</time>
      </trkpt>
      <trkpt lat="43.33572" lon="-0.51653">
        <ele>214.51</ele>
        <time>2017-04-15T08:22:48Z</time>
      </trkpt>
      <trkpt lat="43.33573" lon="-0.51653">
        <ele>214.51</ele>
        <time>2017-04-15T08:22:49Z</time>
      </trkpt>
      <trkpt lat="43.33575" lon="-0.51654">
        <ele>214.51</ele>
        <time>2017-04-15T08:22:50Z</time>
      </trkpt>
      <trkpt lat="43.33576" lon="-0.51654">
        <ele>214.51</ele>
        <time>2017-04-15T08:22:51Z</time>
      </trkpt>
      <trkpt lat="43.33578" lon="-0.51654">
        <ele>214.51</ele>
        <time>2017-04-15T08:22:52Z</time>
      </trkpt>
      <trkpt lat="43.33595" lon="-0.51663">
        <ele>212.11</ele>
        <time>2017-04-15T08:23:07Z</time>
      </trkpt>
      <trkpt lat="43.3362" lon="-0.51685">
        <ele>211.15</ele>
        <time>2017-04-15T08:23:18Z</time>
      </trkpt>
      <trkpt lat="43.33644" lon="-0.51699">
        <ele>211.15</ele>
        <time>2017-04-15T08:23:31Z</time>
      </trkpt>
      <trkpt lat="43.33654" lon="-0.51704">
        <ele>210.67</ele>
        <time>2017-04-15T08:23:36Z</time>
      </trkpt>
      <trkpt lat="43.33656" lon="-0.51704">
        <ele>210.67</ele>
        <time>2017-04-15T08:23:37Z</time>
      </trkpt>
      <trkpt lat="43.33658" lon="-0.51706">
        <ele>210.67</ele>
        <time>2017-04-15T08:23:38Z</time>
      </trkpt>
      <trkpt lat="43.33691" lon="-0.51737">
        <ele>209.7</ele>
        <time>2017-04-15T08:23:53Z</time>
      </trkpt>
      <trkpt lat="43.33723" lon="-0.51775">
        <ele>206.82</ele>
        <time>2017-04-15T08:24:07Z</time>
      </trkpt>
      <trkpt lat="43.33755" lon="-0.51812">
        <ele>207.78</ele>
        <time>2017-04-15T08:24:22Z</time>
      </trkpt>
      <trkpt lat="43.33774" lon="-0.51844">
        <ele>208.74</ele>
        <time>2017-04-15T08:24:32Z</time>
      </trkpt>
      <trkpt lat="43.33807" lon="-0.51908">
        <ele>211.63</ele>
        <time>2017-04-15T08:24:47Z</time>
      </trkpt>
      <trkpt lat="43.33812" lon="-0.51922">
        <ele>212.11</ele>
        <time>2017-04-15T08:24:50Z</time>
      </trkpt>
      <trkpt lat="43.33813" lon="-0.51928">
        <ele>211.63</ele>
        <time>2017-04-15T08:24:51Z</time>
      </trkpt>
      <trkpt lat="43.33814" lon="-0.51934">
        <ele>211.63</ele>
        <time>2017-04-15T08:24:52Z</time>
      </trkpt>
      <trkpt lat="43.3382" lon="-0.51992">
        <ele>211.15</ele>
        <time>2017-04-15T08:25:03Z</time>
      </trkpt>
      <trkpt lat="43.33821" lon="-0.52003">
        <ele>211.15</ele>
        <time>2017-04-15T08:25:05Z</time>
      </trkpt>
      <trkpt lat="43.33822" lon="-0.52008">
        <ele>211.15</ele>
        <time>2017-04-15T08:25:06Z</time>
      </trkpt>
      <trkpt lat="43.33824" lon="-0.52015">
        <ele>211.15</ele>
        <time>2017-04-15T08:25:07Z</time>
      </trkpt>
      <trkpt lat="43.33827" lon="-0.52021">
        <ele>211.15</ele>
        <time>2017-04-15T08:25:08Z</time>
      </trkpt>
      <trkpt lat="43.33829" lon="-0.52027">
        <ele>210.67</ele>
        <time>2017-04-15T08:25:09Z</time>
      </trkpt>
      <trkpt lat="43.33833" lon="-0.52032">
        <ele>210.19</ele>
        <time>2017-04-15T08:25:10Z</time>
      </trkpt>
      <trkpt lat="43.33836" lon="-0.52038">
        <ele>209.7</ele>
        <time>2017-04-15T08:25:11Z</time>
      </trkpt>
      <trkpt lat="43.3384" lon="-0.52043">
        <ele>209.7</ele>
        <time>2017-04-15T08:25:12Z</time>
      </trkpt>
      <trkpt lat="43.33854" lon="-0.52062">
        <ele>208.26</ele>
        <time>2017-04-15T08:25:16Z</time>
      </trkpt>
      <trkpt lat="43.33892" lon="-0.52112">
        <ele>208.74</ele>
        <time>2017-04-15T08:25:29Z</time>
      </trkpt>
      <trkpt lat="43.33935" lon="-0.52149">
        <ele>211.15</ele>
        <time>2017-04-15T08:25:42Z</time>
      </trkpt>
      <trkpt lat="43.3394" lon="-0.52151">
        <ele>210.67</ele>
        <time>2017-04-15T08:25:43Z</time>
      </trkpt>
      <trkpt lat="43.33995" lon="-0.52164">
        <ele>207.3</ele>
        <time>2017-04-15T08:25:54Z</time>
      </trkpt>
      <trkpt lat="43.34008" lon="-0.52178">
        <ele>205.86</ele>
        <time>2017-04-15T08:26:07Z</time>
      </trkpt>
      <trkpt lat="43.34013" lon="-0.52191">
        <ele>204.42</ele>
        <time>2017-04-15T08:26:17Z</time>
      </trkpt>
      <trkpt lat="43.34013" lon="-0.52197">
        <ele>204.9</ele>
        <time>2017-04-15T08:26:40Z</time>
      </trkpt>
      <trkpt lat="43.34025" lon="-0.52228">
        <ele>202.01</ele>
        <time>2017-04-15T08:26:51Z</time>
      </trkpt>
      <trkpt lat="43.34038" lon="-0.52259">
        <ele>200.57</ele>
        <time>2017-04-15T08:26:55Z</time>
      </trkpt>
      <trkpt lat="43.34041" lon="-0.52264">
        <ele>200.09</ele>
        <time>2017-04-15T08:26:56Z</time>
      </trkpt>
      <trkpt lat="43.34045" lon="-0.5227">
        <ele>199.61</ele>
        <time>2017-04-15T08:26:57Z</time>
      </trkpt>
      <trkpt lat="43.34049" lon="-0.52274">
        <ele>199.13</ele>
        <time>2017-04-15T08:26:58Z</time>
      </trkpt>
      <trkpt lat="43.34053" lon="-0.52278">
        <ele>198.65</ele>
        <time>2017-04-15T08:26:59Z</time>
      </trkpt>
      <trkpt lat="43.3406" lon="-0.52286">
        <ele>198.17</ele>
        <time>2017-04-15T08:27:01Z</time>
      </trkpt>
      <trkpt lat="43.34063" lon="-0.5229">
        <ele>197.69</ele>
        <time>2017-04-15T08:27:02Z</time>
      </trkpt>
      <trkpt lat="43.34083" lon="-0.52333">
        <ele>197.21</ele>
        <time>2017-04-15T08:27:13Z</time>
      </trkpt>
      <trkpt lat="43.34092" lon="-0.52363">
        <ele>195.77</ele>
        <time>2017-04-15T08:27:19Z</time>
      </trkpt>
      <trkpt lat="43.34094" lon="-0.52368">
        <ele>195.28</ele>
        <time>2017-04-15T08:27:20Z</time>
      </trkpt>
      <trkpt lat="43.3412" lon="-0.52436">
        <ele>192.88</ele>
        <time>2017-04-15T08:27:33Z</time>
      </trkpt>
      <trkpt lat="43.34125" lon="-0.52448">
        <ele>192.4</ele>
        <time>2017-04-15T08:27:35Z</time>
      </trkpt>
      <trkpt lat="43.34127" lon="-0.52454">
        <ele>192.4</ele>
        <time>2017-04-15T08:27:36Z</time>
      </trkpt>
      <trkpt lat="43.34129" lon="-0.5246">
        <ele>192.4</ele>
        <time>2017-04-15T08:27:37Z</time>
      </trkpt>
      <trkpt lat="43.34141" lon="-0.52492">
        <ele>190.96</ele>
        <time>2017-04-15T08:27:42Z</time>
      </trkpt>
      <trkpt lat="43.34149" lon="-0.52543">
        <ele>193.84</ele>
        <time>2017-04-15T08:27:52Z</time>
      </trkpt>
      <trkpt lat="43.34145" lon="-0.52549">
        <ele>194.32</ele>
        <time>2017-04-15T08:27:53Z</time>
      </trkpt>
      <trkpt lat="43.34102" lon="-0.52591">
        <ele>198.17</ele>
        <time>2017-04-15T08:28:03Z</time>
      </trkpt>
      <trkpt lat="43.34062" lon="-0.52614">
        <ele>203.94</ele>
        <time>2017-04-15T08:28:14Z</time>
      </trkpt>
      <trkpt lat="43.34019" lon="-0.52654">
        <ele>206.34</ele>
        <time>2017-04-15T08:28:27Z</time>
      </trkpt>
      <trkpt lat="43.34001" lon="-0.52698">
        <ele>204.9</ele>
        <time>2017-04-15T08:28:37Z</time>
      </trkpt>
      <trkpt lat="43.33974" lon="-0.52774">
        <ele>203.94</ele>
        <time>2017-04-15T08:28:52Z</time>
      </trkpt>
      <trkpt lat="43.33972" lon="-0.5278">
        <ele>203.46</ele>
        <time>2017-04-15T08:28:53Z</time>
      </trkpt>
      <trkpt lat="43.33968" lon="-0.52794">
        <ele>202.49</ele>
        <time>2017-04-15T08:28:55Z</time>
      </trkpt>
      <trkpt lat="43.33947" lon="-0.52907">
        <ele>196.25</ele>
        <time>2017-04-15T08:29:07Z</time>
      </trkpt>
      <trkpt lat="43.33943" lon="-0.52953">
        <ele>195.28</ele>
        <time>2017-04-15T08:29:12Z</time>
      </trkpt>
      <trkpt lat="43.33943" lon="-0.52962">
        <ele>195.28</ele>
        <time>2017-04-15T08:29:13Z</time>
      </trkpt>
      <trkpt lat="43.33947" lon="-0.53007">
        <ele>195.28</ele>
        <time>2017-04-15T08:29:19Z</time>
      </trkpt>
      <trkpt lat="43.33951" lon="-0.53033">
        <ele>195.77</ele>
        <time>2017-04-15T08:29:23Z</time>
      </trkpt>
      <trkpt lat="43.33957" lon="-0.53102">
        <ele>194.8</ele>
        <time>2017-04-15T08:29:35Z</time>
      </trkpt>
      <trkpt lat="43.33979" lon="-0.53151">
        <ele>198.17</ele>
        <time>2017-04-15T08:29:47Z</time>
      </trkpt>
      <trkpt lat="43.3399" lon="-0.53165">
        <ele>200.09</ele>
        <time>2017-04-15T08:29:54Z</time>
      </trkpt>
      <trkpt lat="43.3399" lon="-0.53169">
        <ele>200.09</ele>
        <time>2017-04-15T08:29:55Z</time>
      </trkpt>
      <trkpt lat="43.33989" lon="-0.53172">
        <ele>200.09</ele>
        <time>2017-04-15T08:29:56Z</time>
      </trkpt>
      <trkpt lat="43.33989" lon="-0.53177">
        <ele>200.09</ele>
        <time>2017-04-15T08:29:57Z</time>
      </trkpt>
      <trkpt lat="43.33968" lon="-0.5321">
        <ele>197.21</ele>
        <time>2017-04-15T08:30:06Z</time>
      </trkpt>
      <trkpt lat="43.33956" lon="-0.53216">
        <ele>194.32</ele>
        <time>2017-04-15T08:30:10Z</time>
      </trkpt>
      <trkpt lat="43.33949" lon="-0.53218">
        <ele>191.44</ele>
        <time>2017-04-15T08:30:13Z</time>
      </trkpt>
      <trkpt lat="43.33934" lon="-0.53215">
        <ele>186.15</ele>
        <time>2017-04-15T08:30:19Z</time>
      </trkpt>
      <trkpt lat="43.33926" lon="-0.53214">
        <ele>182.79</ele>
        <time>2017-04-15T08:30:22Z</time>
      </trkpt>
      <trkpt lat="43.3392" lon="-0.53213">
        <ele>180.87</ele>
        <time>2017-04-15T08:30:24Z</time>
      </trkpt>
      <trkpt lat="43.33906" lon="-0.5319">
        <ele>175.58</ele>
        <time>2017-04-15T08:30:31Z</time>
      </trkpt>
      <trkpt lat="43.33895" lon="-0.53193">
        <ele>175.58</ele>
        <time>2017-04-15T08:30:36Z</time>
      </trkpt>
      <trkpt lat="43.33866" lon="-0.53194">
        <ele>176.06</ele>
        <time>2017-04-15T08:30:44Z</time>
      </trkpt>
      <trkpt lat="43.33845" lon="-0.5318">
        <ele>180.87</ele>
        <time>2017-04-15T08:30:51Z</time>
      </trkpt>
      <trkpt lat="43.33842" lon="-0.53169">
        <ele>181.83</ele>
        <time>2017-04-15T08:30:54Z</time>
      </trkpt>
      <trkpt lat="43.33821" lon="-0.53162">
        <ele>183.75</ele>
        <time>2017-04-15T08:31:01Z</time>
      </trkpt>
      <trkpt lat="43.33808" lon="-0.53152">
        <ele>185.19</ele>
        <time>2017-04-15T08:31:07Z</time>
      </trkpt>
      <trkpt lat="43.338" lon="-0.53153">
        <ele>185.19</ele>
        <time>2017-04-15T08:31:09Z</time>
      </trkpt>
      <trkpt lat="43.33767" lon="-0.53151">
        <ele>185.19</ele>
        <time>2017-04-15T08:31:17Z</time>
      </trkpt>
      <trkpt lat="43.33751" lon="-0.53166">
        <ele>184.71</ele>
        <time>2017-04-15T08:31:22Z</time>
      </trkpt>
      <trkpt lat="43.33712" lon="-0.53138">
        <ele>182.31</ele>
        <time>2017-04-15T08:31:31Z</time>
      </trkpt>
      <trkpt lat="43.33684" lon="-0.53127">
        <ele>178.46</ele>
        <time>2017-04-15T08:31:37Z</time>
      </trkpt>
      <trkpt lat="43.33647" lon="-0.53158">
        <ele>172.21</ele>
        <time>2017-04-15T08:31:46Z</time>
      </trkpt>
      <trkpt lat="43.33637" lon="-0.53158">
        <ele>169.33</ele>
        <time>2017-04-15T08:31:48Z</time>
      </trkpt>
      <trkpt lat="43.33627" lon="-0.53158">
        <ele>167.89</ele>
        <time>2017-04-15T08:31:50Z</time>
      </trkpt>
      <trkpt lat="43.33604" lon="-0.53177">
        <ele>163.08</ele>
        <time>2017-04-15T08:31:57Z</time>
      </trkpt>
      <trkpt lat="43.3359" lon="-0.53173">
        <ele>162.12</ele>
        <time>2017-04-15T08:32:00Z</time>
      </trkpt>
      <trkpt lat="43.33567" lon="-0.53169">
        <ele>159.24</ele>
        <time>2017-04-15T08:32:05Z</time>
      </trkpt>
      <trkpt lat="43.33527" lon="-0.53203">
        <ele>152.99</ele>
        <time>2017-04-15T08:32:15Z</time>
      </trkpt>
      <trkpt lat="43.33509" lon="-0.53212">
        <ele>152.03</ele>
        <time>2017-04-15T08:32:19Z</time>
      </trkpt>
      <trkpt lat="43.33495" lon="-0.53219">
        <ele>151.06</ele>
        <time>2017-04-15T08:32:23Z</time>
      </trkpt>
      <trkpt lat="43.33494" lon="-0.53221">
        <ele>151.06</ele>
        <time>2017-04-15T08:32:24Z</time>
      </trkpt>
      <trkpt lat="43.33493" lon="-0.53224">
        <ele>150.58</ele>
        <time>2017-04-15T08:32:25Z</time>
      </trkpt>
      <trkpt lat="43.33493" lon="-0.53227">
        <ele>149.62</ele>
        <time>2017-04-15T08:32:27Z</time>
      </trkpt>
      <trkpt lat="43.33493" lon="-0.53228">
        <ele>149.62</ele>
        <time>2017-04-15T08:32:28Z</time>
      </trkpt>
      <trkpt lat="43.33494" lon="-0.53228">
        <ele>149.14</ele>
        <time>2017-04-15T08:32:29Z</time>
      </trkpt>
      <trkpt lat="43.33495" lon="-0.53227">
        <ele>149.14</ele>
        <time>2017-04-15T08:32:30Z</time>
      </trkpt>
      <trkpt lat="43.33495" lon="-0.53226">
        <ele>148.66</ele>
        <time>2017-04-15T08:32:31Z</time>
      </trkpt>
      <trkpt lat="43.33497" lon="-0.53226">
        <ele>148.66</ele>
        <time>2017-04-15T08:32:32Z</time>
      </trkpt>
      <trkpt lat="43.33516" lon="-0.53229">
        <ele>148.66</ele>
        <time>2017-04-15T08:32:47Z</time>
      </trkpt>
      <trkpt lat="43.33534" lon="-0.53232">
        <ele>152.51</ele>
        <time>2017-04-15T08:33:00Z</time>
      </trkpt>
      <trkpt lat="43.33554" lon="-0.53235">
        <ele>150.58</ele>
        <time>2017-04-15T08:33:14Z</time>
      </trkpt>
      <trkpt lat="43.33555" lon="-0.53235">
        <ele>150.1</ele>
        <time>2017-04-15T08:33:15Z</time>
      </trkpt>
      <trkpt lat="43.33563" lon="-0.53236">
        <ele>150.58</ele>
        <time>2017-04-15T08:33:20Z</time>
      </trkpt>
      <trkpt lat="43.33582" lon="-0.53241">
        <ele>157.31</ele>
        <time>2017-04-15T08:33:33Z</time>
      </trkpt>
      <trkpt lat="43.33595" lon="-0.53241">
        <ele>159.72</ele>
        <time>2017-04-15T08:33:42Z</time>
      </trkpt>
      <trkpt lat="43.33596" lon="-0.53241">
        <ele>159.24</ele>
        <time>2017-04-15T08:33:43Z</time>
      </trkpt>
      <trkpt lat="43.33606" lon="-0.53242">
        <ele>159.72</ele>
        <time>2017-04-15T08:33:50Z</time>
      </trkpt>
      <trkpt lat="43.33625" lon="-0.53248">
        <ele>164.52</ele>
        <time>2017-04-15T08:34:04Z</time>
      </trkpt>
      <trkpt lat="43.33628" lon="-0.5325">
        <ele>165.48</ele>
        <time>2017-04-15T08:34:07Z</time>
      </trkpt>
      <trkpt lat="43.33648" lon="-0.53261">
        <ele>166.93</ele>
        <time>2017-04-15T08:34:20Z</time>
      </trkpt>
      <trkpt lat="43.3367" lon="-0.53277">
        <ele>163.08</ele>
        <time>2017-04-15T08:34:35Z</time>
      </trkpt>
      <trkpt lat="43.33689" lon="-0.53296">
        <ele>158.27</ele>
        <time>2017-04-15T08:34:50Z</time>
      </trkpt>
      <trkpt lat="43.3371" lon="-0.53311">
        <ele>161.16</ele>
        <time>2017-04-15T08:35:05Z</time>
      </trkpt>
      <trkpt lat="43.33733" lon="-0.53306">
        <ele>165.96</ele>
        <time>2017-04-15T08:35:22Z</time>
      </trkpt>
      <trkpt lat="43.33758" lon="-0.53304">
        <ele>169.33</ele>
        <time>2017-04-15T08:35:39Z</time>
      </trkpt>
      <trkpt lat="43.33775" lon="-0.53309">
        <ele>172.21</ele>
        <time>2017-04-15T08:35:53Z</time>
      </trkpt>
      <trkpt lat="43.33797" lon="-0.53307">
        <ele>176.54</ele>
        <time>2017-04-15T08:36:07Z</time>
      </trkpt>
      <trkpt lat="43.3382" lon="-0.53304">
        <ele>179.9</ele>
        <time>2017-04-15T08:36:22Z</time>
      </trkpt>
      <trkpt lat="43.33842" lon="-0.53306">
        <ele>183.27</ele>
        <time>2017-04-15T08:36:39Z</time>
      </trkpt>
      <trkpt lat="43.33864" lon="-0.53307">
        <ele>186.15</ele>
        <time>2017-04-15T08:36:54Z</time>
      </trkpt>
      <trkpt lat="43.3388" lon="-0.53309">
        <ele>188.56</ele>
        <time>2017-04-15T08:37:04Z</time>
      </trkpt>
      <trkpt lat="43.33882" lon="-0.53308">
        <ele>188.08</ele>
        <time>2017-04-15T08:37:05Z</time>
      </trkpt>
      <trkpt lat="43.33884" lon="-0.53308">
        <ele>187.59</ele>
        <time>2017-04-15T08:37:07Z</time>
      </trkpt>
      <trkpt lat="43.33895" lon="-0.53308">
        <ele>188.08</ele>
        <time>2017-04-15T08:37:15Z</time>
      </trkpt>
      <trkpt lat="43.33896" lon="-0.53308">
        <ele>188.08</ele>
        <time>2017-04-15T08:37:16Z</time>
      </trkpt>
      <trkpt lat="43.33918" lon="-0.53315">
        <ele>191.44</ele>
        <time>2017-04-15T08:37:30Z</time>
      </trkpt>
      <trkpt lat="43.33942" lon="-0.53318">
        <ele>197.69</ele>
        <time>2017-04-15T08:37:44Z</time>
      </trkpt>
      <trkpt lat="43.33946" lon="-0.53317">
        <ele>198.65</ele>
        <time>2017-04-15T08:37:47Z</time>
      </trkpt>
      <trkpt lat="43.33947" lon="-0.53316">
        <ele>198.17</ele>
        <time>2017-04-15T08:37:48Z</time>
      </trkpt>
      <trkpt lat="43.33949" lon="-0.53315">
        <ele>198.17</ele>
        <time>2017-04-15T08:37:49Z</time>
      </trkpt>
      <trkpt lat="43.3395" lon="-0.53313">
        <ele>198.17</ele>
        <time>2017-04-15T08:37:50Z</time>
      </trkpt>
      <trkpt lat="43.33952" lon="-0.53313">
        <ele>197.69</ele>
        <time>2017-04-15T08:37:51Z</time>
      </trkpt>
      <trkpt lat="43.33953" lon="-0.53312">
        <ele>197.21</ele>
        <time>2017-04-15T08:37:52Z</time>
      </trkpt>
      <trkpt lat="43.33955" lon="-0.53311">
        <ele>197.21</ele>
        <time>2017-04-15T08:37:53Z</time>
      </trkpt>
      <trkpt lat="43.33972" lon="-0.53307">
        <ele>199.61</ele>
        <time>2017-04-15T08:38:06Z</time>
      </trkpt>
      <trkpt lat="43.33974" lon="-0.53307">
        <ele>200.09</ele>
        <time>2017-04-15T08:38:07Z</time>
      </trkpt>
      <trkpt lat="43.33979" lon="-0.5331">
        <ele>201.05</ele>
        <time>2017-04-15T08:38:11Z</time>
      </trkpt>
      <trkpt lat="43.34" lon="-0.53312">
        <ele>205.38</ele>
        <time>2017-04-15T08:38:24Z</time>
      </trkpt>
      <trkpt lat="43.34002" lon="-0.53312">
        <ele>205.38</ele>
        <time>2017-04-15T08:38:25Z</time>
      </trkpt>
      <trkpt lat="43.34004" lon="-0.53312">
        <ele>205.38</ele>
        <time>2017-04-15T08:38:26Z</time>
      </trkpt>
      <trkpt lat="43.34006" lon="-0.53312">
        <ele>205.38</ele>
        <time>2017-04-15T08:38:27Z</time>
      </trkpt>
      <trkpt lat="43.34007" lon="-0.53312">
        <ele>205.38</ele>
        <time>2017-04-15T08:38:28Z</time>
      </trkpt>
      <trkpt lat="43.34029" lon="-0.53312">
        <ele>202.98</ele>
        <time>2017-04-15T08:38:42Z</time>
      </trkpt>
      <trkpt lat="43.34041" lon="-0.53307">
        <ele>206.82</ele>
        <time>2017-04-15T08:38:50Z</time>
      </trkpt>
      <trkpt lat="43.34042" lon="-0.53306">
        <ele>207.3</ele>
        <time>2017-04-15T08:38:51Z</time>
      </trkpt>
      <trkpt lat="43.34061" lon="-0.53289">
        <ele>206.34</ele>
        <time>2017-04-15T08:39:05Z</time>
      </trkpt>
      <trkpt lat="43.34072" lon="-0.5328">
        <ele>206.34</ele>
        <time>2017-04-15T08:39:14Z</time>
      </trkpt>
      <trkpt lat="43.34092" lon="-0.53266">
        <ele>208.26</ele>
        <time>2017-04-15T08:39:29Z</time>
      </trkpt>
      <trkpt lat="43.34103" lon="-0.53253">
        <ele>207.3</ele>
        <time>2017-04-15T08:39:42Z</time>
      </trkpt>
      <trkpt lat="43.34104" lon="-0.53251">
        <ele>207.78</ele>
        <time>2017-04-15T08:39:43Z</time>
      </trkpt>
      <trkpt lat="43.34105" lon="-0.5325">
        <ele>207.78</ele>
        <time>2017-04-15T08:39:44Z</time>
      </trkpt>
      <trkpt lat="43.34107" lon="-0.53249">
        <ele>207.78</ele>
        <time>2017-04-15T08:39:45Z</time>
      </trkpt>
      <trkpt lat="43.34122" lon="-0.53234">
        <ele>207.3</ele>
        <time>2017-04-15T08:39:58Z</time>
      </trkpt>
      <trkpt lat="43.34131" lon="-0.53215">
        <ele>208.26</ele>
        <time>2017-04-15T08:40:11Z</time>
      </trkpt>
      <trkpt lat="43.34137" lon="-0.53204">
        <ele>208.74</ele>
        <time>2017-04-15T08:40:18Z</time>
      </trkpt>
      <trkpt lat="43.34137" lon="-0.53202">
        <ele>208.74</ele>
        <time>2017-04-15T08:40:19Z</time>
      </trkpt>
      <trkpt lat="43.34138" lon="-0.532">
        <ele>208.74</ele>
        <time>2017-04-15T08:40:20Z</time>
      </trkpt>
      <trkpt lat="43.34149" lon="-0.53182">
        <ele>210.67</ele>
        <time>2017-04-15T08:40:33Z</time>
      </trkpt>
      <trkpt lat="43.34156" lon="-0.53165">
        <ele>212.11</ele>
        <time>2017-04-15T08:40:45Z</time>
      </trkpt>
      <trkpt lat="43.34162" lon="-0.53139">
        <ele>213.07</ele>
        <time>2017-04-15T08:41:01Z</time>
      </trkpt>
      <trkpt lat="43.3417" lon="-0.53119">
        <ele>215.95</ele>
        <time>2017-04-15T08:41:15Z</time>
      </trkpt>
      <trkpt lat="43.34178" lon="-0.531">
        <ele>218.84</ele>
        <time>2017-04-15T08:41:28Z</time>
      </trkpt>
      <trkpt lat="43.3418" lon="-0.53096">
        <ele>218.84</ele>
        <time>2017-04-15T08:41:31Z</time>
      </trkpt>
      <trkpt lat="43.34181" lon="-0.53095">
        <ele>218.84</ele>
        <time>2017-04-15T08:41:32Z</time>
      </trkpt>
      <trkpt lat="43.34194" lon="-0.53075">
        <ele>220.28</ele>
        <time>2017-04-15T08:41:48Z</time>
      </trkpt>
      <trkpt lat="43.34203" lon="-0.53056">
        <ele>221.72</ele>
        <time>2017-04-15T08:42:01Z</time>
      </trkpt>
      <trkpt lat="43.34212" lon="-0.5304">
        <ele>221.24</ele>
        <time>2017-04-15T08:42:09Z</time>
      </trkpt>
      <trkpt lat="43.34213" lon="-0.53039">
        <ele>221.24</ele>
        <time>2017-04-15T08:42:10Z</time>
      </trkpt>
      <trkpt lat="43.34216" lon="-0.53037">
        <ele>221.24</ele>
        <time>2017-04-15T08:42:11Z</time>
      </trkpt>
      <trkpt lat="43.34218" lon="-0.53036">
        <ele>221.24</ele>
        <time>2017-04-15T08:42:12Z</time>
      </trkpt>
      <trkpt lat="43.34222" lon="-0.53033">
        <ele>220.76</ele>
        <time>2017-04-15T08:42:13Z</time>
      </trkpt>
      <trkpt lat="43.34226" lon="-0.53029">
        <ele>220.28</ele>
        <time>2017-04-15T08:42:14Z</time>
      </trkpt>
      <trkpt lat="43.3423" lon="-0.53026">
        <ele>219.8</ele>
        <time>2017-04-15T08:42:15Z</time>
      </trkpt>
      <trkpt lat="43.34255" lon="-0.52995">
        <ele>218.36</ele>
        <time>2017-04-15T08:42:25Z</time>
      </trkpt>
      <trkpt lat="43.3426" lon="-0.52985">
        <ele>219.8</ele>
        <time>2017-04-15T08:42:30Z</time>
      </trkpt>
      <trkpt lat="43.34274" lon="-0.52956">
        <ele>225.57</ele>
        <time>2017-04-15T08:42:46Z</time>
      </trkpt>
      <trkpt lat="43.34274" lon="-0.52954">
        <ele>225.57</ele>
        <time>2017-04-15T08:42:47Z</time>
      </trkpt>
      <trkpt lat="43.34284" lon="-0.52932">
        <ele>227.49</ele>
        <time>2017-04-15T08:43:01Z</time>
      </trkpt>
      <trkpt lat="43.34305" lon="-0.52917">
        <ele>230.37</ele>
        <time>2017-04-15T08:43:17Z</time>
      </trkpt>
      <trkpt lat="43.34318" lon="-0.52901">
        <ele>232.78</ele>
        <time>2017-04-15T08:43:29Z</time>
      </trkpt>
      <trkpt lat="43.34327" lon="-0.5289">
        <ele>232.3</ele>
        <time>2017-04-15T08:43:36Z</time>
      </trkpt>
      <trkpt lat="43.34345" lon="-0.5287">
        <ele>233.74</ele>
        <time>2017-04-15T08:43:49Z</time>
      </trkpt>
      <trkpt lat="43.34364" lon="-0.5284">
        <ele>233.26</ele>
        <time>2017-04-15T08:43:59Z</time>
      </trkpt>
      <trkpt lat="43.34368" lon="-0.52827">
        <ele>232.78</ele>
        <time>2017-04-15T08:44:03Z</time>
      </trkpt>
      <trkpt lat="43.34375" lon="-0.52819">
        <ele>232.78</ele>
        <time>2017-04-15T08:44:07Z</time>
      </trkpt>
      <trkpt lat="43.34398" lon="-0.52812">
        <ele>234.7</ele>
        <time>2017-04-15T08:44:15Z</time>
      </trkpt>
      <trkpt lat="43.34405" lon="-0.52814">
        <ele>235.66</ele>
        <time>2017-04-15T08:44:18Z</time>
      </trkpt>
      <trkpt lat="43.34413" lon="-0.52825">
        <ele>236.62</ele>
        <time>2017-04-15T08:44:22Z</time>
      </trkpt>
      <trkpt lat="43.34414" lon="-0.52827">
        <ele>236.62</ele>
        <time>2017-04-15T08:44:23Z</time>
      </trkpt>
      <trkpt lat="43.34429" lon="-0.52865">
        <ele>236.62</ele>
        <time>2017-04-15T08:44:33Z</time>
      </trkpt>
      <trkpt lat="43.34442" lon="-0.52899">
        <ele>238.54</ele>
        <time>2017-04-15T08:44:45Z</time>
      </trkpt>
      <trkpt lat="43.34445" lon="-0.52902">
        <ele>238.54</ele>
        <time>2017-04-15T08:44:47Z</time>
      </trkpt>
      <trkpt lat="43.34454" lon="-0.52919">
        <ele>239.99</ele>
        <time>2017-04-15T08:44:57Z</time>
      </trkpt>
      <trkpt lat="43.34462" lon="-0.52931">
        <ele>240.95</ele>
        <time>2017-04-15T08:45:05Z</time>
      </trkpt>
      <trkpt lat="43.34462" lon="-0.52933">
        <ele>241.43</ele>
        <time>2017-04-15T08:45:06Z</time>
      </trkpt>
      <trkpt lat="43.34463" lon="-0.52935">
        <ele>241.43</ele>
        <time>2017-04-15T08:45:07Z</time>
      </trkpt>
      <trkpt lat="43.34464" lon="-0.52936">
        <ele>241.43</ele>
        <time>2017-04-15T08:45:08Z</time>
      </trkpt>
      <trkpt lat="43.34465" lon="-0.52938">
        <ele>241.91</ele>
        <time>2017-04-15T08:45:09Z</time>
      </trkpt>
      <trkpt lat="43.34479" lon="-0.52955">
        <ele>245.27</ele>
        <time>2017-04-15T08:45:23Z</time>
      </trkpt>
      <trkpt lat="43.34493" lon="-0.52974">
        <ele>246.72</ele>
        <time>2017-04-15T08:45:37Z</time>
      </trkpt>
      <trkpt lat="43.34504" lon="-0.52996">
        <ele>249.6</ele>
        <time>2017-04-15T08:45:50Z</time>
      </trkpt>
      <trkpt lat="43.34519" lon="-0.53015">
        <ele>251.04</ele>
        <time>2017-04-15T08:46:03Z</time>
      </trkpt>
      <trkpt lat="43.34536" lon="-0.53054">
        <ele>253.44</ele>
        <time>2017-04-15T08:46:14Z</time>
      </trkpt>
      <trkpt lat="43.34538" lon="-0.5306">
        <ele>252.96</ele>
        <time>2017-04-15T08:46:15Z</time>
      </trkpt>
      <trkpt lat="43.34541" lon="-0.53067">
        <ele>252.96</ele>
        <time>2017-04-15T08:46:16Z</time>
      </trkpt>
      <trkpt lat="43.34543" lon="-0.53074">
        <ele>252.96</ele>
        <time>2017-04-15T08:46:17Z</time>
      </trkpt>
      <trkpt lat="43.34545" lon="-0.53082">
        <ele>252.48</ele>
        <time>2017-04-15T08:46:18Z</time>
      </trkpt>
      <trkpt lat="43.34546" lon="-0.53091">
        <ele>252</ele>
        <time>2017-04-15T08:46:19Z</time>
      </trkpt>
      <trkpt lat="43.34546" lon="-0.531">
        <ele>251.52</ele>
        <time>2017-04-15T08:46:20Z</time>
      </trkpt>
      <trkpt lat="43.34547" lon="-0.53111">
        <ele>250.56</ele>
        <time>2017-04-15T08:46:21Z</time>
      </trkpt>
      <trkpt lat="43.34556" lon="-0.53175">
        <ele>246.72</ele>
        <time>2017-04-15T08:46:27Z</time>
      </trkpt>
      <trkpt lat="43.34555" lon="-0.53198">
        <ele>245.27</ele>
        <time>2017-04-15T08:46:29Z</time>
      </trkpt>
      <trkpt lat="43.34556" lon="-0.5321">
        <ele>244.79</ele>
        <time>2017-04-15T08:46:30Z</time>
      </trkpt>
      <trkpt lat="43.34559" lon="-0.53242">
        <ele>242.87</ele>
        <time>2017-04-15T08:46:33Z</time>
      </trkpt>
      <trkpt lat="43.34561" lon="-0.53252">
        <ele>242.39</ele>
        <time>2017-04-15T08:46:34Z</time>
      </trkpt>
      <trkpt lat="43.34563" lon="-0.53262">
        <ele>241.91</ele>
        <time>2017-04-15T08:46:35Z</time>
      </trkpt>
      <trkpt lat="43.3457" lon="-0.53302">
        <ele>239.51</ele>
        <time>2017-04-15T08:46:39Z</time>
      </trkpt>
      <trkpt lat="43.3457" lon="-0.53311">
        <ele>239.51</ele>
        <time>2017-04-15T08:46:40Z</time>
      </trkpt>
      <trkpt lat="43.34571" lon="-0.5332">
        <ele>239.02</ele>
        <time>2017-04-15T08:46:41Z</time>
      </trkpt>
      <trkpt lat="43.3458" lon="-0.53426">
        <ele>232.78</ele>
        <time>2017-04-15T08:46:51Z</time>
      </trkpt>
      <trkpt lat="43.34585" lon="-0.53549">
        <ele>224.12</ele>
        <time>2017-04-15T08:46:59Z</time>
      </trkpt>
      <trkpt lat="43.34567" lon="-0.53649">
        <ele>216.91</ele>
        <time>2017-04-15T08:47:07Z</time>
      </trkpt>
      <trkpt lat="43.3453" lon="-0.53765">
        <ele>205.38</ele>
        <time>2017-04-15T08:47:16Z</time>
      </trkpt>
      <trkpt lat="43.34522" lon="-0.53794">
        <ele>202.98</ele>
        <time>2017-04-15T08:47:18Z</time>
      </trkpt>
      <trkpt lat="43.34512" lon="-0.53844">
        <ele>201.05</ele>
        <time>2017-04-15T08:47:22Z</time>
      </trkpt>
      <trkpt lat="43.34513" lon="-0.53854">
        <ele>200.57</ele>
        <time>2017-04-15T08:47:23Z</time>
      </trkpt>
      <trkpt lat="43.34514" lon="-0.53864">
        <ele>200.57</ele>
        <time>2017-04-15T08:47:24Z</time>
      </trkpt>
      <trkpt lat="43.34528" lon="-0.53952">
        <ele>195.77</ele>
        <time>2017-04-15T08:47:32Z</time>
      </trkpt>
      <trkpt lat="43.34529" lon="-0.53963">
        <ele>194.8</ele>
        <time>2017-04-15T08:47:33Z</time>
      </trkpt>
      <trkpt lat="43.34529" lon="-0.53973">
        <ele>194.32</ele>
        <time>2017-04-15T08:47:34Z</time>
      </trkpt>
      <trkpt lat="43.34528" lon="-0.53981">
        <ele>193.84</ele>
        <time>2017-04-15T08:47:35Z</time>
      </trkpt>
      <trkpt lat="43.34527" lon="-0.53989">
        <ele>192.88</ele>
        <time>2017-04-15T08:47:36Z</time>
      </trkpt>
      <trkpt lat="43.34526" lon="-0.53995">
        <ele>192.4</ele>
        <time>2017-04-15T08:47:37Z</time>
      </trkpt>
      <trkpt lat="43.34526" lon="-0.54001">
        <ele>191.92</ele>
        <time>2017-04-15T08:47:38Z</time>
      </trkpt>
      <trkpt lat="43.34524" lon="-0.5403">
        <ele>188.56</ele>
        <time>2017-04-15T08:47:44Z</time>
      </trkpt>
      <trkpt lat="43.34525" lon="-0.54035">
        <ele>187.59</ele>
        <time>2017-04-15T08:47:45Z</time>
      </trkpt>
      <trkpt lat="43.34526" lon="-0.54038">
        <ele>187.11</ele>
        <time>2017-04-15T08:47:46Z</time>
      </trkpt>
      <trkpt lat="43.34527" lon="-0.54041">
        <ele>186.63</ele>
        <time>2017-04-15T08:47:47Z</time>
      </trkpt>
      <trkpt lat="43.3453" lon="-0.54044">
        <ele>186.15</ele>
        <time>2017-04-15T08:47:48Z</time>
      </trkpt>
      <trkpt lat="43.34551" lon="-0.54065">
        <ele>180.87</ele>
        <time>2017-04-15T08:47:55Z</time>
      </trkpt>
      <trkpt lat="43.3456" lon="-0.54067">
        <ele>177.98</ele>
        <time>2017-04-15T08:47:59Z</time>
      </trkpt>
      <trkpt lat="43.34565" lon="-0.54075">
        <ele>175.58</ele>
        <time>2017-04-15T08:48:02Z</time>
      </trkpt>
      <trkpt lat="43.3458" lon="-0.54092">
        <ele>172.21</ele>
        <time>2017-04-15T08:48:10Z</time>
      </trkpt>
      <trkpt lat="43.34587" lon="-0.5411">
        <ele>171.25</ele>
        <time>2017-04-15T08:48:18Z</time>
      </trkpt>
      <trkpt lat="43.34593" lon="-0.54112">
        <ele>170.77</ele>
        <time>2017-04-15T08:48:20Z</time>
      </trkpt>
      <trkpt lat="43.34602" lon="-0.54142">
        <ele>166.93</ele>
        <time>2017-04-15T08:48:29Z</time>
      </trkpt>
      <trkpt lat="43.34603" lon="-0.54147">
        <ele>166.93</ele>
        <time>2017-04-15T08:48:30Z</time>
      </trkpt>
      <trkpt lat="43.34607" lon="-0.54162">
        <ele>165.96</ele>
        <time>2017-04-15T08:48:33Z</time>
      </trkpt>
      <trkpt lat="43.34621" lon="-0.54182">
        <ele>161.16</ele>
        <time>2017-04-15T08:48:41Z</time>
      </trkpt>
      <trkpt lat="43.34647" lon="-0.54198">
        <ele>155.87</ele>
        <time>2017-04-15T08:48:51Z</time>
      </trkpt>
      <trkpt lat="43.34657" lon="-0.54202">
        <ele>154.91</ele>
        <time>2017-04-15T08:48:55Z</time>
      </trkpt>
      <trkpt lat="43.34688" lon="-0.54207">
        <ele>152.03</ele>
        <time>2017-04-15T08:49:03Z</time>
      </trkpt>
      <trkpt lat="43.34692" lon="-0.54209">
        <ele>151.06</ele>
        <time>2017-04-15T08:49:04Z</time>
      </trkpt>
      <trkpt lat="43.34701" lon="-0.54225">
        <ele>148.18</ele>
        <time>2017-04-15T08:49:07Z</time>
      </trkpt>
      <trkpt lat="43.34701" lon="-0.54233">
        <ele>146.74</ele>
        <time>2017-04-15T08:49:08Z</time>
      </trkpt>
      <trkpt lat="43.34701" lon="-0.54238">
        <ele>146.26</ele>
        <time>2017-04-15T08:49:09Z</time>
      </trkpt>
      <trkpt lat="43.34701" lon="-0.54245">
        <ele>145.78</ele>
        <time>2017-04-15T08:49:10Z</time>
      </trkpt>
      <trkpt lat="43.34699" lon="-0.54254">
        <ele>144.82</ele>
        <time>2017-04-15T08:49:11Z</time>
      </trkpt>
      <trkpt lat="43.34681" lon="-0.54346">
        <ele>136.16</ele>
        <time>2017-04-15T08:49:19Z</time>
      </trkpt>
      <trkpt lat="43.34677" lon="-0.54355">
        <ele>135.2</ele>
        <time>2017-04-15T08:49:20Z</time>
      </trkpt>
      <trkpt lat="43.34672" lon="-0.54371">
        <ele>133.28</ele>
        <time>2017-04-15T08:49:22Z</time>
      </trkpt>
      <trkpt lat="43.34672" lon="-0.54379">
        <ele>132.32</ele>
        <time>2017-04-15T08:49:23Z</time>
      </trkpt>
      <trkpt lat="43.34673" lon="-0.54386">
        <ele>131.36</ele>
        <time>2017-04-15T08:49:24Z</time>
      </trkpt>
      <trkpt lat="43.34675" lon="-0.54394">
        <ele>130.88</ele>
        <time>2017-04-15T08:49:25Z</time>
      </trkpt>
      <trkpt lat="43.34676" lon="-0.54402">
        <ele>130.4</ele>
        <time>2017-04-15T08:49:26Z</time>
      </trkpt>
      <trkpt lat="43.34676" lon="-0.54409">
        <ele>129.92</ele>
        <time>2017-04-15T08:49:27Z</time>
      </trkpt>
      <trkpt lat="43.34675" lon="-0.54416">
        <ele>129.92</ele>
        <time>2017-04-15T08:49:28Z</time>
      </trkpt>
      <trkpt lat="43.34673" lon="-0.54421">
        <ele>129.92</ele>
        <time>2017-04-15T08:49:29Z</time>
      </trkpt>
      <trkpt lat="43.34665" lon="-0.5448">
        <ele>135.68</ele>
        <time>2017-04-15T08:49:42Z</time>
      </trkpt>
      <trkpt lat="43.3466" lon="-0.54541">
        <ele>141.93</ele>
        <time>2017-04-15T08:49:55Z</time>
      </trkpt>
      <trkpt lat="43.34654" lon="-0.54588">
        <ele>140.01</ele>
        <time>2017-04-15T08:50:03Z</time>
      </trkpt>
      <trkpt lat="43.34653" lon="-0.54594">
        <ele>139.53</ele>
        <time>2017-04-15T08:50:04Z</time>
      </trkpt>
      <trkpt lat="43.34649" lon="-0.54638">
        <ele>137.13</ele>
        <time>2017-04-15T08:50:11Z</time>
      </trkpt>
      <trkpt lat="43.34649" lon="-0.54645">
        <ele>136.64</ele>
        <time>2017-04-15T08:50:12Z</time>
      </trkpt>
      <trkpt lat="43.34652" lon="-0.54657">
        <ele>136.64</ele>
        <time>2017-04-15T08:50:14Z</time>
      </trkpt>
      <trkpt lat="43.34656" lon="-0.54664">
        <ele>136.16</ele>
        <time>2017-04-15T08:50:15Z</time>
      </trkpt>
      <trkpt lat="43.3466" lon="-0.5467">
        <ele>135.68</ele>
        <time>2017-04-15T08:50:16Z</time>
      </trkpt>
      <trkpt lat="43.34665" lon="-0.54676">
        <ele>135.68</ele>
        <time>2017-04-15T08:50:17Z</time>
      </trkpt>
      <trkpt lat="43.34671" lon="-0.54681">
        <ele>135.2</ele>
        <time>2017-04-15T08:50:18Z</time>
      </trkpt>
      <trkpt lat="43.34711" lon="-0.54716">
        <ele>133.28</ele>
        <time>2017-04-15T08:50:25Z</time>
      </trkpt>
      <trkpt lat="43.34736" lon="-0.54737">
        <ele>132.8</ele>
        <time>2017-04-15T08:50:30Z</time>
      </trkpt>
      <trkpt lat="43.3474" lon="-0.54742">
        <ele>132.8</ele>
        <time>2017-04-15T08:50:31Z</time>
      </trkpt>
      <trkpt lat="43.34798" lon="-0.54818">
        <ele>125.59</ele>
        <time>2017-04-15T08:50:42Z</time>
      </trkpt>
      <trkpt lat="43.3482" lon="-0.54847">
        <ele>124.15</ele>
        <time>2017-04-15T08:50:46Z</time>
      </trkpt>
      <trkpt lat="43.3484" lon="-0.54877">
        <ele>124.15</ele>
        <time>2017-04-15T08:50:51Z</time>
      </trkpt>
      <trkpt lat="43.34844" lon="-0.54882">
        <ele>124.15</ele>
        <time>2017-04-15T08:50:52Z</time>
      </trkpt>
      <trkpt lat="43.34849" lon="-0.54885">
        <ele>124.63</ele>
        <time>2017-04-15T08:50:53Z</time>
      </trkpt>
      <trkpt lat="43.34859" lon="-0.5489">
        <ele>124.63</ele>
        <time>2017-04-15T08:50:55Z</time>
      </trkpt>
      <trkpt lat="43.34881" lon="-0.54894">
        <ele>125.59</ele>
        <time>2017-04-15T08:50:59Z</time>
      </trkpt>
      <trkpt lat="43.34891" lon="-0.54897">
        <ele>126.07</ele>
        <time>2017-04-15T08:51:01Z</time>
      </trkpt>
      <trkpt lat="43.34934" lon="-0.54921">
        <ele>127.99</ele>
        <time>2017-04-15T08:51:10Z</time>
      </trkpt>
      <trkpt lat="43.34938" lon="-0.54925">
        <ele>127.51</ele>
        <time>2017-04-15T08:51:11Z</time>
      </trkpt>
      <trkpt lat="43.34946" lon="-0.54936">
        <ele>126.55</ele>
        <time>2017-04-15T08:51:13Z</time>
      </trkpt>
      <trkpt lat="43.3499" lon="-0.55013">
        <ele>122.22</ele>
        <time>2017-04-15T08:51:23Z</time>
      </trkpt>
      <trkpt lat="43.35036" lon="-0.55069">
        <ele>121.26</ele>
        <time>2017-04-15T08:51:33Z</time>
      </trkpt>
      <trkpt lat="43.35041" lon="-0.55073">
        <ele>121.26</ele>
        <time>2017-04-15T08:51:34Z</time>
      </trkpt>
      <trkpt lat="43.35055" lon="-0.55081">
        <ele>121.26</ele>
        <time>2017-04-15T08:51:37Z</time>
      </trkpt>
      <trkpt lat="43.3506" lon="-0.55083">
        <ele>121.26</ele>
        <time>2017-04-15T08:51:38Z</time>
      </trkpt>
      <trkpt lat="43.35066" lon="-0.55086">
        <ele>120.78</ele>
        <time>2017-04-15T08:51:39Z</time>
      </trkpt>
      <trkpt lat="43.35105" lon="-0.55106">
        <ele>120.3</ele>
        <time>2017-04-15T08:51:47Z</time>
      </trkpt>
      <trkpt lat="43.3511" lon="-0.55108">
        <ele>120.3</ele>
        <time>2017-04-15T08:51:48Z</time>
      </trkpt>
      <trkpt lat="43.35115" lon="-0.55111">
        <ele>120.3</ele>
        <time>2017-04-15T08:51:49Z</time>
      </trkpt>
      <trkpt lat="43.35153" lon="-0.5513">
        <ele>119.82</ele>
        <time>2017-04-15T08:51:56Z</time>
      </trkpt>
      <trkpt lat="43.35158" lon="-0.55134">
        <ele>119.82</ele>
        <time>2017-04-15T08:51:57Z</time>
      </trkpt>
      <trkpt lat="43.35163" lon="-0.55139">
        <ele>119.34</ele>
        <time>2017-04-15T08:51:58Z</time>
      </trkpt>
      <trkpt lat="43.35167" lon="-0.55145">
        <ele>119.34</ele>
        <time>2017-04-15T08:51:59Z</time>
      </trkpt>
      <trkpt lat="43.35171" lon="-0.55152">
        <ele>119.34</ele>
        <time>2017-04-15T08:52:00Z</time>
      </trkpt>
      <trkpt lat="43.35212" lon="-0.55223">
        <ele>116.94</ele>
        <time>2017-04-15T08:52:10Z</time>
      </trkpt>
      <trkpt lat="43.35215" lon="-0.55232">
        <ele>116.94</ele>
        <time>2017-04-15T08:52:11Z</time>
      </trkpt>
      <trkpt lat="43.35217" lon="-0.55241">
        <ele>116.46</ele>
        <time>2017-04-15T08:52:12Z</time>
      </trkpt>
      <trkpt lat="43.3522" lon="-0.55257">
        <ele>116.46</ele>
        <time>2017-04-15T08:52:14Z</time>
      </trkpt>
      <trkpt lat="43.35221" lon="-0.55267">
        <ele>115.98</ele>
        <time>2017-04-15T08:52:15Z</time>
      </trkpt>
      <trkpt lat="43.35224" lon="-0.5533">
        <ele>115.01</ele>
        <time>2017-04-15T08:52:22Z</time>
      </trkpt>
      <trkpt lat="43.35226" lon="-0.5534">
        <ele>114.53</ele>
        <time>2017-04-15T08:52:23Z</time>
      </trkpt>
      <trkpt lat="43.35233" lon="-0.55357">
        <ele>114.05</ele>
        <time>2017-04-15T08:52:25Z</time>
      </trkpt>
      <trkpt lat="43.35237" lon="-0.55364">
        <ele>114.05</ele>
        <time>2017-04-15T08:52:26Z</time>
      </trkpt>
      <trkpt lat="43.35279" lon="-0.55431">
        <ele>115.98</ele>
        <time>2017-04-15T08:52:37Z</time>
      </trkpt>
      <trkpt lat="43.35313" lon="-0.55488">
        <ele>115.01</ele>
        <time>2017-04-15T08:52:45Z</time>
      </trkpt>
      <trkpt lat="43.35318" lon="-0.55494">
        <ele>115.01</ele>
        <time>2017-04-15T08:52:46Z</time>
      </trkpt>
      <trkpt lat="43.35324" lon="-0.55499">
        <ele>115.01</ele>
        <time>2017-04-15T08:52:47Z</time>
      </trkpt>
      <trkpt lat="43.3533" lon="-0.55504">
        <ele>115.01</ele>
        <time>2017-04-15T08:52:48Z</time>
      </trkpt>
      <trkpt lat="43.35336" lon="-0.55508">
        <ele>115.01</ele>
        <time>2017-04-15T08:52:49Z</time>
      </trkpt>
      <trkpt lat="43.35342" lon="-0.55511">
        <ele>115.5</ele>
        <time>2017-04-15T08:52:50Z</time>
      </trkpt>
      <trkpt lat="43.35347" lon="-0.55513">
        <ele>115.5</ele>
        <time>2017-04-15T08:52:51Z</time>
      </trkpt>
      <trkpt lat="43.35353" lon="-0.55515">
        <ele>115.5</ele>
        <time>2017-04-15T08:52:52Z</time>
      </trkpt>
      <trkpt lat="43.35375" lon="-0.55522">
        <ele>115.98</ele>
        <time>2017-04-15T08:52:56Z</time>
      </trkpt>
      <trkpt lat="43.3538" lon="-0.55524">
        <ele>115.98</ele>
        <time>2017-04-15T08:52:57Z</time>
      </trkpt>
      <trkpt lat="43.35384" lon="-0.55527">
        <ele>116.46</ele>
        <time>2017-04-15T08:52:58Z</time>
      </trkpt>
      <trkpt lat="43.35388" lon="-0.5553">
        <ele>116.46</ele>
        <time>2017-04-15T08:52:59Z</time>
      </trkpt>
      <trkpt lat="43.35392" lon="-0.55534">
        <ele>116.94</ele>
        <time>2017-04-15T08:53:00Z</time>
      </trkpt>
      <trkpt lat="43.35395" lon="-0.55537">
        <ele>116.94</ele>
        <time>2017-04-15T08:53:01Z</time>
      </trkpt>
      <trkpt lat="43.35398" lon="-0.5554">
        <ele>116.94</ele>
        <time>2017-04-15T08:53:02Z</time>
      </trkpt>
      <trkpt lat="43.35402" lon="-0.55544">
        <ele>117.42</ele>
        <time>2017-04-15T08:53:03Z</time>
      </trkpt>
      <trkpt lat="43.35409" lon="-0.55552">
        <ele>117.42</ele>
        <time>2017-04-15T08:53:05Z</time>
      </trkpt>
      <trkpt lat="43.35412" lon="-0.55556">
        <ele>117.42</ele>
        <time>2017-04-15T08:53:06Z</time>
      </trkpt>
      <trkpt lat="43.35415" lon="-0.55562">
        <ele>116.94</ele>
        <time>2017-04-15T08:53:07Z</time>
      </trkpt>
      <trkpt lat="43.35418" lon="-0.55567">
        <ele>116.94</ele>
        <time>2017-04-15T08:53:08Z</time>
      </trkpt>
      <trkpt lat="43.3542" lon="-0.55573">
        <ele>116.94</ele>
        <time>2017-04-15T08:53:09Z</time>
      </trkpt>
      <trkpt lat="43.35434" lon="-0.55621">
        <ele>115.5</ele>
        <time>2017-04-15T08:53:16Z</time>
      </trkpt>
      <trkpt lat="43.35436" lon="-0.55628">
        <ele>115.5</ele>
        <time>2017-04-15T08:53:17Z</time>
      </trkpt>
      <trkpt lat="43.35439" lon="-0.55634">
        <ele>115.98</ele>
        <time>2017-04-15T08:53:18Z</time>
      </trkpt>
      <trkpt lat="43.35442" lon="-0.5564">
        <ele>115.98</ele>
        <time>2017-04-15T08:53:19Z</time>
      </trkpt>
      <trkpt lat="43.35446" lon="-0.55645">
        <ele>115.98</ele>
        <time>2017-04-15T08:53:20Z</time>
      </trkpt>
      <trkpt lat="43.35501" lon="-0.55729">
        <ele>115.5</ele>
        <time>2017-04-15T08:53:33Z</time>
      </trkpt>
      <trkpt lat="43.35577" lon="-0.55858">
        <ele>115.5</ele>
        <time>2017-04-15T08:53:50Z</time>
      </trkpt>
      <trkpt lat="43.3558" lon="-0.55867">
        <ele>115.5</ele>
        <time>2017-04-15T08:53:51Z</time>
      </trkpt>
      <trkpt lat="43.35583" lon="-0.55876">
        <ele>115.5</ele>
        <time>2017-04-15T08:53:52Z</time>
      </trkpt>
      <trkpt lat="43.35585" lon="-0.55886">
        <ele>115.5</ele>
        <time>2017-04-15T08:53:53Z</time>
      </trkpt>
      <trkpt lat="43.35586" lon="-0.55895">
        <ele>115.01</ele>
        <time>2017-04-15T08:53:54Z</time>
      </trkpt>
      <trkpt lat="43.35595" lon="-0.55934">
        <ele>114.53</ele>
        <time>2017-04-15T08:53:58Z</time>
      </trkpt>
      <trkpt lat="43.35618" lon="-0.55994">
        <ele>115.5</ele>
        <time>2017-04-15T08:54:05Z</time>
      </trkpt>
      <trkpt lat="43.35623" lon="-0.56002">
        <ele>115.01</ele>
        <time>2017-04-15T08:54:06Z</time>
      </trkpt>
      <trkpt lat="43.35629" lon="-0.56009">
        <ele>115.01</ele>
        <time>2017-04-15T08:54:07Z</time>
      </trkpt>
      <trkpt lat="43.35634" lon="-0.56014">
        <ele>115.01</ele>
        <time>2017-04-15T08:54:08Z</time>
      </trkpt>
      <trkpt lat="43.3564" lon="-0.56019">
        <ele>115.01</ele>
        <time>2017-04-15T08:54:09Z</time>
      </trkpt>
      <trkpt lat="43.35646" lon="-0.56023">
        <ele>115.01</ele>
        <time>2017-04-15T08:54:10Z</time>
      </trkpt>
      <trkpt lat="43.35653" lon="-0.56025">
        <ele>115.5</ele>
        <time>2017-04-15T08:54:11Z</time>
      </trkpt>
      <trkpt lat="43.35659" lon="-0.56026">
        <ele>115.5</ele>
        <time>2017-04-15T08:54:12Z</time>
      </trkpt>
      <trkpt lat="43.3568" lon="-0.56031">
        <ele>115.98</ele>
        <time>2017-04-15T08:54:15Z</time>
      </trkpt>
      <trkpt lat="43.35685" lon="-0.56034">
        <ele>115.98</ele>
        <time>2017-04-15T08:54:16Z</time>
      </trkpt>
      <trkpt lat="43.35691" lon="-0.56038">
        <ele>115.98</ele>
        <time>2017-04-15T08:54:17Z</time>
      </trkpt>
      <trkpt lat="43.35697" lon="-0.56043">
        <ele>115.98</ele>
        <time>2017-04-15T08:54:18Z</time>
      </trkpt>
      <trkpt lat="43.35703" lon="-0.56049">
        <ele>115.98</ele>
        <time>2017-04-15T08:54:19Z</time>
      </trkpt>
      <trkpt lat="43.35708" lon="-0.56054">
        <ele>115.5</ele>
        <time>2017-04-15T08:54:20Z</time>
      </trkpt>
      <trkpt lat="43.3572" lon="-0.56064">
        <ele>115.5</ele>
        <time>2017-04-15T08:54:22Z</time>
      </trkpt>
      <trkpt lat="43.35727" lon="-0.56067">
        <ele>115.5</ele>
        <time>2017-04-15T08:54:23Z</time>
      </trkpt>
      <trkpt lat="43.35734" lon="-0.56067">
        <ele>115.5</ele>
        <time>2017-04-15T08:54:24Z</time>
      </trkpt>
      <trkpt lat="43.3574" lon="-0.56066">
        <ele>115.5</ele>
        <time>2017-04-15T08:54:25Z</time>
      </trkpt>
      <trkpt lat="43.35748" lon="-0.56064">
        <ele>115.5</ele>
        <time>2017-04-15T08:54:26Z</time>
      </trkpt>
      <trkpt lat="43.3578" lon="-0.56055">
        <ele>115.98</ele>
        <time>2017-04-15T08:54:31Z</time>
      </trkpt>
      <trkpt lat="43.35786" lon="-0.56057">
        <ele>115.98</ele>
        <time>2017-04-15T08:54:32Z</time>
      </trkpt>
      <trkpt lat="43.35792" lon="-0.5606">
        <ele>115.98</ele>
        <time>2017-04-15T08:54:33Z</time>
      </trkpt>
      <trkpt lat="43.35797" lon="-0.56064">
        <ele>115.98</ele>
        <time>2017-04-15T08:54:34Z</time>
      </trkpt>
      <trkpt lat="43.35803" lon="-0.56069">
        <ele>115.98</ele>
        <time>2017-04-15T08:54:35Z</time>
      </trkpt>
      <trkpt lat="43.35807" lon="-0.56075">
        <ele>115.98</ele>
        <time>2017-04-15T08:54:36Z</time>
      </trkpt>
      <trkpt lat="43.35812" lon="-0.5608">
        <ele>115.5</ele>
        <time>2017-04-15T08:54:37Z</time>
      </trkpt>
      <trkpt lat="43.35825" lon="-0.561">
        <ele>115.5</ele>
        <time>2017-04-15T08:54:42Z</time>
      </trkpt>
      <trkpt lat="43.35827" lon="-0.56106">
        <ele>115.98</ele>
        <time>2017-04-15T08:54:43Z</time>
      </trkpt>
      <trkpt lat="43.35828" lon="-0.5611">
        <ele>115.98</ele>
        <time>2017-04-15T08:54:44Z</time>
      </trkpt>
      <trkpt lat="43.35851" lon="-0.56213">
        <ele>114.05</ele>
        <time>2017-04-15T08:55:00Z</time>
      </trkpt>
      <trkpt lat="43.35853" lon="-0.5622">
        <ele>114.05</ele>
        <time>2017-04-15T08:55:01Z</time>
      </trkpt>
      <trkpt lat="43.35857" lon="-0.56235">
        <ele>113.57</ele>
        <time>2017-04-15T08:55:03Z</time>
      </trkpt>
      <trkpt lat="43.35862" lon="-0.56243">
        <ele>113.09</ele>
        <time>2017-04-15T08:55:04Z</time>
      </trkpt>
      <trkpt lat="43.35865" lon="-0.56246">
        <ele>113.09</ele>
        <time>2017-04-15T08:55:05Z</time>
      </trkpt>
      <trkpt lat="43.3587" lon="-0.56251">
        <ele>113.09</ele>
        <time>2017-04-15T08:55:06Z</time>
      </trkpt>
      <trkpt lat="43.35875" lon="-0.56256">
        <ele>112.61</ele>
        <time>2017-04-15T08:55:07Z</time>
      </trkpt>
      <trkpt lat="43.35881" lon="-0.5626">
        <ele>112.61</ele>
        <time>2017-04-15T08:55:08Z</time>
      </trkpt>
      <trkpt lat="43.35887" lon="-0.56263">
        <ele>112.61</ele>
        <time>2017-04-15T08:55:09Z</time>
      </trkpt>
      <trkpt lat="43.35924" lon="-0.56286">
        <ele>111.65</ele>
        <time>2017-04-15T08:55:15Z</time>
      </trkpt>
      <trkpt lat="43.35929" lon="-0.56292">
        <ele>111.65</ele>
        <time>2017-04-15T08:55:16Z</time>
      </trkpt>
      <trkpt lat="43.35934" lon="-0.56299">
        <ele>112.13</ele>
        <time>2017-04-15T08:55:17Z</time>
      </trkpt>
      <trkpt lat="43.35937" lon="-0.56307">
        <ele>112.13</ele>
        <time>2017-04-15T08:55:18Z</time>
      </trkpt>
      <trkpt lat="43.35941" lon="-0.56315">
        <ele>112.13</ele>
        <time>2017-04-15T08:55:19Z</time>
      </trkpt>
      <trkpt lat="43.35952" lon="-0.56339">
        <ele>112.13</ele>
        <time>2017-04-15T08:55:22Z</time>
      </trkpt>
      <trkpt lat="43.35963" lon="-0.56362">
        <ele>113.09</ele>
        <time>2017-04-15T08:55:25Z</time>
      </trkpt>
      <trkpt lat="43.35967" lon="-0.56371">
        <ele>113.57</ele>
        <time>2017-04-15T08:55:26Z</time>
      </trkpt>
      <trkpt lat="43.35969" lon="-0.5638">
        <ele>113.57</ele>
        <time>2017-04-15T08:55:27Z</time>
      </trkpt>
      <trkpt lat="43.36003" lon="-0.56509">
        <ele>113.57</ele>
        <time>2017-04-15T08:55:41Z</time>
      </trkpt>
      <trkpt lat="43.36062" lon="-0.566">
        <ele>113.57</ele>
        <time>2017-04-15T08:55:54Z</time>
      </trkpt>
      <trkpt lat="43.36148" lon="-0.56673">
        <ele>112.61</ele>
        <time>2017-04-15T08:56:09Z</time>
      </trkpt>
      <trkpt lat="43.36153" lon="-0.56675">
        <ele>112.13</ele>
        <time>2017-04-15T08:56:10Z</time>
      </trkpt>
      <trkpt lat="43.36159" lon="-0.56672">
        <ele>112.13</ele>
        <time>2017-04-15T08:56:11Z</time>
      </trkpt>
      <trkpt lat="43.36162" lon="-0.56669">
        <ele>112.13</ele>
        <time>2017-04-15T08:56:12Z</time>
      </trkpt>
      <trkpt lat="43.36167" lon="-0.56664">
        <ele>112.13</ele>
        <time>2017-04-15T08:56:13Z</time>
      </trkpt>
      <trkpt lat="43.36171" lon="-0.5666">
        <ele>112.13</ele>
        <time>2017-04-15T08:56:14Z</time>
      </trkpt>
      <trkpt lat="43.36175" lon="-0.56657">
        <ele>112.13</ele>
        <time>2017-04-15T08:56:15Z</time>
      </trkpt>
      <trkpt lat="43.36185" lon="-0.56649">
        <ele>113.09</ele>
        <time>2017-04-15T08:56:18Z</time>
      </trkpt>
      <trkpt lat="43.36188" lon="-0.56649">
        <ele>113.09</ele>
        <time>2017-04-15T08:56:19Z</time>
      </trkpt>
      <trkpt lat="43.3619" lon="-0.56652">
        <ele>113.57</ele>
        <time>2017-04-15T08:56:20Z</time>
      </trkpt>
      <trkpt lat="43.36193" lon="-0.56656">
        <ele>113.57</ele>
        <time>2017-04-15T08:56:21Z</time>
      </trkpt>
      <trkpt lat="43.36195" lon="-0.56661">
        <ele>113.57</ele>
        <time>2017-04-15T08:56:22Z</time>
      </trkpt>
      <trkpt lat="43.36196" lon="-0.56668">
        <ele>113.57</ele>
        <time>2017-04-15T08:56:23Z</time>
      </trkpt>
      <trkpt lat="43.36196" lon="-0.56675">
        <ele>113.57</ele>
        <time>2017-04-15T08:56:24Z</time>
      </trkpt>
      <trkpt lat="43.36196" lon="-0.56682">
        <ele>113.09</ele>
        <time>2017-04-15T08:56:25Z</time>
      </trkpt>
      <trkpt lat="43.36196" lon="-0.5669">
        <ele>113.09</ele>
        <time>2017-04-15T08:56:26Z</time>
      </trkpt>
      <trkpt lat="43.36197" lon="-0.56746">
        <ele>112.61</ele>
        <time>2017-04-15T08:56:33Z</time>
      </trkpt>
      <trkpt lat="43.362" lon="-0.56756">
        <ele>112.61</ele>
        <time>2017-04-15T08:56:34Z</time>
      </trkpt>
      <trkpt lat="43.36203" lon="-0.56761">
        <ele>112.61</ele>
        <time>2017-04-15T08:56:35Z</time>
      </trkpt>
      <trkpt lat="43.36207" lon="-0.56768">
        <ele>112.61</ele>
        <time>2017-04-15T08:56:36Z</time>
      </trkpt>
      <trkpt lat="43.36212" lon="-0.56775">
        <ele>112.61</ele>
        <time>2017-04-15T08:56:37Z</time>
      </trkpt>
      <trkpt lat="43.36295" lon="-0.56905">
        <ele>112.61</ele>
        <time>2017-04-15T08:56:55Z</time>
      </trkpt>
      <trkpt lat="43.36339" lon="-0.57018">
        <ele>112.61</ele>
        <time>2017-04-15T08:57:08Z</time>
      </trkpt>
      <trkpt lat="43.36395" lon="-0.57199">
        <ele>112.13</ele>
        <time>2017-04-15T08:57:28Z</time>
      </trkpt>
      <trkpt lat="43.3642" lon="-0.57365">
        <ele>111.17</ele>
        <time>2017-04-15T08:57:45Z</time>
      </trkpt>
      <trkpt lat="43.36435" lon="-0.57542">
        <ele>110.21</ele>
        <time>2017-04-15T08:58:03Z</time>
      </trkpt>
      <trkpt lat="43.36437" lon="-0.57562">
        <ele>110.21</ele>
        <time>2017-04-15T08:58:05Z</time>
      </trkpt>
      <trkpt lat="43.36439" lon="-0.57571">
        <ele>110.21</ele>
        <time>2017-04-15T08:58:06Z</time>
      </trkpt>
      <trkpt lat="43.36443" lon="-0.57579">
        <ele>110.21</ele>
        <time>2017-04-15T08:58:07Z</time>
      </trkpt>
      <trkpt lat="43.36447" lon="-0.57587">
        <ele>110.21</ele>
        <time>2017-04-15T08:58:08Z</time>
      </trkpt>
      <trkpt lat="43.36451" lon="-0.57595">
        <ele>110.21</ele>
        <time>2017-04-15T08:58:09Z</time>
      </trkpt>
      <trkpt lat="43.36481" lon="-0.57644">
        <ele>109.25</ele>
        <time>2017-04-15T08:58:16Z</time>
      </trkpt>
      <trkpt lat="43.36484" lon="-0.57652">
        <ele>109.25</ele>
        <time>2017-04-15T08:58:17Z</time>
      </trkpt>
      <trkpt lat="43.36486" lon="-0.5766">
        <ele>109.25</ele>
        <time>2017-04-15T08:58:18Z</time>
      </trkpt>
      <trkpt lat="43.36489" lon="-0.57668">
        <ele>109.25</ele>
        <time>2017-04-15T08:58:19Z</time>
      </trkpt>
      <trkpt lat="43.36493" lon="-0.57674">
        <ele>109.73</ele>
        <time>2017-04-15T08:58:20Z</time>
      </trkpt>
      <trkpt lat="43.36499" lon="-0.57678">
        <ele>109.73</ele>
        <time>2017-04-15T08:58:21Z</time>
      </trkpt>
      <trkpt lat="43.36505" lon="-0.57678">
        <ele>109.73</ele>
        <time>2017-04-15T08:58:22Z</time>
      </trkpt>
      <trkpt lat="43.36511" lon="-0.57675">
        <ele>109.73</ele>
        <time>2017-04-15T08:58:23Z</time>
      </trkpt>
      <trkpt lat="43.36517" lon="-0.57671">
        <ele>109.73</ele>
        <time>2017-04-15T08:58:24Z</time>
      </trkpt>
      <trkpt lat="43.36522" lon="-0.57665">
        <ele>109.73</ele>
        <time>2017-04-15T08:58:25Z</time>
      </trkpt>
      <trkpt lat="43.36611" lon="-0.57576">
        <ele>110.69</ele>
        <time>2017-04-15T08:58:41Z</time>
      </trkpt>
      <trkpt lat="43.36699" lon="-0.57497">
        <ele>111.65</ele>
        <time>2017-04-15T08:58:58Z</time>
      </trkpt>
      <trkpt lat="43.36805" lon="-0.57439">
        <ele>111.17</ele>
        <time>2017-04-15T08:59:16Z</time>
      </trkpt>
      <trkpt lat="43.36888" lon="-0.57365">
        <ele>110.69</ele>
        <time>2017-04-15T08:59:30Z</time>
      </trkpt>
      <trkpt lat="43.36986" lon="-0.57242">
        <ele>111.65</ele>
        <time>2017-04-15T08:59:49Z</time>
      </trkpt>
      <trkpt lat="43.37073" lon="-0.57135">
        <ele>111.17</ele>
        <time>2017-04-15T09:00:05Z</time>
      </trkpt>
      <trkpt lat="43.37127" lon="-0.57079">
        <ele>111.17</ele>
        <time>2017-04-15T09:00:14Z</time>
      </trkpt>
      <trkpt lat="43.37133" lon="-0.57075">
        <ele>111.17</ele>
        <time>2017-04-15T09:00:15Z</time>
      </trkpt>
      <trkpt lat="43.3714" lon="-0.57072">
        <ele>111.17</ele>
        <time>2017-04-15T09:00:16Z</time>
      </trkpt>
      <trkpt lat="43.37148" lon="-0.5707">
        <ele>111.17</ele>
        <time>2017-04-15T09:00:17Z</time>
      </trkpt>
      <trkpt lat="43.37155" lon="-0.57069">
        <ele>111.17</ele>
        <time>2017-04-15T09:00:18Z</time>
      </trkpt>
      <trkpt lat="43.37191" lon="-0.57062">
        <ele>110.69</ele>
        <time>2017-04-15T09:00:23Z</time>
      </trkpt>
      <trkpt lat="43.37198" lon="-0.5706">
        <ele>110.69</ele>
        <time>2017-04-15T09:00:24Z</time>
      </trkpt>
      <trkpt lat="43.37205" lon="-0.57056">
        <ele>110.69</ele>
        <time>2017-04-15T09:00:25Z</time>
      </trkpt>
      <trkpt lat="43.37279" lon="-0.57003">
        <ele>109.25</ele>
        <time>2017-04-15T09:00:37Z</time>
      </trkpt>
      <trkpt lat="43.37292" lon="-0.56987">
        <ele>109.25</ele>
        <time>2017-04-15T09:00:42Z</time>
      </trkpt>
      <trkpt lat="43.37296" lon="-0.56986">
        <ele>109.25</ele>
        <time>2017-04-15T09:00:43Z</time>
      </trkpt>
      <trkpt lat="43.373" lon="-0.56987">
        <ele>109.25</ele>
        <time>2017-04-15T09:00:44Z</time>
      </trkpt>
      <trkpt lat="43.37303" lon="-0.56991">
        <ele>109.25</ele>
        <time>2017-04-15T09:00:45Z</time>
      </trkpt>
      <trkpt lat="43.37306" lon="-0.56997">
        <ele>108.77</ele>
        <time>2017-04-15T09:00:46Z</time>
      </trkpt>
      <trkpt lat="43.37307" lon="-0.57004">
        <ele>108.77</ele>
        <time>2017-04-15T09:00:47Z</time>
      </trkpt>
      <trkpt lat="43.37309" lon="-0.57014">
        <ele>108.77</ele>
        <time>2017-04-15T09:00:48Z</time>
      </trkpt>
      <trkpt lat="43.37346" lon="-0.57097">
        <ele>107.32</ele>
        <time>2017-04-15T09:00:59Z</time>
      </trkpt>
      <trkpt lat="43.37458" lon="-0.57218">
        <ele>105.88</ele>
        <time>2017-04-15T09:01:19Z</time>
      </trkpt>
      <trkpt lat="43.37534" lon="-0.57333">
        <ele>105.4</ele>
        <time>2017-04-15T09:01:35Z</time>
      </trkpt>
      <trkpt lat="43.37589" lon="-0.57424">
        <ele>106.36</ele>
        <time>2017-04-15T09:01:49Z</time>
      </trkpt>
      <trkpt lat="43.37652" lon="-0.57528">
        <ele>106.84</ele>
        <time>2017-04-15T09:02:07Z</time>
      </trkpt>
      <trkpt lat="43.37712" lon="-0.5763">
        <ele>106.36</ele>
        <time>2017-04-15T09:02:24Z</time>
      </trkpt>
      <trkpt lat="43.37773" lon="-0.57762">
        <ele>107.81</ele>
        <time>2017-04-15T09:02:42Z</time>
      </trkpt>
      <trkpt lat="43.37819" lon="-0.57901">
        <ele>106.84</ele>
        <time>2017-04-15T09:03:00Z</time>
      </trkpt>
      <trkpt lat="43.37873" lon="-0.5806">
        <ele>105.88</ele>
        <time>2017-04-15T09:03:21Z</time>
      </trkpt>
      <trkpt lat="43.37918" lon="-0.58198">
        <ele>105.4</ele>
        <time>2017-04-15T09:03:39Z</time>
      </trkpt>
      <trkpt lat="43.3796" lon="-0.58303">
        <ele>104.44</ele>
        <time>2017-04-15T09:03:53Z</time>
      </trkpt>
      <trkpt lat="43.37964" lon="-0.58309">
        <ele>104.44</ele>
        <time>2017-04-15T09:03:54Z</time>
      </trkpt>
      <trkpt lat="43.37969" lon="-0.58315">
        <ele>104.44</ele>
        <time>2017-04-15T09:03:55Z</time>
      </trkpt>
      <trkpt lat="43.37974" lon="-0.5832">
        <ele>104.92</ele>
        <time>2017-04-15T09:03:56Z</time>
      </trkpt>
      <trkpt lat="43.37979" lon="-0.58325">
        <ele>104.92</ele>
        <time>2017-04-15T09:03:57Z</time>
      </trkpt>
      <trkpt lat="43.37985" lon="-0.58329">
        <ele>104.92</ele>
        <time>2017-04-15T09:03:58Z</time>
      </trkpt>
      <trkpt lat="43.37991" lon="-0.58333">
        <ele>104.92</ele>
        <time>2017-04-15T09:03:59Z</time>
      </trkpt>
      <trkpt lat="43.37996" lon="-0.58335">
        <ele>104.92</ele>
        <time>2017-04-15T09:04:00Z</time>
      </trkpt>
      <trkpt lat="43.38002" lon="-0.58338">
        <ele>104.44</ele>
        <time>2017-04-15T09:04:01Z</time>
      </trkpt>
      <trkpt lat="43.3807" lon="-0.58368">
        <ele>103.48</ele>
        <time>2017-04-15T09:04:12Z</time>
      </trkpt>
      <trkpt lat="43.3815" lon="-0.58463">
        <ele>103.48</ele>
        <time>2017-04-15T09:04:28Z</time>
      </trkpt>
      <trkpt lat="43.38216" lon="-0.58539">
        <ele>103.48</ele>
        <time>2017-04-15T09:04:41Z</time>
      </trkpt>
      <trkpt lat="43.3822" lon="-0.58544">
        <ele>103.48</ele>
        <time>2017-04-15T09:04:42Z</time>
      </trkpt>
      <trkpt lat="43.38282" lon="-0.5863">
        <ele>103.96</ele>
        <time>2017-04-15T09:04:57Z</time>
      </trkpt>
      <trkpt lat="43.38355" lon="-0.58738">
        <ele>103.96</ele>
        <time>2017-04-15T09:05:14Z</time>
      </trkpt>
      <trkpt lat="43.3836" lon="-0.58744">
        <ele>103.96</ele>
        <time>2017-04-15T09:05:15Z</time>
      </trkpt>
      <trkpt lat="43.38385" lon="-0.5877">
        <ele>103.96</ele>
        <time>2017-04-15T09:05:20Z</time>
      </trkpt>
      <trkpt lat="43.38396" lon="-0.58777">
        <ele>103.96</ele>
        <time>2017-04-15T09:05:22Z</time>
      </trkpt>
      <trkpt lat="43.38402" lon="-0.5878">
        <ele>103.96</ele>
        <time>2017-04-15T09:05:23Z</time>
      </trkpt>
      <trkpt lat="43.38409" lon="-0.58781">
        <ele>104.44</ele>
        <time>2017-04-15T09:05:24Z</time>
      </trkpt>
      <trkpt lat="43.38415" lon="-0.58782">
        <ele>104.44</ele>
        <time>2017-04-15T09:05:25Z</time>
      </trkpt>
      <trkpt lat="43.38421" lon="-0.58782">
        <ele>104.44</ele>
        <time>2017-04-15T09:05:26Z</time>
      </trkpt>
      <trkpt lat="43.38428" lon="-0.58782">
        <ele>104.44</ele>
        <time>2017-04-15T09:05:27Z</time>
      </trkpt>
      <trkpt lat="43.38434" lon="-0.58781">
        <ele>104.44</ele>
        <time>2017-04-15T09:05:28Z</time>
      </trkpt>
      <trkpt lat="43.3844" lon="-0.58779">
        <ele>104.44</ele>
        <time>2017-04-15T09:05:29Z</time>
      </trkpt>
      <trkpt lat="43.38446" lon="-0.58776">
        <ele>104.44</ele>
        <time>2017-04-15T09:05:30Z</time>
      </trkpt>
      <trkpt lat="43.38452" lon="-0.58772">
        <ele>104.44</ele>
        <time>2017-04-15T09:05:31Z</time>
      </trkpt>
      <trkpt lat="43.38458" lon="-0.58768">
        <ele>104.44</ele>
        <time>2017-04-15T09:05:32Z</time>
      </trkpt>
      <trkpt lat="43.38463" lon="-0.58764">
        <ele>104.44</ele>
        <time>2017-04-15T09:05:33Z</time>
      </trkpt>
      <trkpt lat="43.38468" lon="-0.58759">
        <ele>104.44</ele>
        <time>2017-04-15T09:05:34Z</time>
      </trkpt>
      <trkpt lat="43.38472" lon="-0.58754">
        <ele>104.44</ele>
        <time>2017-04-15T09:05:35Z</time>
      </trkpt>
      <trkpt lat="43.38476" lon="-0.58748">
        <ele>104.44</ele>
        <time>2017-04-15T09:05:36Z</time>
      </trkpt>
      <trkpt lat="43.38492" lon="-0.58729">
        <ele>104.44</ele>
        <time>2017-04-15T09:05:40Z</time>
      </trkpt>
      <trkpt lat="43.38497" lon="-0.58725">
        <ele>103.96</ele>
        <time>2017-04-15T09:05:41Z</time>
      </trkpt>
      <trkpt lat="43.38502" lon="-0.58723">
        <ele>103.96</ele>
        <time>2017-04-15T09:05:42Z</time>
      </trkpt>
      <trkpt lat="43.38507" lon="-0.58721">
        <ele>103.96</ele>
        <time>2017-04-15T09:05:43Z</time>
      </trkpt>
      <trkpt lat="43.38512" lon="-0.58719">
        <ele>103.96</ele>
        <time>2017-04-15T09:05:44Z</time>
      </trkpt>
      <trkpt lat="43.38516" lon="-0.58716">
        <ele>103.96</ele>
        <time>2017-04-15T09:05:45Z</time>
      </trkpt>
      <trkpt lat="43.3852" lon="-0.58711">
        <ele>103.96</ele>
        <time>2017-04-15T09:05:46Z</time>
      </trkpt>
      <trkpt lat="43.38522" lon="-0.58706">
        <ele>103.96</ele>
        <time>2017-04-15T09:05:47Z</time>
      </trkpt>
      <trkpt lat="43.38524" lon="-0.587">
        <ele>104.44</ele>
        <time>2017-04-15T09:05:48Z</time>
      </trkpt>
      <trkpt lat="43.38567" lon="-0.58573">
        <ele>105.4</ele>
        <time>2017-04-15T09:06:05Z</time>
      </trkpt>
      <trkpt lat="43.38628" lon="-0.58431">
        <ele>103.96</ele>
        <time>2017-04-15T09:06:21Z</time>
      </trkpt>
      <trkpt lat="43.38731" lon="-0.58313">
        <ele>102.52</ele>
        <time>2017-04-15T09:06:38Z</time>
      </trkpt>
      <trkpt lat="43.38845" lon="-0.5819">
        <ele>102.04</ele>
        <time>2017-04-15T09:06:57Z</time>
      </trkpt>
      <trkpt lat="43.38961" lon="-0.58063">
        <ele>102.04</ele>
        <time>2017-04-15T09:07:16Z</time>
      </trkpt>
      <trkpt lat="43.39021" lon="-0.57997">
        <ele>101.56</ele>
        <time>2017-04-15T09:07:29Z</time>
      </trkpt>
      <trkpt lat="43.39033" lon="-0.57982">
        <ele>101.08</ele>
        <time>2017-04-15T09:07:32Z</time>
      </trkpt>
      <trkpt lat="43.39037" lon="-0.57978">
        <ele>101.08</ele>
        <time>2017-04-15T09:07:33Z</time>
      </trkpt>
      <trkpt lat="43.39058" lon="-0.57962">
        <ele>101.08</ele>
        <time>2017-04-15T09:07:37Z</time>
      </trkpt>
      <trkpt lat="43.39064" lon="-0.57959">
        <ele>100.6</ele>
        <time>2017-04-15T09:07:38Z</time>
      </trkpt>
      <trkpt lat="43.39089" lon="-0.57948">
        <ele>100.6</ele>
        <time>2017-04-15T09:07:42Z</time>
      </trkpt>
      <trkpt lat="43.392" lon="-0.57924">
        <ele>100.6</ele>
        <time>2017-04-15T09:07:57Z</time>
      </trkpt>
      <trkpt lat="43.3931" lon="-0.57861">
        <ele>101.08</ele>
        <time>2017-04-15T09:08:13Z</time>
      </trkpt>
      <trkpt lat="43.39415" lon="-0.57762">
        <ele>101.56</ele>
        <time>2017-04-15T09:08:30Z</time>
      </trkpt>
      <trkpt lat="43.39507" lon="-0.57678">
        <ele>104.44</ele>
        <time>2017-04-15T09:08:46Z</time>
      </trkpt>
      <trkpt lat="43.39573" lon="-0.57619">
        <ele>107.81</ele>
        <time>2017-04-15T09:09:01Z</time>
      </trkpt>
      <trkpt lat="43.39611" lon="-0.57584">
        <ele>108.29</ele>
        <time>2017-04-15T09:09:10Z</time>
      </trkpt>
      <trkpt lat="43.39615" lon="-0.57581">
        <ele>108.29</ele>
        <time>2017-04-15T09:09:11Z</time>
      </trkpt>
      <trkpt lat="43.39635" lon="-0.57561">
        <ele>108.29</ele>
        <time>2017-04-15T09:09:20Z</time>
      </trkpt>
      <trkpt lat="43.39638" lon="-0.57557">
        <ele>108.29</ele>
        <time>2017-04-15T09:09:21Z</time>
      </trkpt>
      <trkpt lat="43.39641" lon="-0.57553">
        <ele>108.77</ele>
        <time>2017-04-15T09:09:22Z</time>
      </trkpt>
      <trkpt lat="43.39645" lon="-0.57549">
        <ele>108.77</ele>
        <time>2017-04-15T09:09:23Z</time>
      </trkpt>
      <trkpt lat="43.3965" lon="-0.57547">
        <ele>108.77</ele>
        <time>2017-04-15T09:09:24Z</time>
      </trkpt>
      <trkpt lat="43.39657" lon="-0.57547">
        <ele>108.77</ele>
        <time>2017-04-15T09:09:25Z</time>
      </trkpt>
      <trkpt lat="43.39663" lon="-0.5755">
        <ele>108.29</ele>
        <time>2017-04-15T09:09:26Z</time>
      </trkpt>
      <trkpt lat="43.39668" lon="-0.57556">
        <ele>108.29</ele>
        <time>2017-04-15T09:09:27Z</time>
      </trkpt>
      <trkpt lat="43.39673" lon="-0.57565">
        <ele>107.81</ele>
        <time>2017-04-15T09:09:28Z</time>
      </trkpt>
      <trkpt lat="43.39676" lon="-0.57574">
        <ele>107.32</ele>
        <time>2017-04-15T09:09:29Z</time>
      </trkpt>
      <trkpt lat="43.39678" lon="-0.57585">
        <ele>107.32</ele>
        <time>2017-04-15T09:09:30Z</time>
      </trkpt>
      <trkpt lat="43.3968" lon="-0.57594">
        <ele>107.32</ele>
        <time>2017-04-15T09:09:31Z</time>
      </trkpt>
      <trkpt lat="43.39684" lon="-0.57605">
        <ele>106.84</ele>
        <time>2017-04-15T09:09:32Z</time>
      </trkpt>
      <trkpt lat="43.39689" lon="-0.57614">
        <ele>106.36</ele>
        <time>2017-04-15T09:09:33Z</time>
      </trkpt>
      <trkpt lat="43.39694" lon="-0.57622">
        <ele>105.88</ele>
        <time>2017-04-15T09:09:34Z</time>
      </trkpt>
      <trkpt lat="43.39701" lon="-0.57631">
        <ele>105.88</ele>
        <time>2017-04-15T09:09:35Z</time>
      </trkpt>
      <trkpt lat="43.3979" lon="-0.5775">
        <ele>105.4</ele>
        <time>2017-04-15T09:09:50Z</time>
      </trkpt>
      <trkpt lat="43.39815" lon="-0.5778">
        <ele>105.4</ele>
        <time>2017-04-15T09:09:54Z</time>
      </trkpt>
      <trkpt lat="43.39822" lon="-0.57783">
        <ele>105.88</ele>
        <time>2017-04-15T09:09:55Z</time>
      </trkpt>
      <trkpt lat="43.39829" lon="-0.57784">
        <ele>105.88</ele>
        <time>2017-04-15T09:09:56Z</time>
      </trkpt>
      <trkpt lat="43.39836" lon="-0.57781">
        <ele>105.88</ele>
        <time>2017-04-15T09:09:57Z</time>
      </trkpt>
      <trkpt lat="43.39843" lon="-0.57778">
        <ele>106.36</ele>
        <time>2017-04-15T09:09:58Z</time>
      </trkpt>
      <trkpt lat="43.3985" lon="-0.57776">
        <ele>105.88</ele>
        <time>2017-04-15T09:09:59Z</time>
      </trkpt>
      <trkpt lat="43.39856" lon="-0.57777">
        <ele>105.88</ele>
        <time>2017-04-15T09:10:00Z</time>
      </trkpt>
      <trkpt lat="43.39863" lon="-0.5778">
        <ele>105.88</ele>
        <time>2017-04-15T09:10:01Z</time>
      </trkpt>
      <trkpt lat="43.39869" lon="-0.57785">
        <ele>105.88</ele>
        <time>2017-04-15T09:10:02Z</time>
      </trkpt>
      <trkpt lat="43.39875" lon="-0.57792">
        <ele>105.4</ele>
        <time>2017-04-15T09:10:03Z</time>
      </trkpt>
      <trkpt lat="43.39878" lon="-0.57798">
        <ele>105.4</ele>
        <time>2017-04-15T09:10:04Z</time>
      </trkpt>
      <trkpt lat="43.39882" lon="-0.57807">
        <ele>105.4</ele>
        <time>2017-04-15T09:10:05Z</time>
      </trkpt>
      <trkpt lat="43.39885" lon="-0.57816">
        <ele>104.92</ele>
        <time>2017-04-15T09:10:06Z</time>
      </trkpt>
      <trkpt lat="43.39913" lon="-0.57893">
        <ele>103.96</ele>
        <time>2017-04-15T09:10:15Z</time>
      </trkpt>
      <trkpt lat="43.39918" lon="-0.57911">
        <ele>103.96</ele>
        <time>2017-04-15T09:10:17Z</time>
      </trkpt>
      <trkpt lat="43.39977" lon="-0.58074">
        <ele>103.48</ele>
        <time>2017-04-15T09:10:36Z</time>
      </trkpt>
      <trkpt lat="43.39996" lon="-0.58125">
        <ele>103</ele>
        <time>2017-04-15T09:10:43Z</time>
      </trkpt>
      <trkpt lat="43.39998" lon="-0.58131">
        <ele>103</ele>
        <time>2017-04-15T09:10:44Z</time>
      </trkpt>
      <trkpt lat="43.40001" lon="-0.58134">
        <ele>103</ele>
        <time>2017-04-15T09:10:45Z</time>
      </trkpt>
      <trkpt lat="43.40006" lon="-0.58134">
        <ele>103</ele>
        <time>2017-04-15T09:10:46Z</time>
      </trkpt>
      <trkpt lat="43.40011" lon="-0.58131">
        <ele>103.48</ele>
        <time>2017-04-15T09:10:48Z</time>
      </trkpt>
      <trkpt lat="43.40017" lon="-0.58128">
        <ele>103.48</ele>
        <time>2017-04-15T09:10:49Z</time>
      </trkpt>
      <trkpt lat="43.40079" lon="-0.58092">
        <ele>103.48</ele>
        <time>2017-04-15T09:11:03Z</time>
      </trkpt>
      <trkpt lat="43.40083" lon="-0.58089">
        <ele>103.48</ele>
        <time>2017-04-15T09:11:04Z</time>
      </trkpt>
      <trkpt lat="43.40086" lon="-0.58085">
        <ele>103</ele>
        <time>2017-04-15T09:11:05Z</time>
      </trkpt>
      <trkpt lat="43.40088" lon="-0.58079">
        <ele>103</ele>
        <time>2017-04-15T09:11:06Z</time>
      </trkpt>
      <trkpt lat="43.40087" lon="-0.58074">
        <ele>103</ele>
        <time>2017-04-15T09:11:07Z</time>
      </trkpt>
      <trkpt lat="43.40086" lon="-0.58068">
        <ele>103</ele>
        <time>2017-04-15T09:11:08Z</time>
      </trkpt>
      <trkpt lat="43.40076" lon="-0.58015">
        <ele>102.52</ele>
        <time>2017-04-15T09:11:18Z</time>
      </trkpt>
      <trkpt lat="43.40077" lon="-0.58011">
        <ele>102.52</ele>
        <time>2017-04-15T09:11:19Z</time>
      </trkpt>
      <trkpt lat="43.40082" lon="-0.58004">
        <ele>102.52</ele>
        <time>2017-04-15T09:11:21Z</time>
      </trkpt>
      <trkpt lat="43.40089" lon="-0.57997">
        <ele>101.08</ele>
        <time>2017-04-15T09:11:28Z</time>
      </trkpt>
    </trkseg>
  </trk>
</gpx>